GFSSW_925_thetae_000.txt.gz
Theta_e
305 305 306 306 306 307 307 307 307 307 306 307 307 307 308 308 308 312 316 316 317 321 326 330 327 327 328 330 331 330 330 330 331 331 331 330 327 324 322 322 322 322 323 322 321
303 304 305 305 305 306 306 306 306 306 307 306 307 307 308 308 311 315 314 313 315 317 325 328 329 328 330 330 330 329 328 328 329 330 331 330 328 327 323 323 322 322 321 319 319
302 301 302 304 304 305 305 305 306 306 306 305 305 306 307 308 318 317 315 314 314 316 322 325 326 328 329 329 329 327 327 326 327 329 328 328 327 325 324 324 324 323 323 321 320
305 305 305 304 302 301 303 305 305 306 305 305 306 306 307 314 315 322 319 319 315 319 320 324 326 328 328 329 327 327 325 326 327 328 326 326 326 324 323 324 323 323 323 323 322
306 305 306 304 300 300 300 300 302 304 303 305 306 306 312 316 313 315 319 320 320 320 320 323 326 326 327 328 326 326 325 326 327 326 324 324 324 323 323 323 322 322 322 323 323
307 306 305 305 304 302 300 299 299 301 304 305 305 306 315 313 313 312 314 315 316 322 320 321 325 326 326 327 326 326 326 326 326 324 323 323 324 321 324 323 323 322 323 323 322
307 307 306 306 305 304 302 300 299 300 303 304 305 312 314 313 312 316 321 323 319 320 322 320 323 325 325 327 326 327 326 326 325 323 323 322 324 323 324 323 323 323 323 322 323
307 307 307 306 306 306 304 300 298 298 300 302 306 316 314 312 312 313 313 317 322 322 321 322 322 325 325 327 326 325 325 327 327 323 322 322 325 324 324 323 324 324 323 322 322
309 307 306 306 305 305 305 302 299 298 301 308 317 318 315 313 313 313 313 313 314 317 318 323 323 325 325 327 328 327 327 327 328 325 324 323 326 325 324 323 324 324 324 323 323
307 308 307 306 305 305 304 302 308 314 317 317 318 319 316 316 314 315 315 313 317 317 324 324 325 326 327 328 330 328 327 326 328 326 324 325 326 324 324 324 325 325 325 323 323
304 305 307 308 306 305 305 305 314 320 318 315 317 314 314 313 314 315 317 314 317 323 325 325 326 327 327 328 328 326 326 327 327 326 325 327 327 325 324 324 325 325 326 325 324
303 304 304 307 307 305 305 308 310 307 312 315 316 316 314 315 316 316 318 317 318 323 324 326 327 327 326 327 327 326 328 328 327 326 326 326 325 325 325 324 325 326 327 325 325
302 303 303 305 307 306 306 307 306 307 313 312 313 315 316 316 316 318 319 318 319 322 324 326 325 326 327 327 327 327 328 328 328 327 325 325 325 325 325 324 325 325 326 326 326
303 302 303 306 306 307 307 305 305 307 314 314 314 314 315 315 316 316 319 319 321 321 324 326 325 326 327 327 326 327 326 326 326 326 326 326 328 325 325 324 325 327 326 326 325
301 302 302 305 308 307 306 305 305 309 318 318 317 316 316 316 316 315 317 321 320 321 325 326 326 327 327 326 325 325 325 326 326 326 326 326 327 325 324 324 323 323 327 327 325
299 302 302 304 307 307 306 305 308 318 318 316 318 317 317 316 316 317 317 319 321 321 324 325 325 326 326 324 323 324 325 325 325 325 328 325 325 323 322 323 323 324 328 328 325
300 301 303 305 306 306 306 307 316 317 317 317 319 318 318 318 317 318 317 317 320 323 326 325 325 325 325 324 324 325 326 328 329 328 327 325 323 323 323 323 324 325 326 328 325
300 300 304 303 303 305 306 309 315 315 317 317 317 319 319 319 318 318 318 318 319 322 324 325 326 326 325 323 325 325 327 327 328 329 327 325 324 323 323 325 328 329 330 328 325
301 301 304 304 303 304 309 311 313 315 317 317 316 320 320 320 319 319 319 318 319 322 323 326 326 325 325 324 324 325 326 325 327 326 327 325 325 325 324 326 329 330 330 328 326
302 301 304 304 304 304 309 311 310 312 315 317 318 318 321 320 319 320 320 319 318 320 323 324 327 324 324 324 323 325 325 326 326 329 329 325 325 324 324 328 334 332 330 328 326
301 304 303 304 305 305 310 309 309 311 313 316 317 318 318 321 320 320 320 319 319 319 321 324 325 326 324 325 324 324 326 326 326 326 328 329 326 326 325 331 334 334 331 328 327
302 305 305 305 306 305 309 309 307 308 309 310 315 318 318 319 321 321 320 320 319 319 321 324 324 327 325 324 323 325 324 327 327 328 326 326 326 326 327 332 334 335 331 328 327
303 303 304 305 307 307 308 309 309 308 308 310 312 316 318 319 321 321 321 319 318 319 322 324 324 325 324 327 326 324 324 325 327 327 328 328 327 327 330 332 335 336 331 328 327
304 303 304 303 305 307 307 307 309 308 307 307 309 312 316 319 320 321 321 320 318 319 326 325 324 326 327 327 325 326 324 325 327 329 328 327 326 326 327 330 333 335 332 329 328
302 303 304 307 303 308 306 308 308 309 307 308 310 312 317 318 319 320 321 320 319 322 324 327 326 324 323 323 325 325 324 324 326 327 328 326 326 326 326 328 330 334 332 329 327
303 304 302 305 305 306 306 306 306 306 308 308 309 310 315 318 319 318 320 321 321 321 323 327 326 324 324 322 322 324 324 325 325 325 326 325 326 326 326 327 331 334 333 330 328
299 300 301 305 306 305 306 306 306 307 307 308 308 309 312 315 315 317 319 320 321 324 326 326 326 326 325 322 322 325 324 325 326 326 326 327 326 326 326 329 331 333 332 331 330

GFSSW_925_thetae_003.txt.gz
Theta_e
303 303 304 305 305 306 306 306 306 306 306 306 307 307 308 308 309 316 316 317 318 321 328 331 330 330 330 331 330 331 333 333 332 331 332 330 330 330 327 327 325 324 324 325 325
301 302 302 302 303 304 306 306 306 306 306 306 306 307 307 307 313 316 317 316 316 318 328 331 331 330 331 330 330 331 333 331 329 329 330 330 330 330 329 328 326 325 324 323 323
304 303 301 300 301 301 303 305 306 306 306 306 306 307 307 307 320 319 319 316 314 316 323 329 329 331 331 330 331 331 333 330 328 327 328 329 328 329 328 327 326 325 324 325 324
307 307 305 304 300 300 300 302 303 305 306 306 306 306 307 314 316 324 318 315 314 318 320 323 328 329 332 331 331 331 330 329 326 325 328 329 328 328 327 326 325 324 323 324 325
308 308 307 306 305 302 300 300 300 301 303 306 306 306 312 319 317 319 317 318 317 317 320 323 326 328 331 331 330 330 329 327 326 326 328 328 327 327 326 326 325 324 324 323 325
308 307 307 307 307 306 305 303 300 299 300 305 305 306 317 316 314 315 319 324 326 321 321 322 326 328 329 329 329 329 329 327 327 327 328 327 327 326 327 325 324 324 324 324 324
309 308 307 307 307 307 307 306 304 299 298 299 302 312 316 315 314 315 314 315 317 318 324 321 322 326 327 328 328 329 328 328 328 327 328 327 327 328 326 326 325 325 325 324 325
308 309 308 307 307 306 305 305 305 301 298 298 301 314 318 314 314 314 316 321 321 322 318 322 321 324 327 327 327 328 328 330 329 328 327 326 328 329 327 327 326 326 326 326 325
306 307 309 308 307 307 306 306 304 302 299 300 313 318 316 315 315 314 314 315 315 319 320 321 323 323 325 327 328 329 330 330 329 329 328 327 328 328 328 327 327 326 326 326 325
304 304 306 306 308 308 307 307 306 307 314 316 315 320 319 316 315 315 315 315 316 318 322 322 324 324 326 327 329 330 331 330 329 329 330 329 328 328 328 328 327 326 327 327 326
305 303 304 304 305 308 307 310 315 319 317 316 317 315 316 315 315 316 316 317 317 317 319 322 325 326 327 327 327 328 329 329 329 329 329 329 329 329 330 328 327 326 326 328 328
304 303 303 304 304 306 308 312 313 312 317 321 319 318 316 316 318 316 318 317 317 319 319 326 326 325 326 326 327 329 329 329 328 329 330 330 330 329 327 326 326 326 326 328 329
301 303 303 302 303 307 309 311 311 311 314 314 316 319 317 317 317 318 318 319 317 318 321 325 326 325 325 327 328 329 329 329 329 329 330 329 329 328 327 327 326 325 327 328 330
300 300 302 303 305 309 311 310 309 310 315 316 316 316 317 318 317 317 318 320 319 318 321 325 326 326 325 327 328 329 328 327 328 330 330 328 330 328 327 326 326 326 326 328 329
304 298 301 303 307 312 310 308 308 311 319 320 319 317 318 318 317 317 317 320 320 319 321 323 325 326 326 327 328 328 327 327 328 329 329 328 329 328 327 326 324 325 326 328 330
305 301 299 304 305 308 310 308 309 318 318 319 320 319 318 318 318 319 317 320 320 320 321 322 324 325 326 327 327 327 326 326 327 328 329 327 328 328 326 325 324 325 326 330 330
305 304 300 305 309 308 308 310 314 317 317 320 320 321 319 319 318 319 317 319 322 321 323 323 324 326 327 328 327 325 326 328 330 332 331 328 327 327 325 324 324 325 328 331 329
304 305 301 303 306 306 309 312 315 315 318 320 320 321 320 320 319 319 319 320 322 322 324 325 326 326 327 328 326 325 326 328 330 331 329 328 328 327 324 324 325 326 329 332 330
303 304 303 304 305 306 310 314 314 315 317 319 320 321 321 321 321 320 320 320 321 323 325 325 327 325 327 327 326 326 327 326 328 328 328 328 328 326 324 325 327 328 332 333 330
305 304 303 303 306 306 309 311 310 312 313 317 320 321 322 321 321 321 322 322 321 322 324 326 328 325 326 326 326 326 326 328 328 330 332 329 328 326 326 328 333 333 333 332 329
304 305 304 304 306 308 309 310 309 310 312 314 317 320 321 322 322 322 322 322 321 321 323 325 327 327 327 328 327 324 325 327 328 328 329 331 329 328 327 330 334 333 333 331 329
302 308 305 305 309 307 308 308 309 309 310 311 312 314 319 322 323 322 322 323 322 322 322 325 328 330 328 327 326 326 325 327 329 330 328 330 329 327 327 330 332 333 332 330 328
306 307 306 307 311 310 307 308 308 310 309 310 312 313 316 320 324 323 323 323 322 322 324 327 328 331 330 328 327 326 325 325 328 330 330 330 329 327 328 330 331 332 332 329 328
305 310 306 307 305 308 311 308 308 310 309 310 312 311 313 317 321 324 323 322 322 321 328 330 329 330 330 330 327 327 325 326 327 331 329 329 328 328 329 329 331 332 333 330 329
305 306 305 307 307 307 306 308 310 307 309 310 311 311 313 319 321 323 322 323 322 323 326 332 331 327 327 326 326 326 325 325 326 327 330 329 328 328 328 328 330 332 333 331 329
305 305 304 307 305 306 307 307 308 307 309 310 309 311 313 316 321 322 322 325 323 322 323 330 333 327 326 325 325 327 326 326 325 326 327 328 329 327 327 327 329 332 333 332 330
303 302 303 303 307 306 307 307 306 307 306 308 309 310 311 313 313 317 319 322 325 323 328 329 328 330 327 324 324 327 327 326 325 324 326 328 328 327 327 327 328 330 331 332 332

GFSSW_925_thetae_006.txt.gz
Theta_e
303 302 302 303 303 303 305 305 306 306 306 306 306 307 307 307 307 315 317 315 317 318 322 329 330 331 332 333 332 332 333 334 334 332 331 330 330 331 330 328 328 326 324 326 327
307 305 304 303 303 301 302 303 304 306 306 306 306 306 306 307 311 316 316 318 317 318 323 330 333 333 333 332 332 332 333 333 333 331 329 329 329 329 329 329 329 326 325 325 325
308 308 307 306 305 304 301 300 301 303 305 306 306 306 307 307 318 317 320 318 317 317 320 326 330 333 332 331 331 331 333 331 332 332 328 327 327 329 328 328 328 326 326 326 324
308 308 308 308 307 307 305 304 302 300 301 304 306 307 307 311 315 322 317 317 317 318 319 321 327 332 333 333 331 332 331 332 331 331 328 326 326 329 328 328 327 326 325 326 327
309 309 308 308 308 308 307 307 306 302 300 299 303 306 310 314 315 316 318 317 315 317 319 321 324 331 332 331 331 333 332 331 331 329 328 326 327 329 328 327 326 325 324 324 326
308 308 309 308 308 307 307 307 306 305 302 299 299 303 315 314 313 314 316 323 320 318 318 320 322 325 327 328 330 331 332 330 330 329 328 327 328 328 328 327 326 325 324 325 325
305 306 308 309 308 307 307 307 307 305 304 299 299 311 313 313 314 315 316 317 323 321 320 319 321 324 325 328 329 330 330 329 329 329 328 328 328 328 328 327 327 327 327 326 326
304 304 306 308 309 308 308 307 307 307 305 303 302 310 313 313 313 313 314 316 316 318 322 323 323 323 324 326 328 328 329 329 329 329 328 329 329 328 328 329 329 328 327 327 328
305 304 304 304 306 306 306 308 308 307 308 307 310 310 311 313 314 314 316 316 320 321 321 320 320 324 322 324 327 328 330 329 329 329 329 329 329 328 328 329 331 330 329 328 329
304 305 304 304 304 304 305 307 308 309 310 313 310 314 318 319 315 316 315 316 316 319 318 320 321 323 324 324 328 329 328 328 329 330 329 329 330 329 329 329 331 332 330 330 330
303 303 304 303 304 304 306 310 315 319 311 317 317 314 317 319 318 316 317 316 317 317 317 320 324 325 326 326 324 327 327 329 331 330 330 332 334 331 330 329 331 332 332 332 332
305 302 303 303 302 303 305 310 314 313 315 316 318 316 315 316 317 316 317 317 317 317 317 319 325 323 324 325 324 325 327 329 328 328 328 329 330 330 330 331 330 329 330 332 333
306 305 298 301 303 304 306 308 310 312 314 314 317 321 320 318 318 317 316 317 318 317 317 318 320 322 324 325 324 327 328 329 329 328 328 329 332 331 330 330 329 329 329 329 333
305 305 304 300 304 309 312 311 312 311 314 313 315 315 318 321 320 318 319 318 318 318 318 318 319 323 325 324 326 328 327 328 329 329 330 329 333 333 330 330 328 326 329 330 334
305 304 305 300 306 308 311 310 310 311 318 318 316 318 317 320 319 319 318 319 320 318 318 318 320 321 327 325 325 327 327 328 328 329 330 329 330 329 330 330 328 325 326 331 333
305 304 306 302 304 306 307 311 310 315 315 317 321 318 318 318 320 320 319 319 319 319 320 318 320 323 324 326 326 326 327 328 328 328 332 329 330 329 329 326 325 324 325 331 332
304 305 305 305 305 307 309 311 314 315 314 318 321 319 319 319 319 320 319 319 321 321 323 320 319 321 324 325 327 326 330 330 332 330 331 328 329 331 329 327 325 324 330 333 333
304 304 305 306 304 305 307 313 315 311 313 319 320 321 320 321 320 320 319 320 321 321 321 322 321 321 323 326 326 328 331 330 332 331 330 331 332 329 326 325 325 325 330 334 333
303 305 306 306 305 304 309 312 311 311 313 314 316 319 322 322 321 320 322 321 320 323 324 323 322 322 323 325 327 329 329 327 329 328 329 329 331 329 328 325 325 326 333 336 334
305 306 306 306 304 306 309 310 310 310 310 311 313 317 320 322 322 322 323 322 321 322 325 325 327 324 323 326 327 330 327 328 327 331 334 329 329 329 328 327 330 333 334 337 334
306 305 305 306 305 307 310 309 308 309 309 309 311 314 316 317 321 322 322 321 321 321 323 326 331 328 326 328 328 328 329 328 329 328 332 333 330 333 331 337 339 334 336 336 333
303 307 307 305 308 306 310 309 308 308 308 309 310 311 314 316 319 321 324 324 322 323 324 326 329 331 328 327 328 328 328 330 331 333 330 330 330 332 332 331 336 335 335 332 331
307 309 307 306 309 308 309 308 307 308 307 308 310 310 313 315 317 322 324 323 323 323 326 327 329 333 332 330 329 329 329 329 333 335 335 330 330 331 330 331 331 336 333 332 331
307 307 309 310 308 309 308 308 308 309 309 307 310 310 313 315 315 319 323 325 323 324 326 329 330 331 334 332 331 332 329 327 329 333 329 330 330 332 329 330 330 335 334 331 331
306 307 306 308 308 307 306 308 307 307 309 308 309 310 312 315 316 319 319 319 322 326 329 332 329 332 329 328 328 328 328 327 328 329 329 330 329 329 332 330 331 335 334 332 331
306 307 306 308 306 305 306 309 306 306 307 309 311 310 311 313 314 317 316 319 322 322 328 333 330 331 328 327 328 328 327 327 327 326 327 328 330 330 331 331 331 334 334 332 331
304 304 305 305 306 308 308 307 308 307 308 308 309 310 310 311 312 313 314 316 319 322 327 334 331 332 334 327 327 330 329 328 328 327 328 329 330 330 330 329 330 336 335 334 332

GFSSW_925_thetae_009.txt.gz
Theta_e
309 308 307 308 308 306 303 301 302 303 305 306 306 306 306 306 307 309 316 312 313 314 325 327 326 329 329 330 331 331 330 332 331 330 331 326 325 327 327 327 327 323 323 326 326
309 308 308 308 307 307 306 304 302 301 302 304 304 306 306 306 308 313 311 312 316 315 318 328 329 328 329 330 331 331 331 331 331 330 330 327 324 324 327 326 327 325 325 327 326
310 309 309 308 308 308 307 307 306 304 302 301 302 305 306 306 318 313 319 319 315 318 317 320 328 330 330 331 331 331 331 330 330 330 329 329 324 323 324 327 327 324 324 324 324
308 309 310 309 308 308 308 308 307 307 306 303 300 300 305 308 310 318 317 316 318 317 319 320 321 326 331 333 331 332 330 330 329 329 329 328 325 325 324 326 327 324 324 322 322
306 306 308 308 309 309 308 308 307 306 306 305 303 299 305 314 313 312 315 319 317 319 319 318 318 320 324 331 331 331 331 330 330 330 327 326 326 326 324 326 326 323 323 323 321
305 305 305 305 308 309 309 308 308 307 307 306 307 305 313 312 309 311 312 314 319 319 319 318 318 319 321 326 329 330 329 329 330 330 327 327 328 326 326 327 326 323 322 321 320
304 305 304 304 305 308 308 309 308 308 308 308 311 310 311 310 311 313 314 314 318 319 317 317 318 319 321 321 322 324 325 326 327 328 326 327 328 326 326 325 325 323 322 321 321
302 302 305 305 304 304 305 305 306 306 308 308 312 310 309 308 311 311 311 312 314 318 318 319 317 317 318 319 322 322 324 327 326 326 327 325 328 326 326 325 325 325 324 324 322
306 303 300 305 306 306 304 304 304 306 307 309 311 310 307 307 309 309 313 313 313 314 322 323 320 318 319 320 321 321 323 325 327 327 327 326 327 327 326 325 325 326 326 325 323
307 306 304 299 302 304 303 304 304 308 310 312 311 309 310 312 310 313 313 314 315 316 317 316 315 316 316 320 322 322 324 326 327 327 326 327 329 327 327 325 325 325 326 326 327
306 306 306 304 298 302 304 305 310 314 313 314 313 309 313 315 317 316 316 315 315 315 315 320 315 318 320 319 322 322 324 326 327 327 326 330 329 329 328 327 326 325 327 327 326
305 305 306 305 299 300 303 305 308 309 312 313 313 313 311 313 314 316 316 317 315 315 314 314 315 316 321 321 322 323 323 323 324 326 328 329 329 328 330 328 326 326 325 325 327
304 305 305 305 303 299 305 305 309 306 312 314 314 314 315 316 315 316 317 316 315 314 314 314 315 316 322 322 323 324 324 323 324 326 326 327 327 328 329 327 327 326 325 326 327
304 304 305 305 303 304 307 310 309 310 314 310 312 313 314 317 320 318 317 316 316 315 314 314 315 317 321 323 323 324 324 324 325 327 327 328 327 327 327 326 326 326 325 327 326
304 304 305 305 304 302 306 307 309 312 313 311 311 314 313 319 320 320 318 317 315 316 315 315 315 316 317 322 322 324 324 324 326 326 327 326 326 325 327 327 326 324 324 327 327
304 304 305 305 306 303 304 307 309 313 313 312 316 315 314 317 320 321 318 317 316 316 316 316 317 316 316 318 322 324 324 325 326 326 328 328 327 327 327 327 324 323 324 328 327
304 304 304 306 307 305 304 307 313 314 310 311 315 316 315 316 319 321 318 317 317 317 318 318 317 317 317 318 319 324 323 325 328 326 327 326 327 326 326 327 323 327 329 328 327
303 303 304 306 305 306 305 310 313 309 310 311 310 312 313 317 317 319 320 317 316 316 317 319 319 317 318 318 321 321 323 324 329 331 327 326 328 326 327 325 324 328 329 328 327
303 304 305 305 306 307 306 311 309 309 308 310 309 311 314 314 318 318 319 318 317 316 317 318 319 319 318 318 319 322 325 323 325 327 326 326 327 331 325 323 325 330 329 328 327
305 304 305 306 306 306 306 309 308 307 308 308 309 309 310 311 314 316 319 319 318 317 317 319 319 320 319 318 319 321 325 326 324 327 328 328 328 329 325 324 330 332 330 329 327
304 306 305 305 306 306 308 307 308 307 307 307 308 308 309 310 312 314 318 320 320 318 316 318 322 322 319 319 318 320 326 324 322 322 326 328 329 326 327 332 332 333 331 329 327
303 306 307 306 307 305 309 306 307 308 308 307 307 308 308 311 313 314 317 320 319 319 317 317 322 322 325 321 320 322 324 324 325 329 325 326 328 333 333 333 331 333 331 327 325
305 306 306 306 309 306 305 306 307 307 307 308 309 309 308 310 315 315 317 317 318 319 319 318 319 326 323 323 321 325 325 324 325 324 328 328 327 327 331 334 333 331 330 328 325
305 305 306 307 305 307 307 306 306 306 307 307 309 310 308 311 312 315 316 316 316 319 328 321 319 319 327 325 324 326 326 325 325 329 327 329 326 329 330 332 331 330 327 326 325
304 305 305 306 306 305 306 306 305 305 305 306 309 310 309 311 313 314 314 315 316 321 316 322 319 324 322 324 326 326 327 326 326 325 327 326 327 327 327 327 331 329 327 327 325
304 305 305 304 305 305 306 306 306 306 306 307 309 310 311 311 312 316 313 313 314 314 313 316 323 321 323 325 323 327 326 326 326 325 325 325 325 325 328 325 330 329 328 327 327
303 304 305 304 305 307 307 308 308 307 307 307 307 308 310 311 312 312 310 310 311 313 313 317 329 322 322 322 325 325 327 326 326 325 324 324 323 326 329 326 328 329 328 328 327

GFSSW_925_thetae_012.txt.gz
Theta_e
311 310 309 309 308 308 307 306 305 303 302 302 304 305 306 306 306 307 310 310 312 313 322 324 328 327 328 327 328 328 330 332 330 330 330 328 326 324 325 325 324 322 323 325 324
310 310 310 310 310 309 308 308 307 307 306 302 301 302 304 305 307 311 310 310 311 311 319 327 327 328 326 327 328 329 330 334 332 328 329 329 326 324 323 323 325 324 325 325 324
307 308 309 310 310 309 309 308 308 307 307 306 304 301 301 304 314 312 315 317 318 311 314 319 328 326 327 327 328 329 333 332 331 329 328 329 328 327 324 323 322 324 325 323 322
307 307 308 308 309 308 308 309 308 308 307 307 306 305 300 306 307 313 316 314 317 315 317 317 317 324 328 329 329 331 331 331 331 330 329 328 328 328 324 324 323 323 325 323 322
306 307 307 307 306 307 307 309 309 309 308 307 307 308 305 314 308 312 317 313 318 318 321 317 317 318 321 328 329 331 331 331 330 329 328 328 328 327 326 325 323 322 323 323 323
302 301 304 306 306 306 306 306 308 308 308 308 308 310 310 306 306 308 309 310 313 319 319 317 316 317 316 320 322 327 330 330 329 329 328 328 328 326 327 325 324 321 322 321 321
306 306 301 299 304 306 305 305 305 305 306 306 310 312 311 309 304 308 311 311 310 314 319 318 317 317 316 317 317 319 325 327 328 325 325 324 326 326 325 324 323 320 320 320 320
307 306 306 305 300 302 306 304 303 303 305 307 311 312 311 306 305 306 306 307 308 314 315 317 318 316 315 315 317 319 318 320 321 323 324 324 327 325 324 323 323 323 320 319 318
306 306 306 306 305 302 299 302 303 303 306 308 311 311 308 306 307 305 306 309 309 309 312 316 316 314 316 316 317 317 320 320 321 321 324 324 326 326 325 325 324 323 322 322 320
305 305 305 306 306 305 299 300 302 305 307 309 311 311 309 310 309 309 309 309 310 313 312 314 317 316 314 316 320 320 319 321 322 322 323 324 325 325 325 324 324 322 323 323 321
306 304 305 305 306 305 302 300 305 312 310 313 311 308 312 310 312 313 312 310 313 313 312 315 320 321 320 317 318 320 320 321 322 322 324 324 326 326 326 325 322 322 322 323 323
304 304 305 305 305 305 304 303 304 307 307 308 311 311 309 310 311 313 314 314 312 312 314 314 316 319 316 316 316 317 320 321 321 322 322 322 325 326 325 326 323 323 323 324 324
303 304 304 304 305 304 302 304 307 306 307 310 309 311 312 312 313 313 314 315 313 313 313 314 316 317 317 317 320 318 318 322 323 323 322 322 325 326 326 326 326 324 323 325 325
303 303 304 304 305 303 302 304 304 306 310 312 312 312 313 313 316 315 315 315 315 312 313 314 314 318 317 315 318 321 320 320 324 325 324 323 326 323 324 324 324 323 322 324 324
303 303 304 304 305 304 304 304 305 307 311 308 308 312 312 314 317 317 316 316 316 314 314 313 314 314 314 315 315 321 321 322 324 324 321 323 324 323 323 325 324 323 324 324 323
303 303 304 304 305 305 305 305 305 311 312 309 310 308 312 313 314 319 317 316 316 315 314 313 314 314 314 315 316 319 321 321 321 322 324 323 325 326 324 325 325 321 325 324 324
302 303 303 304 305 305 305 304 310 314 308 309 308 307 308 314 314 316 318 317 316 315 315 315 314 314 314 314 316 319 319 322 322 325 326 323 326 326 324 324 324 323 326 325 325
302 303 303 303 303 304 305 310 314 307 308 307 308 308 310 309 311 316 319 317 315 314 314 315 316 315 316 315 314 315 318 322 324 326 325 324 326 325 323 323 323 327 326 326 325
303 304 304 304 304 306 306 310 307 307 307 307 307 308 309 309 310 312 317 317 316 315 315 314 316 317 316 316 315 315 315 318 321 324 324 324 324 326 324 326 328 328 327 326 326
304 303 304 304 305 305 307 307 307 306 306 307 308 308 308 308 309 312 314 317 317 316 314 315 317 317 317 316 316 315 318 322 320 325 326 325 326 326 324 328 329 328 327 325 325
304 301 303 305 306 306 308 305 305 305 306 308 308 307 307 308 309 312 312 315 316 317 315 315 316 320 317 316 316 314 316 320 321 321 325 325 324 321 323 325 329 327 326 326 325
301 302 303 306 307 305 308 304 305 305 306 306 307 307 307 309 310 311 313 313 313 314 317 315 314 316 317 317 316 315 315 319 323 324 321 322 322 323 323 329 328 327 327 325 325
299 301 305 306 305 307 305 305 305 306 307 307 308 308 309 310 308 312 314 313 312 314 316 317 316 317 320 318 319 316 317 320 319 321 323 323 322 327 329 329 329 328 326 325 324
298 301 300 305 304 307 306 306 306 305 304 306 308 306 309 310 309 309 313 312 312 313 316 313 318 316 319 321 320 319 317 323 322 322 323 323 325 327 333 332 329 328 326 325 325
298 299 303 300 300 302 303 304 305 306 304 304 306 309 309 311 309 310 309 311 312 313 311 310 319 316 316 318 321 321 319 321 325 323 324 323 324 324 331 331 330 328 325 325 325
303 302 301 299 301 302 304 305 307 307 306 308 307 308 308 310 311 312 311 312 312 311 310 309 316 318 316 317 318 319 321 322 324 324 322 324 324 323 330 330 329 328 326 326 325
302 303 304 303 300 303 303 306 307 306 307 307 308 308 307 308 311 311 311 310 310 311 311 311 315 320 318 319 318 318 320 323 324 323 323 324 322 321 324 330 329 327 326 326 325

GFSSW_925_thetae_015.txt.gz
Theta_e
310 311 310 310 310 310 310 308 308 307 307 305 303 302 302 302 305 306 307 310 311 312 312 321 327 328 326 325 326 324 329 331 330 329 329 326 327 327 324 323 323 321 323 323 324
308 308 309 309 310 310 310 309 309 308 308 307 306 304 302 300 306 311 311 312 313 310 311 326 329 327 325 326 327 328 329 330 328 328 328 326 328 327 325 325 322 324 323 324 323
306 307 308 308 308 309 309 309 309 310 309 308 307 307 304 300 311 307 311 315 317 310 310 323 326 326 326 324 326 327 330 328 328 329 328 328 328 328 327 327 322 323 323 322 320
305 305 305 307 307 307 307 308 309 310 310 309 308 307 306 305 305 310 314 318 318 316 314 316 322 326 326 327 326 329 329 329 329 329 329 329 328 328 328 327 326 322 323 321 320
307 306 306 304 305 306 306 305 307 308 309 309 308 309 309 312 306 310 317 311 317 319 316 314 315 320 323 326 327 328 327 327 328 328 328 328 328 328 328 327 326 323 323 322 321
307 307 307 306 306 305 304 306 305 305 305 308 309 310 310 308 304 306 308 307 308 317 320 316 315 316 316 317 319 324 325 327 328 329 329 329 329 328 327 325 324 321 322 322 322
305 306 306 307 307 307 306 302 303 305 306 307 308 310 310 311 307 304 306 307 308 308 315 319 317 317 315 316 315 316 317 318 320 323 325 326 326 326 325 323 322 321 320 321 322
305 304 305 306 306 307 307 306 303 304 306 307 308 309 310 310 309 308 309 307 307 310 311 314 318 316 315 314 316 317 317 319 320 321 323 320 324 323 322 322 323 322 319 320 320
305 305 304 305 305 306 306 306 305 305 305 307 307 308 310 307 309 308 307 305 305 306 307 313 315 314 314 316 315 315 317 317 318 319 320 321 323 323 323 322 322 323 322 319 319
305 305 304 304 305 305 305 304 304 306 307 307 307 310 308 308 307 307 307 306 308 308 308 310 313 313 311 313 318 316 316 317 318 319 319 320 321 322 323 323 323 323 323 321 319
305 304 304 304 304 304 305 304 302 307 309 309 308 306 308 309 309 310 307 306 308 311 308 310 311 318 316 316 317 318 317 318 319 320 320 321 322 322 322 321 321 321 321 321 320
304 303 304 304 304 305 305 301 304 305 307 307 307 309 310 310 311 311 309 309 310 307 310 312 312 314 318 317 318 318 318 318 319 319 320 320 320 321 321 321 322 323 323 321 324
304 303 303 303 304 304 302 303 304 302 307 308 308 308 308 309 312 312 312 312 311 310 310 310 314 314 320 321 320 318 317 318 318 320 320 320 322 322 322 322 322 322 321 321 323
303 303 303 304 304 303 304 303 304 304 308 309 311 309 309 310 311 310 312 314 313 310 310 310 311 315 317 321 317 316 316 317 318 319 321 321 324 322 321 322 322 320 319 320 323
302 303 303 303 304 304 304 304 305 305 308 306 309 310 311 311 313 312 311 313 315 311 311 310 311 312 315 316 315 316 318 319 320 319 320 322 322 321 321 323 322 321 320 321 322
304 303 303 304 304 303 304 305 304 310 310 307 307 307 308 313 313 313 314 312 313 315 311 311 313 312 313 316 316 316 317 318 318 319 322 322 322 322 321 322 322 322 324 322 321
302 303 304 304 303 304 304 303 310 311 307 306 307 307 308 308 313 313 315 314 314 315 315 313 312 313 313 314 313 313 314 317 320 321 324 320 322 323 321 321 322 322 323 322 322
302 303 303 304 303 303 305 306 310 307 307 307 307 306 308 307 307 310 313 317 314 314 314 314 314 313 314 314 315 314 315 320 323 323 323 321 324 324 322 321 321 321 322 323 324
302 303 303 304 304 304 306 303 305 307 307 307 306 307 307 307 307 309 311 314 315 314 313 314 314 315 314 314 313 313 317 317 319 321 322 322 322 321 323 326 326 326 325 324 324
303 302 303 304 304 305 306 304 306 306 305 306 307 307 308 306 308 309 311 313 316 315 312 314 313 315 315 314 313 312 312 314 315 322 325 324 324 325 323 328 328 327 325 325 323
301 301 302 305 305 305 307 305 305 304 304 306 307 307 307 306 309 308 311 311 313 313 313 313 314 317 315 315 314 312 314 313 313 316 321 323 323 320 321 325 327 326 325 324 324
299 301 302 305 307 305 306 305 305 305 305 306 306 307 307 307 307 306 308 309 312 312 314 313 311 314 315 315 315 314 314 313 319 320 319 321 323 321 319 322 325 324 325 323 323
298 298 304 303 305 305 305 306 305 305 305 306 307 307 307 309 309 307 310 311 309 310 311 314 316 315 314 316 314 314 313 314 314 317 321 323 323 324 324 320 325 324 324 324 323
299 301 297 302 302 305 304 304 306 305 305 304 306 307 307 309 309 309 308 307 307 308 313 311 314 317 316 316 316 315 314 313 315 317 318 321 322 329 329 327 326 325 324 324 324
296 298 300 299 299 300 302 303 305 307 304 304 304 306 307 311 311 310 309 309 308 309 310 308 312 317 319 315 315 319 316 315 316 317 320 321 322 326 328 328 327 325 323 324 324
302 302 302 303 300 300 301 305 306 307 308 307 307 308 308 309 310 314 311 311 310 309 310 307 310 315 321 317 315 315 317 315 317 318 320 321 321 322 327 327 327 326 325 325 325
301 302 302 302 299 299 301 304 304 305 307 307 307 307 306 307 308 309 310 309 310 310 309 309 311 312 321 318 315 315 315 316 318 320 320 322 320 319 328 328 328 325 325 325 325

GFSSW_925_thetae_018.txt.gz
Theta_e
308 308 309 309 309 309 310 310 310 310 310 309 308 307 305 303 303 304 307 309 312 310 311 319 319 325 326 325 325 322 329 330 328 328 327 325 327 324 324 324 322 322 322 322 323
306 306 306 307 308 308 308 308 309 310 310 310 310 309 307 305 306 310 308 308 311 310 310 323 328 326 324 325 325 327 328 329 324 325 326 325 327 327 327 327 325 324 321 322 322
308 308 307 306 306 306 307 307 308 308 310 310 310 310 309 305 308 305 309 310 310 309 309 316 325 325 326 323 326 326 330 328 326 325 326 327 327 328 328 328 327 325 324 322 320
307 308 308 307 307 306 305 306 307 307 308 308 309 309 309 307 302 309 317 313 319 312 311 322 325 324 324 326 326 328 327 328 327 326 327 328 327 329 329 328 326 325 324 321 319
306 307 307 307 307 308 308 306 305 306 307 307 308 308 310 309 306 308 315 307 313 319 313 314 324 324 325 324 325 326 327 326 326 324 326 327 328 328 328 328 327 324 322 320 319
305 305 306 306 306 307 307 306 307 306 304 306 307 308 309 310 307 307 304 305 305 311 318 313 315 319 320 321 323 323 325 325 323 325 326 328 328 328 329 328 326 322 321 319 320
304 305 305 306 306 306 306 306 307 306 307 306 307 308 308 309 308 307 306 307 307 306 311 316 314 314 313 316 314 316 318 316 317 318 320 322 323 325 324 324 322 321 320 319 320
304 304 305 305 306 307 306 306 306 306 307 308 306 307 306 307 307 309 308 308 307 307 307 310 317 315 314 313 314 316 315 317 317 318 319 320 321 321 321 321 321 321 321 319 318
304 304 304 304 305 306 304 304 303 306 308 307 306 306 306 307 308 308 308 309 308 309 306 309 314 314 313 315 315 313 316 315 315 316 318 320 319 320 319 320 320 321 321 320 319
304 304 304 304 304 304 304 303 305 307 306 306 306 305 305 305 309 307 307 308 307 304 305 307 311 313 311 313 317 315 314 314 314 316 316 316 317 318 318 318 320 320 320 319 320
304 304 304 304 304 304 304 303 303 305 306 306 306 306 306 308 308 310 305 307 307 305 303 307 311 314 313 314 314 314 314 314 314 317 318 317 318 318 319 318 318 318 318 319 318
304 304 304 304 304 304 304 300 304 303 305 305 306 307 307 307 308 308 307 307 307 309 306 309 310 312 314 314 315 316 316 316 317 319 318 318 318 318 318 318 317 319 319 319 319
303 303 303 303 303 304 302 302 303 304 304 307 307 307 307 307 309 308 310 308 308 306 307 308 309 311 314 316 316 316 317 317 318 318 317 317 318 318 320 319 318 318 319 319 319
304 304 304 303 303 303 303 302 304 304 307 308 309 308 307 306 309 307 310 309 309 307 307 307 308 310 313 317 317 316 317 319 320 318 318 318 322 319 319 320 319 319 317 317 321
304 304 303 303 303 303 303 303 304 303 308 303 309 308 308 307 308 309 307 310 312 309 308 308 308 308 311 314 318 317 319 319 318 316 317 318 319 319 318 320 320 319 318 316 320
303 303 304 303 302 302 303 304 304 307 308 306 306 306 305 311 310 311 308 308 312 309 308 308 310 309 311 313 317 318 316 315 316 316 320 318 320 321 319 321 320 320 320 322 321
302 302 303 303 302 303 303 302 307 308 305 306 307 306 306 308 309 309 312 308 311 315 313 311 310 310 310 313 314 315 313 314 315 317 321 318 319 320 319 318 319 319 319 321 321
301 301 302 302 303 303 304 304 306 304 304 306 306 305 306 307 307 307 311 313 308 311 313 314 313 311 312 311 314 315 314 314 317 319 322 319 322 321 319 320 319 319 319 321 321
301 301 302 303 303 303 304 303 302 307 306 306 306 305 305 306 305 307 307 314 313 312 311 314 314 312 312 313 314 314 315 313 316 319 320 320 320 320 319 322 323 322 323 322 321
302 301 301 303 304 304 305 305 303 305 304 304 307 307 307 305 305 307 308 312 313 311 311 312 313 313 313 312 313 313 313 315 314 320 322 321 322 322 323 323 326 326 323 322 321
300 298 301 304 305 305 306 306 305 304 304 304 307 307 306 305 305 305 308 309 310 310 311 312 312 314 313 313 312 310 313 311 312 315 319 321 322 318 320 321 324 324 322 322 322
297 295 302 304 302 304 306 306 306 305 305 305 305 305 306 306 309 306 306 307 308 309 308 310 312 313 313 312 313 312 312 312 315 315 315 319 320 318 319 318 322 322 322 321 321
299 298 302 303 303 302 303 304 305 305 305 305 305 306 306 308 308 308 307 311 306 309 309 312 314 314 314 315 312 313 312 311 312 313 316 317 317 320 323 322 320 322 322 322 321
300 299 296 300 299 303 302 303 304 304 304 304 303 304 306 307 308 310 308 307 307 308 311 312 310 315 315 314 313 313 313 313 310 311 317 318 319 323 327 322 323 322 322 322 322
295 297 299 299 298 301 299 302 304 306 306 305 305 306 306 309 309 313 311 309 309 309 311 309 309 313 313 315 316 315 314 313 312 313 315 317 318 318 322 323 323 321 322 323 323
298 300 303 301 301 298 300 303 304 304 304 306 306 307 306 308 308 309 311 312 310 309 312 310 309 310 312 315 317 318 314 314 313 313 313 317 317 316 321 323 324 323 324 324 324
299 301 302 302 299 301 303 302 303 303 304 305 306 305 305 305 307 307 307 309 310 311 310 310 309 308 310 311 316 316 316 314 314 313 314 316 317 319 326 326 324 323 324 325 324

GFSSW_925_thetae_021.txt.gz
Theta_e
308 308 307 306 306 307 308 308 308 309 310 310 311 311 310 307 304 304 306 308 312 310 313 321 321 325 325 326 328 327 333 330 328 328 327 328 330 328 327 330 328 327 329 328 325
308 308 308 308 308 307 306 306 307 309 308 309 311 311 310 308 309 309 307 307 309 309 319 320 321 325 327 328 329 331 333 330 328 327 328 328 328 329 330 330 330 330 329 325 324
307 308 308 308 308 308 308 307 306 306 308 309 308 308 309 308 306 306 313 311 312 307 314 317 319 324 326 328 329 330 332 329 328 328 327 328 329 328 329 330 329 330 330 330 329
306 307 307 307 307 307 308 308 308 308 306 307 307 308 308 308 309 315 312 308 315 316 313 313 320 324 324 326 328 330 329 330 329 328 328 328 328 329 330 330 330 329 329 329 330
305 306 306 306 307 307 307 307 307 307 307 306 307 308 309 311 308 311 317 308 309 319 313 315 320 319 320 323 324 329 328 329 329 329 329 329 330 330 329 328 328 328 330 330 330
304 304 305 305 306 307 307 306 306 306 307 307 307 307 307 308 307 307 308 307 306 311 315 313 318 320 321 321 323 324 326 327 327 328 328 328 327 327 328 329 328 328 328 327 327
304 304 305 305 306 306 306 306 305 304 306 308 307 306 307 306 305 307 308 307 307 306 309 314 313 317 318 321 321 323 325 326 325 326 327 324 323 323 324 325 325 325 326 326 326
304 304 304 305 305 306 306 304 303 305 307 308 308 306 307 305 306 306 307 309 308 308 308 308 312 314 315 316 317 318 318 320 319 320 320 320 322 321 322 323 324 324 325 325 326
304 304 304 305 305 305 304 304 302 306 307 308 307 306 307 305 306 307 309 308 309 309 308 308 311 315 315 317 319 318 320 319 319 319 320 321 322 320 321 321 322 323 324 324 325
304 304 303 304 305 304 304 302 307 306 306 306 306 306 304 306 308 307 309 309 309 309 309 309 312 315 315 316 320 319 318 319 319 318 318 319 320 320 320 321 323 323 324 325 326
304 304 304 304 304 303 303 303 306 307 304 307 306 307 305 306 306 306 308 310 310 308 310 309 311 315 315 315 316 318 320 320 320 318 317 318 319 321 322 322 323 324 325 326 328
304 304 304 304 303 303 302 304 303 303 306 305 305 306 306 306 307 306 306 309 309 308 309 309 311 313 315 314 314 315 318 319 319 317 318 319 320 321 322 322 322 323 325 326 326
303 304 304 304 303 303 302 303 303 304 306 306 306 307 307 307 308 308 308 308 308 309 308 311 313 311 313 315 315 315 316 316 317 318 319 320 321 321 322 322 322 323 325 325 327
303 303 303 303 303 302 303 302 303 304 308 306 308 308 307 307 309 308 307 308 309 309 309 310 312 311 311 313 315 317 316 316 316 317 320 320 324 323 322 321 322 324 325 326 326
302 303 303 303 303 303 303 303 304 304 303 304 310 308 308 308 309 310 308 307 310 310 309 310 310 310 311 312 315 316 316 317 317 318 320 321 323 321 321 322 323 323 326 327 325
303 302 303 303 302 302 302 303 304 308 304 305 307 306 306 308 308 308 309 308 309 312 310 311 310 311 312 312 315 316 318 318 320 320 323 321 321 321 321 322 322 325 326 327 328
302 301 302 303 303 303 303 304 306 305 302 306 307 306 305 307 309 307 309 310 310 313 315 312 311 311 310 312 314 318 320 321 321 321 322 320 321 321 321 321 324 325 327 328 328
301 301 302 302 302 302 303 305 304 301 305 305 305 304 304 306 307 306 310 315 310 312 315 316 315 312 311 312 313 318 320 320 321 322 321 320 321 320 323 322 322 324 325 327 328
301 301 302 303 303 302 305 305 302 304 305 305 305 304 304 306 305 304 308 315 314 309 311 316 316 314 312 313 316 318 320 319 320 322 322 323 323 324 325 325 325 325 326 329 329
300 300 301 303 303 303 307 305 303 304 304 304 304 305 306 305 304 305 307 310 311 311 311 314 316 315 313 312 314 318 319 318 319 319 319 323 326 325 326 326 327 329 329 329 329
299 303 302 303 303 304 308 306 306 305 304 305 305 305 305 305 305 307 306 307 310 310 311 313 316 316 314 314 314 315 319 317 318 319 317 318 320 328 328 328 329 332 330 330 329
299 304 303 303 306 304 305 304 304 305 305 305 305 306 306 305 305 307 307 307 307 310 313 312 318 318 316 315 315 315 317 318 318 320 320 320 323 324 327 326 329 330 329 329 328
301 300 300 304 304 304 303 303 304 305 305 305 305 305 305 307 308 308 309 308 308 308 310 313 318 319 317 316 315 316 315 318 318 319 319 318 321 323 328 327 326 330 329 329 329
302 303 303 303 302 303 303 303 304 304 306 306 306 305 307 307 306 309 309 308 307 308 310 312 314 317 318 317 317 316 315 316 318 317 317 318 317 322 324 327 328 329 330 329 329
300 302 301 303 303 303 302 302 304 304 304 304 307 307 308 309 308 312 310 311 310 310 310 312 314 312 313 313 315 317 315 315 316 317 317 317 318 321 322 327 330 329 329 330 330
302 303 302 303 302 302 302 302 304 304 304 303 306 306 306 307 307 308 310 310 313 311 312 312 314 313 315 314 315 318 317 315 315 316 317 318 321 319 321 327 329 329 329 330 330
299 300 303 302 302 303 303 305 305 305 304 304 305 305 306 307 306 307 307 307 308 311 312 313 314 314 317 314 316 318 318 318 316 316 316 317 319 321 325 328 331 330 330 331 331

GFSSW_925_thetae_024.txt.gz
Theta_e
308 308 308 308 308 308 307 307 307 308 309 309 310 311 311 309 308 313 310 310 312 310 311 326 324 327 326 327 330 330 332 333 332 331 331 331 331 331 331 332 332 331 331 331 330
307 307 307 308 308 308 308 308 308 308 307 308 309 309 308 309 312 313 311 308 307 308 314 322 323 323 329 330 331 334 333 332 331 331 331 331 330 330 331 332 331 332 331 331 330
307 307 306 307 308 307 307 307 307 308 308 307 308 308 308 310 313 312 315 312 312 307 309 315 319 321 323 326 331 333 334 332 332 331 331 331 331 330 331 331 331 331 331 331 331
306 306 306 306 306 307 307 307 307 308 308 308 307 307 307 311 311 318 309 308 314 318 314 314 319 321 324 324 327 331 331 331 332 331 331 331 332 331 331 331 331 331 330 330 330
304 305 306 306 306 306 306 307 307 307 307 307 308 307 309 311 310 312 316 312 312 319 315 317 320 322 326 326 325 328 329 330 330 331 331 331 332 331 331 330 330 329 329 330 330
304 304 305 305 306 306 306 306 306 304 306 307 307 307 309 310 308 309 310 311 311 314 318 317 317 320 326 327 327 326 325 326 327 328 330 330 330 330 329 328 328 329 327 327 327
304 304 305 305 306 306 306 306 304 302 305 308 308 309 309 309 307 308 308 309 311 310 313 317 316 320 323 325 326 326 326 327 327 327 327 328 329 329 328 327 327 327 326 326 327
304 304 305 305 305 306 306 304 302 302 306 308 309 309 310 306 306 307 308 309 309 310 310 311 315 318 322 322 322 324 326 329 328 328 328 328 329 327 326 325 326 325 325 326 326
304 304 304 305 305 305 304 302 302 305 306 309 310 310 308 307 307 307 308 309 310 311 311 310 311 317 317 319 322 324 326 328 327 327 325 325 327 327 326 325 325 325 326 326 327
305 304 304 304 304 304 302 303 306 307 308 309 308 309 308 306 307 310 309 311 311 312 313 311 312 315 317 320 324 324 325 325 327 328 323 324 325 326 326 325 324 326 326 327 327
304 304 304 304 304 304 304 306 308 309 307 308 307 309 307 305 306 307 308 311 312 313 314 313 313 316 317 319 320 322 325 326 326 325 326 325 325 326 326 324 325 326 327 328 327
302 303 304 304 303 302 304 306 306 306 308 306 307 306 305 305 306 307 306 310 313 313 313 315 314 316 317 318 320 320 321 324 324 324 325 325 325 326 326 326 326 327 327 327 328
302 302 302 303 303 305 304 305 305 306 308 306 307 307 307 307 307 307 307 308 311 314 313 315 316 314 315 317 318 320 320 321 321 323 324 324 324 325 325 326 326 326 327 327 326
303 302 303 303 304 305 305 305 305 306 309 306 309 310 310 310 311 310 309 308 310 312 314 314 315 316 315 316 317 320 319 319 320 322 324 323 327 325 326 328 327 327 327 327 326
304 304 303 302 304 305 304 304 305 306 304 305 311 310 309 311 310 312 311 311 308 312 313 314 314 315 316 316 316 318 319 319 320 322 322 322 325 325 326 327 328 327 327 325 329
304 303 302 305 304 304 304 305 306 309 305 305 308 309 308 309 309 310 311 311 311 308 312 314 314 314 316 316 316 317 318 318 320 321 324 323 325 325 327 329 328 326 325 326 332
302 301 303 304 306 304 305 306 309 306 303 305 308 307 307 307 308 311 310 312 313 310 309 314 314 314 314 316 316 317 319 321 324 325 327 326 327 328 327 326 325 325 327 333 333
301 302 304 305 304 304 305 307 306 303 303 304 305 305 305 306 308 307 310 313 315 311 310 312 318 315 314 315 316 316 321 321 325 327 327 326 327 327 324 324 325 323 326 333 333
302 305 305 305 304 304 308 308 306 306 305 305 305 304 304 305 306 306 306 309 313 315 313 314 316 317 315 315 317 318 322 321 323 325 326 327 325 324 324 323 324 327 325 331 334
303 305 306 305 305 305 307 307 306 305 305 306 307 305 304 304 305 306 306 311 310 311 314 316 320 318 315 315 316 319 320 323 323 326 327 325 327 328 327 325 328 329 330 333 335
304 307 306 305 305 307 309 307 306 305 306 306 306 306 306 305 305 305 307 310 309 310 312 315 318 319 317 316 317 318 321 322 322 323 326 326 325 324 326 327 329 330 333 336 335
304 308 304 306 308 306 307 305 305 306 306 306 306 306 307 307 306 306 307 308 308 309 313 315 318 321 319 317 317 319 321 322 323 325 322 323 323 327 328 330 331 334 335 335 334
306 305 303 306 308 307 305 305 304 305 305 307 307 306 307 308 309 308 309 309 308 310 313 315 317 323 321 319 318 319 319 322 322 323 324 322 321 327 329 329 330 334 334 334 334
306 309 306 305 305 305 305 305 305 304 305 305 306 307 309 308 308 309 311 311 309 309 310 314 318 320 322 320 318 318 318 320 322 323 323 322 322 325 328 331 332 334 334 334 334
305 306 304 307 306 305 304 304 305 305 305 305 307 307 307 308 308 312 309 310 311 311 312 316 318 319 319 318 318 320 318 319 321 321 321 321 320 321 327 327 331 333 334 334 334
307 305 303 305 304 304 304 305 306 306 306 305 306 307 307 309 307 309 308 311 310 311 314 315 320 318 318 317 318 320 319 319 319 321 321 319 320 320 321 322 324 331 334 335 334
301 303 303 304 304 304 307 306 306 306 307 305 306 307 308 308 308 309 309 309 309 311 313 315 320 319 318 318 318 321 320 319 319 319 320 320 320 323 323 322 326 333 333 334 335

GFSSW_925_thetae_027.txt.gz
Theta_e
309 309 308 308 307 307 308 308 308 309 309 309 309 309 309 306 305 313 317 315 315 314 312 326 326 327 329 328 326 328 331 333 333 333 332 331 332 332 332 333 333 332 332 332 332
307 308 308 308 308 308 307 308 308 308 309 309 308 304 302 305 311 313 314 313 312 311 313 320 327 325 329 332 330 331 336 334 333 332 332 332 332 332 333 332 332 332 332 331 332
306 307 307 307 308 308 307 307 308 308 309 309 308 307 301 307 314 314 315 314 309 308 311 316 324 327 327 327 331 332 336 335 334 333 333 333 332 332 332 333 332 332 332 332 332
305 306 306 307 307 307 307 307 307 307 308 308 308 308 303 311 314 320 312 310 312 316 313 313 317 324 326 327 327 330 333 334 333 333 333 333 333 333 332 333 332 332 332 332 332
304 304 306 306 306 307 306 307 307 307 307 307 308 308 309 313 313 314 311 314 315 319 322 319 317 321 327 327 327 329 329 330 330 331 332 332 332 333 333 333 332 332 331 331 331
304 305 306 306 306 306 306 306 304 302 303 307 308 307 310 311 311 311 312 312 315 316 322 321 320 322 326 328 328 329 329 330 329 329 330 332 332 331 332 332 332 331 330 330 330
304 305 305 305 306 306 305 304 302 302 302 307 308 309 311 310 308 309 311 311 311 313 316 319 320 322 324 326 327 328 330 330 330 329 329 329 330 330 330 330 331 330 330 329 328
305 304 304 305 306 306 306 304 302 302 302 307 309 309 312 307 306 307 308 309 310 311 314 315 318 321 322 324 326 327 329 331 330 329 329 329 331 330 330 330 331 330 329 328 328
305 305 304 305 305 305 304 302 304 304 305 308 311 310 311 308 309 309 308 309 310 312 312 313 315 318 321 322 325 328 330 330 329 329 329 330 331 330 330 330 331 330 329 328 328
304 304 304 304 304 303 302 303 306 307 309 311 310 311 311 308 307 310 311 311 311 313 314 315 315 316 318 322 327 327 328 328 328 328 329 330 330 329 329 328 328 329 328 328 328
305 304 304 304 303 302 304 307 310 312 311 311 309 310 309 308 307 307 308 310 313 313 315 316 317 315 317 320 323 324 326 327 328 328 328 328 329 329 329 328 328 329 330 329 328
303 303 303 303 301 303 305 308 308 307 309 308 307 308 306 306 307 307 306 309 312 315 314 317 318 317 316 318 320 321 323 326 326 327 328 328 329 329 328 328 328 328 329 329 329
304 304 304 304 301 307 306 307 306 307 309 308 308 308 309 308 308 308 308 308 309 313 315 315 318 317 317 317 319 321 322 324 326 327 327 328 327 326 327 327 327 327 328 328 329
303 303 304 304 305 306 307 306 306 306 310 307 309 309 310 310 311 310 309 308 308 310 313 316 315 317 318 318 318 320 321 323 325 326 327 325 328 327 327 327 327 327 328 329 330
304 304 304 303 306 307 306 305 306 307 309 307 309 311 311 311 311 313 312 311 308 309 310 313 316 316 318 319 318 319 320 322 323 324 325 324 326 325 325 325 326 329 329 330 330
303 302 302 307 307 307 306 306 306 311 309 307 310 310 310 311 311 311 312 313 312 309 309 312 314 317 316 318 319 319 319 320 323 324 326 326 325 326 326 326 329 329 329 330 329
301 302 306 307 308 306 306 307 311 312 305 306 307 307 308 309 308 309 310 313 313 313 311 310 312 315 317 317 319 320 320 321 325 326 328 324 325 326 327 329 329 329 329 327 328
302 305 307 307 306 306 307 310 312 306 306 306 306 306 306 306 307 310 309 308 310 312 320 311 310 313 316 317 319 320 321 322 326 327 325 324 325 328 330 328 327 327 327 333 336
304 307 307 307 306 306 309 312 311 307 306 306 307 308 307 305 305 307 307 307 311 314 322 318 311 311 315 317 317 320 322 321 324 325 325 327 328 329 330 329 327 325 326 336 336
307 307 308 307 307 307 311 309 308 306 306 306 307 309 309 307 308 309 308 312 310 310 312 317 322 312 314 317 318 319 321 322 324 326 328 328 331 330 328 328 326 326 327 333 337
307 309 308 307 307 310 311 307 306 305 306 308 308 308 308 308 307 307 307 310 311 310 310 314 320 322 314 319 318 318 321 321 323 324 326 330 329 329 329 328 328 330 329 334 338
308 309 306 306 311 310 309 306 306 306 305 306 308 309 308 309 310 308 307 310 310 310 312 314 318 323 321 318 318 318 320 322 328 326 325 328 328 327 327 329 331 331 331 337 338
309 308 307 307 311 310 308 306 305 305 305 307 307 308 309 310 312 310 311 311 310 310 315 316 319 319 328 324 319 319 320 322 324 326 327 327 328 328 331 331 331 336 337 338 337
309 312 309 308 307 307 307 308 307 306 306 306 306 307 310 310 309 312 312 311 310 311 311 312 318 319 328 324 319 319 320 322 325 326 327 326 326 327 331 332 335 336 337 337 337
309 311 307 310 309 306 307 307 307 308 308 307 307 307 308 309 309 312 311 312 311 312 312 314 320 316 318 323 323 319 320 321 324 325 327 326 325 328 331 332 334 336 336 336 336
308 307 307 308 307 306 307 309 308 308 309 309 309 308 308 309 310 311 310 311 313 310 315 314 321 318 314 321 323 322 320 321 322 324 324 325 324 325 329 326 330 334 336 336 336
305 304 306 306 308 307 308 307 307 307 308 308 308 310 309 309 310 310 310 310 310 311 312 315 321 320 319 320 321 322 322 321 321 323 323 323 321 323 323 324 325 332 334 336 336

GFSSW_925_thetae_030.txt.gz
Theta_e
307 308 308 308 309 309 309 309 309 309 309 310 310 306 305 302 302 311 315 314 316 315 315 324 331 330 332 335 330 326 326 330 332 332 332 332 332 332 331 332 332 333 333 332 331
307 307 308 308 308 308 308 308 308 309 309 309 308 304 302 302 310 312 311 313 315 314 315 317 326 328 329 330 331 328 329 329 330 331 332 332 332 333 333 333 333 332 332 331 331
306 307 307 308 308 308 307 308 308 308 308 309 309 308 303 305 314 313 315 314 313 314 314 317 319 325 327 326 329 332 331 329 331 333 333 333 334 333 334 333 334 333 333 332 332
306 307 307 307 307 307 307 307 308 308 308 308 308 308 304 310 313 315 312 315 312 312 313 313 315 319 328 329 327 328 331 331 331 332 333 333 333 333 333 334 333 334 333 333 333
304 306 306 306 306 305 304 304 306 306 306 306 308 308 309 309 312 313 313 313 314 313 315 316 315 317 321 327 328 329 328 329 331 332 333 332 332 331 332 332 333 333 333 334 333
305 305 306 306 306 306 305 303 302 302 303 307 307 308 310 309 309 310 313 313 314 316 318 321 320 319 321 323 325 328 328 328 329 329 330 330 331 330 331 332 332 332 333 333 333
305 305 305 305 305 305 305 304 303 302 302 306 308 308 310 309 308 310 310 311 313 314 318 319 323 324 322 322 324 325 328 329 330 329 330 330 331 332 330 330 331 331 331 332 332
304 304 303 303 302 302 301 301 301 301 304 304 309 309 310 307 307 308 308 309 309 311 313 314 317 318 322 323 324 325 326 329 329 330 330 330 333 332 331 330 331 331 332 332 333
305 305 304 303 303 302 301 301 300 302 306 307 311 310 310 309 310 310 309 309 309 309 311 313 314 317 318 322 324 325 328 328 329 329 329 331 332 331 331 331 332 332 332 332 332
305 305 305 303 302 301 301 303 306 307 309 311 312 312 313 312 310 309 311 312 310 310 312 314 315 316 317 319 326 325 326 327 329 329 329 330 331 331 332 331 332 333 332 331 331
305 304 304 303 303 301 304 309 309 311 312 315 314 314 312 310 308 308 308 309 312 314 311 313 315 317 317 318 319 322 326 326 328 328 329 330 330 330 331 331 331 332 332 332 333
303 303 304 302 301 301 305 310 309 308 308 308 308 308 307 307 307 308 308 308 310 313 314 313 317 318 317 317 317 318 322 325 327 326 328 329 330 331 331 331 331 331 332 333 332
303 302 305 303 301 307 309 308 307 307 309 308 308 308 308 308 308 308 308 307 307 309 313 313 315 316 317 317 317 319 320 323 324 324 326 327 329 330 330 330 331 330 330 331 331
302 302 302 301 307 307 308 307 306 306 308 309 308 309 309 309 309 309 309 309 308 307 309 312 315 314 316 318 318 320 319 319 321 323 326 325 329 332 331 331 330 330 330 331 331
302 301 303 303 307 309 307 307 307 307 312 309 312 311 311 312 313 313 312 310 308 308 308 308 311 315 314 317 318 320 318 319 320 322 325 324 328 329 329 329 329 329 329 329 331
302 302 305 308 308 309 307 307 307 312 314 309 310 308 309 310 312 313 313 313 311 309 309 309 310 311 315 315 316 319 319 319 321 323 326 327 327 328 327 330 329 329 329 330 331
302 302 306 307 308 307 307 308 312 313 310 306 306 306 307 307 308 311 311 311 315 317 313 311 309 309 311 314 317 317 323 324 324 324 325 323 325 327 328 328 328 329 331 331 332
302 304 308 309 307 307 307 310 311 311 307 306 306 306 307 308 307 307 309 311 311 311 314 317 319 310 310 312 317 318 322 323 323 324 324 323 326 327 329 328 328 327 328 330 334
304 309 309 308 308 308 311 311 310 309 305 306 306 310 309 310 309 308 307 308 309 311 315 317 317 316 314 312 315 318 319 321 325 323 323 325 326 328 329 328 330 328 329 335 341
305 310 309 309 308 308 312 310 308 306 305 305 306 308 310 309 309 310 311 311 312 311 312 312 313 312 317 312 313 318 318 321 324 326 327 325 328 329 331 331 332 331 330 340 342
308 312 311 307 309 310 313 309 307 306 306 306 307 308 310 310 311 310 309 310 312 311 310 311 313 313 316 318 312 317 319 320 324 323 326 328 327 333 334 332 329 329 330 340 341
310 312 309 308 313 314 312 308 308 308 306 305 307 307 308 311 310 310 310 312 311 311 312 311 315 317 315 317 316 316 318 321 324 326 325 326 328 331 329 330 330 330 331 339 340
312 311 310 308 314 311 309 308 308 307 307 309 307 307 309 310 313 311 313 312 310 311 314 315 318 319 318 317 319 321 319 322 325 329 328 327 328 330 328 328 331 334 333 340 340
312 314 310 309 310 309 309 308 308 309 309 308 308 308 309 311 310 311 312 312 312 313 312 313 315 317 321 320 321 325 323 320 323 327 327 327 327 330 332 332 337 337 340 339 339
310 312 310 311 310 308 308 308 310 309 307 308 309 309 309 310 308 311 311 311 312 312 313 313 316 315 317 315 320 322 327 322 321 326 326 326 329 329 332 337 337 341 340 339 339
311 308 307 308 309 309 309 309 309 309 309 309 310 310 310 310 310 311 311 311 312 312 312 314 319 317 319 316 316 320 321 324 321 322 325 326 328 332 335 336 337 338 338 338 338
306 306 306 308 309 310 311 309 310 309 310 308 309 312 311 310 310 310 310 311 311 311 312 315 319 322 320 316 319 320 322 324 323 324 326 328 331 333 329 329 337 338 338 338 337

GFSSW_925_thetae_033.txt.gz
Theta_e
307 307 307 308 308 308 307 308 308 308 307 304 302 303 303 303 302 307 311 308 313 313 314 325 328 327 328 331 332 332 326 324 325 327 328 329 329 330 331 331 331 332 332 331 332
307 307 307 307 308 308 307 308 308 308 308 307 303 301 301 302 306 311 307 307 309 315 316 316 316 329 331 330 333 336 328 325 324 325 327 329 330 331 332 332 332 332 332 331 331
306 307 307 307 308 307 307 307 307 308 308 308 308 303 301 303 312 311 313 313 311 312 314 316 316 318 327 325 328 330 332 328 326 326 327 329 331 332 332 332 332 332 332 331 330
306 306 307 307 307 307 307 307 307 305 304 304 305 307 306 308 311 313 312 313 314 312 315 314 313 313 314 323 325 326 329 330 328 327 327 329 330 331 331 329 328 329 330 330 330
305 306 306 305 303 303 303 303 304 305 304 304 306 308 307 309 309 305 310 313 313 314 314 313 311 312 313 315 323 326 325 326 328 329 329 329 330 331 331 329 328 328 329 328 328
304 304 304 302 302 301 301 301 301 301 303 307 308 308 309 308 304 306 309 311 314 312 312 313 313 313 313 315 316 322 326 327 326 325 326 327 327 328 328 327 328 327 327 327 327
305 304 303 302 301 301 301 300 300 300 303 307 309 309 308 308 302 304 307 307 308 309 314 316 317 318 316 316 317 318 321 322 323 326 326 326 327 327 327 327 328 327 326 326 326
305 305 304 303 302 302 301 300 300 300 301 305 311 309 308 305 306 307 308 308 308 309 309 311 312 312 315 316 320 321 321 322 321 323 324 326 328 327 327 327 328 328 328 327 326
306 305 305 302 302 302 302 301 304 306 306 305 311 310 309 309 308 308 308 308 308 307 309 310 311 311 313 315 316 319 323 322 323 323 324 326 327 327 327 327 328 328 328 327 327
305 305 302 302 305 301 300 305 308 309 310 310 311 312 310 313 311 310 310 309 310 309 308 308 309 311 311 313 318 320 322 322 323 323 324 325 325 326 326 326 327 327 328 328 328
302 303 303 303 303 300 302 307 307 310 311 309 309 314 314 313 312 309 308 309 310 311 307 308 309 312 312 313 316 318 322 323 323 323 324 324 325 326 326 325 325 325 325 325 326
301 301 301 301 302 304 307 309 307 306 306 307 307 307 307 308 308 308 307 306 307 308 311 311 309 311 313 314 315 316 316 316 319 323 323 324 325 326 326 325 325 325 326 325 327
300 301 301 305 306 309 308 307 307 306 305 306 307 307 307 307 308 307 307 306 306 306 307 311 312 311 313 315 315 315 315 315 316 318 319 320 321 322 322 324 325 325 324 325 326
300 301 302 306 308 308 308 307 307 307 306 309 312 311 310 307 307 308 308 307 307 305 305 306 308 313 312 314 315 316 316 317 317 318 318 320 321 321 321 322 323 324 324 324 322
300 301 303 307 307 309 309 307 307 307 312 309 310 309 308 310 311 312 312 308 308 307 306 305 306 308 311 313 314 315 317 317 317 317 316 318 319 320 322 325 325 324 324 323 323
300 302 303 308 308 307 307 307 308 312 314 311 307 306 306 307 307 309 313 313 312 308 307 307 307 307 307 308 313 314 316 316 316 316 318 318 319 319 319 321 324 324 324 323 322
301 302 304 305 309 307 308 307 311 312 309 306 305 307 308 309 309 309 310 311 315 317 308 308 308 307 308 307 309 310 312 314 318 318 319 318 320 321 320 322 323 323 323 322 323
301 305 307 308 309 308 308 309 310 309 309 305 305 307 307 307 308 309 310 309 312 314 314 315 315 313 314 307 307 308 312 314 319 320 318 318 320 319 320 321 322 323 322 329 330
302 307 310 310 308 308 307 310 306 309 307 307 306 306 307 308 309 311 310 310 311 310 315 315 313 313 312 311 311 308 309 313 314 317 318 318 319 319 319 319 322 323 328 337 339
303 307 311 310 308 309 309 310 309 308 308 308 305 306 308 309 309 312 311 311 312 311 311 311 312 310 310 310 311 316 311 314 314 316 319 321 319 320 321 323 321 325 331 338 338
306 311 311 307 309 310 308 310 308 308 308 307 308 307 307 310 310 309 311 310 311 311 312 312 311 311 310 310 312 315 311 310 313 315 318 322 321 320 321 321 323 326 338 337 336
307 313 308 309 311 311 310 308 308 308 308 310 309 309 308 309 310 310 311 313 312 312 313 311 314 315 313 313 313 313 314 310 313 317 318 320 320 324 326 326 325 333 338 336 335
307 311 310 309 311 310 309 308 307 308 309 310 308 308 309 310 312 313 313 312 310 311 313 312 313 315 315 314 315 315 318 316 314 317 317 319 321 319 322 329 325 335 337 336 336
308 312 309 309 308 308 308 308 309 308 308 308 308 309 310 310 309 311 313 312 311 313 313 312 312 313 316 316 316 319 319 320 322 320 318 321 320 320 327 326 328 336 337 336 336
308 310 308 308 307 307 310 309 310 309 308 308 309 309 310 311 310 310 311 310 310 313 312 314 313 314 313 315 315 317 317 317 319 320 321 320 321 319 327 337 334 336 336 336 336
309 307 307 308 307 308 310 312 312 310 309 309 309 310 310 312 310 311 310 310 310 312 313 313 318 315 317 316 316 316 314 315 317 318 320 320 320 328 332 336 337 336 337 337 336
306 306 307 307 307 308 309 310 311 310 309 308 309 311 312 312 310 309 309 309 309 310 310 313 317 319 319 318 317 317 316 315 316 317 320 322 320 330 333 338 335 335 336 336 336

GFSSW_925_thetae_036.txt.gz
Theta_e
306 306 306 307 307 307 308 307 308 308 305 303 302 302 304 307 301 303 307 305 309 311 311 317 323 320 320 325 329 328 327 323 323 325 326 325 326 328 328 330 330 331 330 331 332
306 307 307 307 307 307 307 307 307 307 306 304 301 300 302 302 305 309 304 305 306 310 313 316 316 326 329 328 330 332 335 331 323 323 323 323 324 325 329 331 331 331 330 330 331
307 307 307 307 307 307 305 303 305 308 308 306 303 302 304 304 309 308 312 312 313 309 312 316 315 315 327 328 328 331 338 334 330 325 324 325 325 326 328 329 330 330 330 329 330
306 306 306 306 306 306 304 302 302 302 303 304 305 308 307 307 299 312 307 307 312 317 316 315 312 313 313 325 327 329 330 332 331 329 327 326 326 326 327 328 328 327 328 329 329
306 306 306 306 304 302 301 301 302 301 301 301 307 308 308 307 308 303 304 302 309 318 314 315 312 311 311 312 314 321 326 326 327 328 328 327 327 328 328 328 328 327 326 326 327
305 305 304 303 303 302 302 302 302 301 302 306 307 308 306 306 301 300 303 306 308 308 315 311 311 310 312 312 313 315 316 321 323 323 323 326 326 326 327 326 326 326 325 325 325
305 302 302 301 301 300 301 301 300 301 307 308 308 308 308 307 303 301 302 303 305 305 307 312 312 312 312 314 313 314 315 317 318 319 324 324 326 326 325 325 325 325 325 324 323
304 304 303 302 303 301 300 300 304 306 308 310 309 309 308 307 306 304 305 306 307 308 308 308 309 312 313 313 315 318 316 317 318 319 320 321 324 326 325 325 325 325 325 326 325
305 303 301 304 306 304 300 304 308 308 308 308 310 309 310 309 309 311 308 306 307 307 307 308 309 309 311 312 314 314 321 321 321 320 321 321 323 323 323 324 324 324 325 325 325
303 300 302 305 304 304 303 308 308 310 309 310 310 312 310 312 312 311 310 308 308 307 307 307 306 308 308 311 317 317 318 320 322 321 321 322 322 322 322 323 323 323 324 324 325
301 300 303 301 305 306 308 308 305 304 306 306 305 310 309 308 308 307 308 307 309 309 306 307 305 307 309 311 312 316 317 320 320 320 321 322 322 322 323 322 322 323 323 324 324
300 300 301 303 306 308 308 307 306 306 305 306 306 306 306 306 306 307 306 306 305 305 307 306 307 307 309 311 312 313 314 315 315 315 319 321 322 322 322 322 322 323 323 322 321
300 300 301 305 307 308 308 307 307 307 305 306 309 309 307 307 307 307 307 306 305 304 304 309 311 310 308 310 312 313 313 314 315 314 315 314 316 316 318 319 319 320 321 321 321
300 300 301 306 307 308 308 307 307 307 304 309 309 309 308 307 307 307 307 307 305 304 304 304 305 307 308 309 310 312 313 314 314 315 315 316 316 316 317 318 318 319 319 318 320
301 300 302 304 307 307 307 307 307 306 311 307 309 308 308 308 309 309 310 311 307 306 304 305 305 305 307 309 311 311 313 315 315 315 314 315 314 316 316 318 319 318 318 320 320
300 300 302 305 306 308 308 308 307 308 309 310 307 306 307 307 308 309 310 311 311 313 308 306 305 305 305 306 306 308 311 313 313 313 315 315 314 316 315 316 317 320 320 319 319
301 301 303 304 306 309 307 305 304 305 308 308 307 306 306 307 308 309 310 310 313 315 313 308 306 306 307 306 306 306 306 310 312 315 317 315 315 316 316 316 316 317 318 319 318
302 304 309 309 309 309 307 304 305 306 309 308 308 307 306 307 308 310 310 310 311 314 315 314 317 310 312 308 306 304 305 309 313 316 316 315 316 316 316 317 317 318 319 319 322
303 306 308 310 308 308 302 305 302 309 309 309 309 306 305 309 309 310 310 311 311 312 314 314 313 311 310 310 309 310 305 305 308 311 314 316 316 317 317 317 317 317 318 329 335
304 306 309 310 308 308 303 308 308 307 307 308 311 308 308 308 309 310 310 310 312 312 311 310 311 310 309 309 308 309 312 309 307 313 314 316 317 318 317 318 317 316 321 335 335
306 307 311 307 308 303 302 307 308 308 308 309 309 309 308 308 309 310 309 311 312 312 311 311 310 310 310 309 308 308 312 310 308 309 314 315 316 316 318 317 318 318 330 336 336
303 308 309 308 305 302 303 308 308 307 308 310 310 308 309 310 310 310 311 311 310 311 312 310 312 314 311 309 309 309 312 311 309 309 313 314 315 316 316 318 318 321 337 336 336
303 304 310 308 310 302 304 308 308 308 308 309 309 308 309 309 310 311 312 311 311 310 313 312 309 311 308 307 314 313 316 318 316 309 310 313 316 315 315 317 322 335 337 336 335
303 306 303 301 302 305 306 309 310 309 309 307 307 308 309 310 308 310 311 310 311 311 312 312 311 310 309 310 313 316 316 316 317 320 313 312 314 316 316 316 323 336 335 336 336
302 302 304 301 304 304 305 309 310 310 309 307 308 308 309 311 310 309 310 310 309 310 312 310 312 312 311 312 312 313 315 315 317 317 320 320 319 318 317 318 324 335 335 336 337
301 303 303 304 304 304 306 309 311 311 309 310 309 309 310 312 312 311 309 309 309 308 311 309 313 314 314 314 314 315 315 316 316 315 316 317 319 318 318 329 331 335 336 337 337
302 304 304 306 303 306 307 308 309 309 309 309 308 308 309 310 310 309 309 309 308 308 310 314 314 315 315 316 318 318 317 316 314 316 317 317 317 319 323 339 337 333 336 336 337

GFSSW_925_thetae_039.txt.gz
Theta_e
307 307 307 307 307 307 307 307 307 308 308 307 305 308 308 308 301 302 305 303 306 309 310 310 324 321 321 322 327 321 323 323 324 323 325 323 323 326 326 328 328 328 329 329 330
307 306 306 307 307 307 307 307 307 306 307 308 308 308 308 305 305 307 302 304 302 303 312 312 313 322 316 319 328 330 328 326 322 322 323 323 323 323 325 327 327 328 329 330 331
307 307 307 307 307 307 307 307 306 305 302 304 306 308 308 305 302 301 313 310 311 312 307 315 313 315 326 328 327 330 335 329 326 324 327 327 325 323 325 326 325 328 328 327 327
307 307 307 307 307 307 307 307 307 307 307 306 305 307 307 305 297 308 310 306 302 305 319 314 314 313 312 325 327 329 330 332 332 332 331 329 328 326 324 325 325 326 326 326 326
306 306 305 305 306 306 305 305 304 307 307 308 308 308 307 305 305 302 301 301 304 308 320 315 312 312 312 312 317 323 326 326 329 330 330 328 329 328 327 326 327 327 326 325 324
304 303 302 304 306 306 304 301 301 302 305 307 308 307 306 307 304 302 301 302 303 305 308 314 311 310 311 311 314 314 316 319 320 320 322 325 326 327 327 327 326 325 324 322 322
304 304 304 305 304 303 300 301 303 304 307 309 309 308 307 307 306 306 306 306 303 303 305 308 312 312 310 312 311 312 313 314 315 315 317 321 322 324 324 324 324 324 323 322 321
304 303 300 302 304 305 303 307 307 308 309 311 310 308 309 308 308 308 308 307 306 305 306 307 308 308 312 312 314 315 313 315 316 316 317 319 324 323 323 325 325 324 323 322 321
304 303 300 304 306 306 307 307 307 308 308 309 309 308 310 309 310 309 308 307 306 306 307 308 307 307 310 312 312 313 319 318 318 317 318 319 323 323 321 322 322 322 322 322 323
303 301 300 302 305 306 308 307 306 310 309 310 310 308 307 307 307 308 307 307 306 306 306 305 304 307 306 310 316 316 317 318 320 319 319 320 321 321 321 321 321 320 321 321 321
302 299 300 301 305 307 308 307 304 303 305 305 306 306 306 306 306 307 306 306 306 308 306 305 304 306 309 310 311 312 314 316 318 318 320 320 320 320 320 320 320 321 321 321 321
300 300 300 303 306 307 308 306 305 305 304 305 304 305 306 307 307 307 306 306 305 304 305 305 306 307 307 309 310 310 311 312 314 315 315 315 318 317 318 320 319 319 320 320 320
300 300 300 305 306 307 307 307 307 306 303 305 306 308 309 306 307 307 306 305 305 304 303 306 306 307 307 308 309 310 311 312 313 314 313 313 314 314 314 315 317 319 319 319 319
300 300 300 305 306 307 306 307 307 306 304 309 307 309 307 306 307 308 307 306 305 304 303 302 303 305 306 307 306 307 310 312 314 313 315 313 315 313 314 314 315 314 316 315 316
301 301 301 302 306 306 308 308 307 304 303 307 308 307 305 305 307 309 309 307 307 307 304 304 304 304 305 306 307 308 308 311 312 312 313 313 313 313 313 313 313 314 315 314 316
301 301 303 304 305 308 308 308 306 302 302 308 307 307 306 306 307 309 309 311 311 311 305 304 304 304 303 305 305 306 307 309 310 311 313 313 314 313 312 314 314 314 314 315 314
302 302 304 304 306 308 307 303 302 304 306 308 308 308 307 306 307 309 309 310 313 313 313 312 307 305 305 304 304 305 304 306 311 312 314 313 313 314 313 314 314 313 313 313 313
304 303 305 309 309 308 306 301 304 304 309 308 309 308 305 307 307 309 310 311 310 312 313 316 314 306 306 305 304 302 303 306 312 315 312 313 315 315 314 314 314 314 313 313 313
306 307 307 309 309 308 300 304 301 307 308 308 309 307 306 307 308 308 308 311 313 313 314 314 313 311 309 310 308 309 304 304 305 307 308 313 313 314 315 315 314 313 313 312 313
306 307 309 310 308 306 301 307 307 307 308 308 310 309 308 307 308 309 309 311 312 312 311 311 312 310 310 308 308 307 309 305 303 309 312 312 313 315 314 314 314 314 313 312 327
305 305 309 307 308 301 301 305 307 308 307 309 309 309 308 309 308 309 309 310 312 311 311 310 309 310 310 308 306 307 310 310 305 307 311 312 313 313 314 314 315 314 314 314 330
301 305 308 307 303 299 301 306 308 308 308 308 309 308 308 309 309 310 310 311 310 311 312 310 310 313 311 308 308 307 310 310 309 311 308 310 311 312 312 311 311 314 317 325 333
301 303 308 306 300 299 302 306 308 309 309 309 308 307 308 309 311 310 311 311 310 310 311 311 309 310 307 308 312 311 311 309 314 313 316 310 310 311 310 312 313 313 331 335 334
303 304 300 298 299 304 304 307 307 308 309 308 308 307 307 310 309 311 310 309 309 310 312 312 309 308 306 308 310 313 313 314 315 317 317 315 313 312 311 316 316 316 333 334 335
299 300 301 300 302 303 303 307 308 309 309 308 308 308 309 310 310 309 309 309 309 309 309 310 311 310 310 310 311 311 311 311 314 316 318 317 318 316 315 316 316 322 327 334 336
299 301 300 302 303 305 304 306 307 308 308 310 309 309 307 309 310 310 310 309 308 307 311 309 312 312 313 312 313 314 313 313 313 314 315 315 316 313 315 317 320 332 334 337 337
300 301 301 301 303 305 305 307 307 307 308 308 309 309 308 308 307 307 307 307 307 308 310 313 313 314 312 310 314 318 316 314 314 314 314 316 314 318 325 322 327 334 334 336 337

GFSSW_925_thetae_042.txt.gz
Theta_e
307 308 308 307 307 307 307 307 307 307 308 308 308 308 308 306 301 302 304 301 302 304 305 308 313 320 323 324 326 318 321 322 323 323 323 322 322 323 323 326 327 327 328 328 328
307 307 307 307 307 307 307 307 307 306 308 308 308 308 308 305 305 305 301 301 305 307 309 310 315 320 317 317 326 326 323 321 320 322 322 322 324 323 324 324 325 327 327 328 329
307 306 306 307 307 307 307 307 307 307 307 308 308 307 307 305 299 296 311 311 305 303 308 311 315 319 319 321 322 329 333 327 323 321 322 325 325 324 324 324 323 325 326 324 326
306 306 306 306 307 307 307 307 307 307 307 307 307 308 307 305 297 306 314 310 301 312 314 316 311 312 312 328 325 328 329 330 330 326 331 327 327 327 325 325 324 323 323 325 324
305 305 305 305 306 306 306 306 306 306 307 308 307 307 305 303 302 302 302 301 303 304 318 317 312 312 311 312 321 329 327 328 330 330 331 331 331 329 328 327 326 325 325 325 324
304 304 304 305 305 306 305 304 305 306 309 308 308 307 306 305 305 306 306 307 307 306 304 315 311 310 311 310 315 314 319 324 323 322 321 323 323 323 325 325 325 325 326 323 322
302 300 299 299 300 304 306 307 307 309 310 310 309 308 306 305 306 308 308 308 307 306 302 305 314 311 309 311 309 311 313 312 313 315 317 321 324 324 323 323 323 323 323 323 321
304 300 299 300 301 305 307 306 306 308 307 308 310 307 306 306 309 309 309 307 307 306 304 303 306 306 308 310 313 313 311 314 315 313 314 319 323 323 322 323 323 323 323 323 323
304 302 300 300 301 305 307 306 306 308 308 309 309 307 307 307 309 307 308 307 307 306 305 306 305 305 309 310 310 312 316 314 315 315 316 317 320 321 322 321 321 320 319 320 319
304 303 300 301 303 306 308 307 305 307 309 310 310 307 305 306 307 307 307 307 306 306 305 304 303 305 305 309 313 313 315 316 317 317 316 317 318 318 318 319 320 320 320 319 319
304 303 300 302 305 307 306 306 303 303 304 304 304 305 305 306 307 307 307 305 305 306 304 304 303 305 308 309 311 311 312 315 316 317 318 317 317 318 317 317 318 318 319 320 320
303 301 301 302 305 306 306 305 305 305 304 304 303 304 305 305 306 306 306 305 304 304 303 304 304 305 307 308 309 309 310 311 312 312 314 313 313 312 313 313 316 318 318 318 317
301 301 300 302 305 306 306 306 307 305 303 304 304 305 306 305 306 306 306 305 305 304 303 303 305 306 306 307 307 309 309 311 312 312 312 313 314 315 314 312 313 313 314 316 317
301 303 301 302 305 306 306 307 308 305 303 305 307 306 305 305 306 306 306 305 304 304 304 302 302 304 304 306 306 306 309 311 312 312 313 312 316 314 314 313 313 312 312 313 313
302 303 301 302 304 306 307 307 307 303 302 305 307 307 306 305 305 307 308 306 307 306 304 305 303 303 304 304 306 306 306 307 310 310 311 312 311 313 311 312 312 312 312 312 311
302 303 302 304 305 307 307 307 305 302 300 307 306 307 307 306 306 306 308 310 311 311 310 307 304 303 303 304 304 306 307 306 308 309 311 310 311 312 310 310 310 311 311 311 311
303 304 302 304 305 307 308 301 301 302 305 308 307 307 307 306 306 307 307 308 311 313 313 311 307 305 304 303 304 304 302 306 308 310 311 310 312 311 310 312 311 312 311 310 310
305 305 305 307 308 308 305 300 304 302 306 307 307 307 307 305 306 307 308 310 311 312 313 315 313 307 305 304 303 302 302 305 311 313 309 310 313 312 311 312 312 311 310 310 309
306 308 308 308 309 307 300 303 301 305 307 308 307 308 306 306 307 306 307 309 311 312 315 315 314 311 308 306 303 304 302 303 304 306 305 309 310 311 311 312 312 312 311 310 310
305 306 308 308 307 305 302 307 305 305 307 307 309 308 308 306 307 308 308 309 311 311 311 312 314 311 310 308 306 305 303 304 301 306 309 309 310 312 312 312 311 312 311 310 311
304 304 307 306 307 301 302 304 306 307 308 309 309 309 307 307 307 308 308 308 311 310 310 311 310 311 310 309 306 307 307 307 303 304 309 311 310 309 311 311 311 310 310 311 319
300 305 307 305 302 295 299 304 306 308 308 309 308 309 308 308 309 309 309 309 310 310 311 310 310 313 311 308 308 306 307 308 310 310 307 307 308 308 309 310 312 313 314 319 329
302 303 306 303 298 297 301 305 306 308 308 309 309 308 307 309 310 310 309 310 308 310 310 311 310 312 309 310 310 309 310 307 309 312 314 311 308 309 309 311 312 313 314 318 333
301 302 299 296 297 302 304 306 306 306 308 308 308 307 308 309 309 311 310 309 308 309 310 310 312 309 308 309 309 309 310 310 312 314 308 310 311 311 312 313 313 313 314 324 333
297 299 301 298 298 301 304 305 307 306 308 307 308 308 309 311 309 308 309 309 308 308 308 309 313 310 310 310 310 310 311 310 311 311 316 313 313 314 313 313 312 313 317 330 334
293 298 298 298 299 302 302 306 306 307 306 307 308 307 307 308 308 310 309 310 311 307 309 309 311 311 311 310 311 312 312 311 311 311 310 311 313 312 313 313 321 319 323 332 336
298 298 299 300 299 300 299 305 305 304 306 307 308 308 308 307 308 307 306 306 307 309 307 308 311 309 311 311 311 312 311 312 312 312 311 312 311 311 312 324 325 324 331 332 336

GFSSW_925_thetae_045.txt.gz
Theta_e
307 307 306 307 307 307 307 307 308 308 308 308 308 308 307 302 300 304 305 302 303 303 302 306 310 318 322 325 327 321 321 321 321 322 320 324 324 325 325 326 327 329 331 330 334
305 306 307 306 307 306 307 307 307 308 308 308 308 308 307 304 306 305 306 307 305 303 310 309 309 318 325 322 328 328 327 323 321 321 323 322 324 326 326 327 327 328 329 327 329
306 306 306 306 306 306 306 306 307 307 308 308 308 308 307 306 303 301 314 311 302 308 310 312 313 318 320 319 326 329 331 326 323 321 322 323 323 324 325 326 327 327 328 327 327
305 306 306 306 306 306 307 307 307 308 308 308 307 307 307 304 302 308 315 307 304 304 313 317 313 312 318 321 321 324 326 328 328 325 325 323 324 325 325 326 326 327 327 327 327
304 305 304 305 304 302 304 306 307 310 310 308 308 307 305 306 305 303 307 307 307 307 307 316 313 311 314 317 322 324 322 324 326 328 329 330 332 331 331 330 330 331 330 329 329
304 304 304 300 300 302 305 306 306 307 310 310 308 307 306 305 304 307 309 308 307 306 306 310 316 311 313 314 317 321 323 323 324 328 329 330 329 330 329 329 329 328 328 327 327
304 304 303 300 300 303 306 306 306 307 307 306 309 308 307 307 305 307 309 309 308 306 307 305 306 314 311 311 313 315 318 318 322 325 327 326 329 329 327 326 326 326 326 327 327
304 304 303 300 302 305 306 307 306 306 307 307 310 308 309 305 306 307 308 308 307 306 306 305 304 307 314 313 313 314 315 318 319 316 320 323 327 327 325 325 325 325 326 326 327
304 304 304 301 303 306 306 306 306 306 308 309 309 308 310 306 307 307 307 308 307 306 305 306 306 307 311 313 313 315 316 318 318 318 318 320 324 323 323 323 326 327 327 326 326
303 304 305 302 304 306 305 305 305 310 310 309 310 308 307 307 306 306 307 307 307 307 307 307 308 308 310 314 316 314 315 316 317 318 318 319 321 321 322 322 324 324 324 324 325
303 303 304 300 303 306 306 306 307 307 306 306 306 306 306 306 306 307 307 307 307 308 309 307 307 308 309 312 313 314 315 316 316 318 319 320 321 321 321 321 321 322 323 324 324
302 302 302 300 304 306 306 307 307 306 308 306 305 305 305 305 307 307 306 307 306 307 307 307 307 307 307 308 311 312 313 314 314 315 317 319 320 319 318 319 320 321 322 323 323
300 304 302 300 305 306 306 306 307 306 307 307 306 306 307 307 307 306 307 306 306 307 307 309 308 306 308 308 310 312 313 314 314 315 315 316 318 319 319 318 319 319 319 320 321
298 304 304 300 305 305 306 306 306 304 308 306 307 307 307 307 307 306 307 307 307 307 306 307 308 305 306 307 309 311 310 312 313 315 318 316 319 318 318 318 318 318 318 319 320
299 304 305 303 304 306 306 306 305 303 305 305 307 307 307 307 307 306 307 307 309 309 308 309 308 308 306 307 307 309 309 310 310 312 313 315 315 316 317 317 317 317 317 318 318
299 304 304 303 304 306 306 306 304 307 305 306 307 307 307 307 307 306 307 308 310 312 311 311 310 309 306 306 307 308 308 310 311 312 313 313 314 316 316 316 316 316 316 316 317
301 304 302 304 306 306 307 304 306 307 306 307 307 307 307 308 307 306 307 309 312 312 311 311 312 310 308 306 306 306 309 310 310 312 313 312 312 314 315 315 315 316 316 317 318
304 307 305 306 307 307 303 304 305 304 307 307 308 308 308 307 307 306 307 308 311 312 314 317 313 313 309 309 306 306 307 309 308 311 311 310 312 313 314 315 316 316 317 318 320
305 308 307 308 308 306 306 309 308 307 307 308 309 308 307 307 307 307 308 309 310 312 312 313 314 310 312 310 307 306 307 308 308 310 310 311 311 312 313 314 314 315 317 320 321
304 306 306 306 306 305 309 309 307 306 308 308 310 308 309 309 308 309 308 309 309 310 311 312 314 312 311 310 307 308 308 307 307 310 310 311 312 313 315 315 316 317 317 318 320
304 310 306 306 305 308 311 308 307 307 308 309 309 309 309 310 308 309 308 307 309 310 310 311 313 311 311 312 309 308 309 308 308 309 310 312 314 315 315 316 317 317 317 318 319
302 310 305 304 310 302 308 305 305 307 308 309 309 310 310 309 309 309 308 308 308 309 310 311 313 313 311 310 310 310 310 310 311 309 309 310 311 313 315 315 316 316 316 318 321
304 305 304 302 309 306 305 305 306 308 307 308 308 309 309 310 311 310 309 308 308 309 310 311 311 310 309 311 311 310 310 310 310 312 314 312 310 312 313 314 314 316 316 317 320
304 308 304 302 301 304 304 305 305 305 307 308 309 308 309 311 308 311 310 308 308 309 310 311 311 310 311 310 310 312 311 310 313 313 311 312 313 313 313 313 314 315 316 316 318
300 303 302 305 302 301 303 304 305 307 307 306 309 309 308 310 308 308 309 308 308 309 310 310 311 311 310 311 311 311 311 310 311 312 313 311 311 311 312 314 315 314 315 315 317
301 303 302 302 301 304 304 305 306 307 305 306 308 307 308 309 308 309 308 309 312 310 310 311 311 311 311 309 310 310 310 309 310 311 312 312 312 311 312 312 313 314 315 316 320
298 297 301 303 302 303 304 304 304 303 305 306 306 307 309 308 307 307 307 308 308 310 310 311 311 311 309 309 311 311 310 311 311 311 311 312 311 311 311 312 313 315 319 321 326

GFSSW_925_thetae_048.txt.gz
Theta_e
307 307 307 308 308 308 308 308 308 308 308 308 307 306 304 305 303 308 308 307 306 303 303 310 309 319 323 328 326 325 326 327 325 323 322 321 323 324 325 329 332 332 334 334 338
306 307 307 307 307 307 307 307 307 307 307 308 308 308 308 308 309 308 309 307 303 305 311 309 311 315 322 324 328 330 329 328 326 324 322 321 323 325 328 328 332 331 332 330 334
306 306 307 307 307 307 307 305 306 307 308 308 308 308 308 308 309 311 314 313 304 306 311 311 311 313 319 325 325 328 331 329 328 326 323 322 323 324 326 328 332 332 332 331 331
306 306 306 306 306 306 305 306 306 306 306 306 307 307 307 308 307 308 311 310 307 308 311 314 314 313 319 322 324 327 328 329 329 328 324 324 323 325 324 325 329 329 329 330 332
305 306 305 306 305 304 305 306 306 307 306 306 307 307 310 309 308 306 308 309 309 309 307 312 316 314 315 318 321 324 325 327 328 328 329 328 327 328 328 327 327 328 330 331 332
305 306 305 304 301 303 305 306 306 306 307 306 306 307 309 310 307 308 309 310 310 310 309 308 313 315 315 315 318 321 323 324 325 326 328 328 330 329 330 330 331 332 332 332 330
305 305 304 303 303 304 306 307 307 306 308 307 307 310 311 309 307 309 310 310 310 310 311 309 308 312 315 315 315 317 319 321 324 326 326 327 329 329 328 329 330 331 331 330 330
304 304 302 301 303 305 306 305 305 306 308 307 308 311 311 308 308 310 310 310 310 310 309 309 309 308 311 315 316 315 317 319 320 322 324 326 331 329 328 329 330 330 330 330 330
303 304 302 300 303 305 305 305 305 307 308 309 312 312 310 308 308 308 309 310 309 310 309 308 308 309 308 313 316 316 317 319 319 320 322 324 328 328 327 328 329 329 329 329 329
302 302 302 300 302 305 306 305 305 311 311 311 311 313 310 309 308 308 309 309 310 310 310 311 310 310 310 310 314 315 317 317 319 320 320 322 323 324 325 325 327 328 328 328 329
298 302 302 300 301 305 307 309 311 311 309 309 309 309 309 308 307 308 308 308 310 310 311 311 311 310 310 310 310 313 316 318 318 318 319 322 322 323 323 324 325 326 327 327 327
299 302 303 301 302 305 307 309 309 308 310 309 308 308 308 308 309 308 307 309 309 310 310 311 311 310 309 309 310 311 314 317 318 318 319 320 321 322 323 323 324 325 326 326 326
300 301 304 303 303 308 308 309 308 308 311 308 308 308 308 308 308 308 308 309 309 309 309 310 310 310 309 309 309 310 311 314 316 317 318 320 322 322 322 323 323 323 324 324 324
302 303 305 303 307 308 309 308 308 308 312 308 308 309 308 308 308 307 308 308 309 308 309 309 309 309 309 310 309 310 310 311 314 317 319 320 322 321 322 322 322 322 323 323 324
300 303 304 303 308 310 309 309 308 308 312 307 308 307 308 308 308 308 307 308 309 309 309 310 309 309 311 310 309 309 309 311 313 316 317 317 319 320 320 321 322 322 322 323 323
301 305 302 305 307 309 309 308 308 313 311 307 308 308 309 308 308 308 308 308 309 311 311 311 311 311 311 311 311 309 310 310 312 314 318 318 319 319 319 320 321 321 321 321 320
302 306 306 306 310 308 308 309 312 312 308 309 308 309 310 309 308 308 308 308 311 312 310 311 311 312 313 312 310 309 310 312 312 314 316 316 317 318 318 318 319 319 319 320 321
302 307 306 309 309 309 309 310 312 308 308 309 310 310 309 308 309 309 309 309 310 312 313 313 312 312 310 314 312 309 309 312 312 312 312 314 316 317 317 317 318 318 320 320 323
305 310 311 309 309 308 312 311 312 309 309 310 310 310 309 309 309 309 309 309 310 311 313 312 312 310 312 313 316 313 310 310 311 313 312 313 315 315 316 317 318 318 318 321 322
306 311 310 307 308 310 311 309 309 308 309 310 311 310 311 310 310 309 309 309 309 309 311 311 314 310 313 312 313 314 311 309 309 313 313 313 315 316 317 316 317 319 320 321 323
308 313 308 306 308 311 313 308 308 308 308 310 310 310 310 310 309 310 309 309 309 309 310 311 313 311 310 313 315 309 309 310 311 310 311 313 314 316 316 318 320 319 320 320 321
308 311 308 306 311 309 308 306 306 309 309 309 310 310 310 310 310 310 309 309 309 310 311 311 313 313 311 310 311 311 313 312 313 313 313 313 317 318 321 320 318 318 319 319 319
308 307 307 306 311 306 306 307 308 309 309 308 309 309 309 311 312 310 310 309 309 310 312 313 313 314 311 312 311 312 312 313 314 315 318 314 314 317 316 316 316 317 318 318 318
306 310 309 306 306 304 305 308 308 307 307 308 308 308 310 311 310 310 310 309 309 309 310 311 313 313 315 312 312 312 312 311 313 317 313 314 315 315 316 316 316 316 318 317 317
305 308 307 311 310 307 306 306 307 308 308 308 308 309 309 310 310 311 309 309 309 310 311 311 314 312 311 311 311 311 311 312 312 312 313 313 313 314 314 315 315 316 315 315 318
307 307 306 307 307 308 306 307 307 307 306 307 308 307 307 309 308 310 310 311 312 311 311 311 314 312 312 311 311 311 310 310 311 311 311 312 313 313 313 313 313 314 315 315 318
302 299 302 305 307 307 308 306 306 306 307 307 308 308 309 309 310 310 310 310 310 312 311 313 312 313 313 309 310 312 311 311 311 310 310 311 312 312 313 313 314 314 314 317 319

GFSSW_925_thetae_051.txt.gz
Theta_e
307 308 308 308 308 308 308 308 307 304 303 304 305 306 306 306 305 312 313 308 308 304 303 309 312 314 321 324 326 328 331 331 329 327 326 324 324 324 326 327 329 335 338 338 339
307 307 308 308 308 308 307 306 307 307 307 308 307 306 306 307 312 312 310 307 307 306 312 311 313 315 321 325 328 329 332 331 329 328 327 325 325 325 326 328 330 335 334 334 338
307 307 307 307 307 306 305 306 306 306 309 310 308 306 306 309 316 315 308 310 309 307 310 313 313 315 317 322 325 330 333 330 330 329 328 326 325 325 325 328 330 333 335 334 335
306 306 307 307 307 303 304 306 306 305 307 306 306 306 306 313 313 312 308 308 308 310 310 313 315 315 316 318 323 327 328 330 330 330 330 329 326 325 326 326 329 332 335 335 334
306 306 306 306 306 303 304 306 306 306 306 307 305 305 313 315 312 310 309 311 312 311 311 311 316 317 317 317 319 323 325 327 327 328 329 330 329 328 328 327 327 328 332 333 333
305 305 305 305 304 303 305 306 307 307 306 307 306 309 316 314 309 310 311 311 312 312 312 311 311 314 317 318 318 320 322 323 325 327 328 330 330 330 331 329 329 327 328 330 332
305 305 304 301 302 304 305 305 305 305 306 307 307 313 316 311 310 311 312 311 312 312 313 312 312 311 315 318 318 319 319 320 321 324 326 328 329 330 330 330 331 331 331 332 333
304 304 304 301 301 304 305 305 305 305 305 307 307 315 315 309 309 310 310 311 311 311 312 312 311 312 312 312 314 317 319 319 320 321 323 325 329 328 328 329 330 330 331 331 333
302 301 302 302 300 303 305 306 306 305 307 308 315 314 314 309 310 308 309 310 310 311 311 311 312 312 312 311 311 313 318 320 319 320 321 322 327 327 328 329 331 331 331 330 331
304 303 301 302 300 304 305 309 310 312 314 314 312 315 313 310 309 308 310 309 310 311 312 313 314 314 313 312 311 312 314 316 319 320 320 321 323 324 325 327 329 330 331 331 332
303 304 302 302 300 304 308 312 315 317 312 311 311 310 310 309 309 309 309 309 311 312 312 313 314 315 314 313 314 313 312 313 316 318 319 320 322 322 324 325 327 328 330 331 332
303 304 304 304 301 305 309 312 311 311 312 311 310 310 309 309 310 310 309 309 311 311 311 311 312 313 313 313 312 312 313 313 314 315 319 321 321 322 323 324 325 326 328 329 329
303 305 303 305 301 308 310 311 310 310 313 312 310 310 310 309 310 310 310 310 310 310 310 310 311 311 311 311 312 312 312 313 314 315 317 320 321 322 322 323 324 325 326 327 328
303 302 303 302 308 310 312 310 310 310 315 312 311 311 309 310 311 309 309 310 309 310 310 310 310 310 310 310 311 312 311 311 312 313 316 319 322 322 322 323 323 324 325 325 326
304 303 303 302 311 312 311 311 310 311 321 310 310 309 310 310 310 310 309 309 310 309 310 310 310 310 311 311 311 312 312 312 312 313 313 315 320 320 322 323 323 324 324 325 325
304 304 304 306 311 311 311 311 311 319 317 310 310 310 311 312 311 310 310 310 310 309 311 311 313 312 311 312 311 313 313 313 312 312 315 315 317 320 321 323 323 323 323 324 325
304 306 308 310 313 310 311 312 318 317 311 311 310 311 311 312 310 310 311 310 310 310 312 311 311 312 312 312 313 314 315 314 312 313 314 314 318 318 320 321 321 321 323 324 323
305 307 310 312 311 311 312 316 317 313 312 312 311 311 312 311 311 311 311 311 310 311 311 312 313 313 311 311 313 314 314 313 313 314 314 313 315 318 319 320 320 321 321 321 322
307 312 313 313 311 310 314 316 315 312 310 312 312 312 312 311 311 311 311 310 310 310 311 312 312 311 311 313 313 315 316 314 311 312 315 316 316 316 319 319 320 320 320 322 323
308 312 314 311 312 311 316 314 311 310 311 311 313 311 312 311 311 311 311 310 310 310 311 312 316 311 311 314 314 316 315 317 314 315 315 315 316 317 317 319 319 320 321 323 324
310 313 311 309 309 314 316 311 310 309 310 312 312 312 312 312 312 311 311 310 311 311 311 312 314 313 311 313 315 314 315 314 317 315 316 318 317 317 318 318 320 321 322 322 322
310 314 311 306 314 312 312 308 306 310 311 311 311 311 311 311 312 312 311 311 311 311 312 312 315 314 312 311 312 315 316 313 317 313 314 314 315 317 320 320 321 322 321 321 321
311 311 309 308 316 314 310 308 309 311 311 310 310 310 311 311 314 314 312 311 311 311 313 313 314 315 312 314 314 315 316 313 315 317 321 320 318 319 321 322 321 320 319 320 319
310 313 311 310 311 310 312 311 310 309 310 310 310 310 311 312 312 313 312 311 311 311 311 312 314 314 317 313 314 316 315 313 314 317 317 314 315 319 318 319 318 318 318 319 318
311 311 310 311 311 311 312 312 309 310 310 310 311 310 310 311 312 312 312 312 312 312 312 313 317 314 313 312 311 311 311 311 313 313 314 314 314 315 317 318 318 317 317 316 318
309 309 308 308 310 310 310 311 309 309 309 309 311 310 311 310 310 312 312 314 314 314 314 314 317 314 313 312 311 311 311 311 311 312 312 313 313 313 314 315 315 315 316 316 317
304 304 305 307 310 310 311 311 310 310 308 309 309 310 311 311 310 310 312 313 313 315 316 315 316 318 317 314 315 314 312 311 312 312 312 311 312 313 313 314 315 315 316 316 318

GFSSW_925_thetae_054.txt.gz
Theta_e
308 308 308 308 309 309 309 308 307 307 308 308 308 306 306 306 306 312 315 310 308 305 305 308 310 314 316 321 322 324 331 334 331 330 329 327 326 325 326 325 327 329 333 339 340
307 308 308 308 308 308 306 306 306 307 306 308 308 307 306 308 312 315 308 307 307 307 311 312 312 313 316 318 322 324 328 331 330 329 329 328 327 326 325 325 325 328 333 335 338
307 307 308 308 308 306 304 305 306 306 306 306 305 305 305 308 318 315 310 309 308 306 310 312 314 314 314 317 320 324 328 328 329 329 329 329 328 327 326 326 326 329 331 335 336
307 307 307 307 306 303 302 305 306 306 306 306 307 306 306 313 317 315 309 311 311 312 313 312 313 314 315 316 317 321 324 327 328 329 329 330 330 330 328 326 327 327 331 335 336
306 306 307 307 303 302 303 305 306 306 306 306 306 307 314 320 314 311 311 312 313 315 314 313 312 315 316 316 317 318 319 323 325 326 329 329 330 330 330 328 327 327 328 334 337
305 305 305 306 301 302 304 305 305 305 305 305 306 306 317 320 311 311 312 313 313 313 313 314 313 313 313 315 318 318 318 319 321 323 325 327 328 329 330 330 330 330 329 330 336
304 303 304 303 301 302 303 304 305 305 305 304 306 312 318 315 311 311 312 312 312 313 313 313 313 314 313 313 316 317 318 319 320 320 322 324 326 328 330 330 331 332 331 330 330
306 305 302 301 301 301 303 304 306 305 305 305 307 314 320 310 310 311 310 311 312 311 312 313 313 313 312 313 313 313 316 318 319 319 320 321 324 326 326 329 331 331 331 332 332
305 303 301 299 302 301 304 305 307 307 306 307 314 318 317 311 311 310 310 311 310 310 311 312 312 313 313 313 313 312 312 314 316 319 319 320 321 324 325 327 329 331 331 331 332
305 303 303 300 302 302 305 308 311 309 315 315 315 315 316 312 310 309 310 310 310 312 313 314 314 314 315 314 313 313 313 313 313 314 317 320 321 322 323 324 327 330 332 332 332
305 303 302 302 303 302 306 313 315 318 317 315 312 312 311 311 310 310 311 310 311 312 313 313 312 313 315 316 316 315 314 315 315 315 315 316 320 322 323 324 324 326 330 331 332
304 304 303 303 304 303 306 315 312 312 313 313 312 312 311 310 310 312 310 310 311 311 311 311 312 313 313 314 314 314 314 314 314 314 315 316 316 319 322 323 325 326 327 328 331
304 304 303 303 301 304 313 312 311 312 313 314 312 311 311 311 311 311 311 310 310 310 311 311 311 311 311 311 312 313 313 314 313 313 313 314 316 319 319 323 323 325 327 328 329
302 304 304 302 310 312 314 312 311 312 315 314 311 312 310 311 312 311 310 310 310 310 310 310 310 311 311 311 311 312 312 312 312 312 312 313 316 319 320 322 323 324 325 328 328
301 304 304 302 308 314 311 312 311 313 328 313 311 311 311 311 311 312 311 310 310 310 310 310 311 313 313 311 312 312 312 312 312 314 314 313 313 315 318 321 324 324 325 327 327
301 304 305 311 311 313 311 312 314 321 322 312 311 311 311 312 312 312 311 311 312 311 311 311 312 312 313 313 313 313 312 312 313 314 315 313 314 315 316 318 321 324 325 326 326
302 305 305 310 314 311 311 314 319 321 313 313 312 312 312 312 312 312 311 311 311 311 311 311 310 313 313 314 314 312 316 321 318 317 317 313 314 315 316 317 318 322 325 325 327
303 308 311 310 312 311 311 317 321 317 314 312 312 312 313 313 312 312 312 311 311 311 310 311 311 310 314 313 313 313 312 314 315 316 314 312 315 317 318 317 318 321 324 324 324
306 313 314 315 312 311 313 320 319 313 312 311 312 313 312 312 311 311 312 311 312 312 313 313 312 311 311 311 312 313 313 313 316 316 317 316 312 315 317 317 319 320 322 322 325
308 313 315 312 312 311 315 319 315 312 310 311 313 313 313 312 312 311 311 311 312 312 312 314 314 311 311 311 313 315 315 318 318 318 319 313 312 313 317 318 319 320 322 324 325
310 316 314 311 310 315 321 315 312 310 309 312 313 313 312 312 312 312 312 311 313 313 312 312 314 314 312 312 312 313 315 314 316 320 320 315 312 316 319 322 321 323 322 324 325
312 316 313 309 314 316 315 311 308 310 311 312 312 312 312 312 312 312 312 313 312 312 313 312 314 314 313 313 314 315 313 317 322 319 316 315 318 317 318 320 319 320 322 324 323
314 313 312 311 318 315 313 312 312 311 311 312 312 312 311 312 314 313 314 312 313 313 313 314 313 315 312 312 314 313 314 314 315 319 320 319 316 315 318 318 318 318 322 322 321
314 315 314 312 313 313 314 314 313 311 310 311 311 311 312 312 312 312 313 312 312 312 314 314 314 315 317 314 314 315 316 316 316 319 316 313 314 315 317 317 317 318 319 320 319
312 315 313 314 312 311 312 313 313 312 311 311 311 312 312 312 312 312 312 312 311 314 314 314 317 315 314 313 312 311 313 313 316 315 312 313 313 315 316 317 317 318 319 318 317
311 310 308 310 310 311 313 313 314 312 312 312 311 311 311 311 312 313 312 313 314 314 315 316 318 316 316 314 313 313 313 313 313 311 310 310 312 314 315 316 317 316 317 316 317
305 306 306 308 311 310 312 310 311 311 310 310 310 311 312 311 312 312 312 313 314 315 316 317 316 317 316 314 316 316 315 314 318 315 314 317 316 317 317 316 316 317 317 317 317

GFSSW_925_thetae_057.txt.gz
Theta_e
308 308 308 308 308 308 308 307 307 307 306 306 308 309 308 307 305 309 312 313 310 308 308 308 308 309 313 315 319 321 323 331 332 331 329 326 326 326 324 323 323 324 338 338 339
307 308 308 308 308 308 306 303 305 305 306 305 306 306 306 306 309 313 310 307 307 306 308 310 311 310 311 314 315 320 321 323 327 328 329 327 326 326 325 323 323 323 333 337 339
307 307 307 308 307 303 302 302 304 305 306 306 305 306 307 307 315 313 309 308 310 306 306 310 312 311 312 312 314 318 321 321 323 325 326 328 328 328 328 324 323 323 325 334 336
305 306 305 304 303 301 302 303 304 305 305 305 306 306 307 312 319 314 310 311 312 312 313 313 312 310 312 312 312 314 316 321 321 323 324 326 326 328 328 328 325 325 324 324 328
303 304 301 300 301 300 302 303 304 304 304 304 305 306 310 317 317 311 311 312 312 313 316 314 310 309 311 312 313 313 315 316 318 321 323 324 325 326 327 327 328 327 326 325 326
304 303 302 299 300 300 301 303 303 305 305 305 305 306 315 321 311 312 312 312 313 313 312 312 312 311 311 309 309 311 313 315 316 316 318 321 322 323 325 326 327 328 328 327 327
308 305 303 301 299 301 300 302 303 305 306 305 305 312 315 317 311 311 311 311 311 313 313 312 312 311 310 310 311 311 311 312 315 316 316 317 319 321 322 325 327 328 328 328 327
308 307 305 304 301 300 301 303 304 305 307 305 307 314 318 312 310 311 309 310 311 310 310 311 313 311 311 310 310 310 310 310 314 316 317 316 317 318 320 322 323 328 328 328 328
308 306 306 305 303 301 301 303 305 307 309 308 313 315 319 312 311 310 309 310 310 310 311 311 311 310 311 310 308 309 309 310 311 311 313 315 317 318 318 320 322 323 324 328 328
303 303 305 304 303 303 302 304 312 312 313 315 314 316 314 314 310 310 310 310 310 310 311 312 310 310 309 310 311 310 309 310 310 311 311 310 312 314 317 318 319 322 324 327 328
301 301 304 304 303 303 302 309 312 315 314 319 318 318 312 311 310 310 311 310 310 310 310 310 308 308 309 310 312 313 313 313 313 313 312 311 312 313 314 314 316 319 320 321 327
305 301 304 304 303 301 302 310 310 310 311 312 312 312 312 310 310 311 311 310 309 309 309 308 308 310 310 310 310 310 312 312 313 313 312 311 312 312 312 313 314 315 319 319 322
306 301 304 303 303 302 308 313 311 312 311 313 314 312 311 310 310 311 311 310 309 308 308 308 309 310 310 309 310 309 310 310 311 312 311 311 311 311 312 313 314 315 316 319 320
306 302 304 302 309 311 312 312 312 311 312 315 311 311 310 310 311 311 311 310 309 308 309 308 308 310 311 312 311 312 312 312 311 311 310 312 312 311 311 312 313 314 316 317 318
306 303 305 304 303 310 311 312 313 312 325 313 311 311 310 310 311 312 310 309 309 309 309 309 309 309 311 311 313 313 313 312 312 312 311 311 311 311 311 312 312 312 313 315 317
306 305 305 313 311 314 311 311 313 319 323 311 311 311 311 311 312 312 311 310 310 309 310 309 310 311 312 313 313 313 311 312 312 312 313 311 311 312 312 312 312 312 313 314 317
306 306 306 306 313 312 311 312 317 322 315 313 312 312 311 311 313 312 311 310 310 311 310 310 309 309 314 314 312 310 311 313 315 313 314 312 313 313 312 312 312 313 313 314 314
307 308 308 309 312 312 311 314 322 319 313 312 311 311 312 312 313 312 312 310 312 313 312 312 313 313 313 313 312 312 312 315 315 311 310 313 315 312 313 313 313 314 314 314 313
307 312 314 315 313 311 310 317 321 314 311 310 311 312 312 312 311 311 310 310 312 312 313 314 313 312 312 310 309 310 312 311 314 312 314 313 313 313 313 315 319 318 317 316 316
307 312 315 312 311 311 313 318 317 310 309 309 310 313 313 311 311 311 311 312 314 313 311 314 315 311 310 311 310 312 311 313 314 319 318 316 314 316 319 319 317 316 315 317 316
309 316 313 311 310 312 317 318 314 310 310 311 312 313 312 311 311 311 311 311 313 312 311 311 313 313 311 311 313 314 315 315 317 317 317 317 315 318 319 317 317 315 315 318 319
310 316 312 310 312 316 317 312 312 312 311 311 313 312 312 312 311 311 312 313 313 313 313 313 313 314 313 310 312 312 316 316 319 317 320 320 318 316 315 315 315 315 315 319 319
311 314 312 311 317 313 313 312 312 312 311 311 311 311 311 311 313 312 312 313 312 313 314 313 313 313 312 311 313 313 313 312 314 314 317 318 316 316 315 315 315 315 316 319 320
312 316 314 313 311 311 311 312 313 313 312 311 311 311 312 313 311 313 312 312 311 312 314 315 313 314 314 313 312 314 313 312 313 316 315 315 315 313 316 317 315 316 317 318 319
311 314 309 312 311 310 311 313 314 313 312 311 312 312 310 312 312 310 311 311 312 312 313 315 317 316 315 315 315 314 314 313 312 313 315 316 314 315 315 316 315 317 316 316 315
308 307 306 306 309 310 312 313 311 311 311 311 310 311 310 310 311 312 313 311 312 312 313 314 318 316 317 315 314 315 314 314 314 316 316 318 316 314 315 315 315 316 315 314 314
305 306 306 307 309 308 308 308 309 310 310 310 309 309 309 310 310 310 310 310 310 311 312 314 315 314 315 313 316 315 318 318 318 316 316 320 317 315 317 317 316 315 315 316 324

GFSSW_925_thetae_060.txt.gz
Theta_e
307 308 308 308 308 307 305 302 302 304 305 305 306 306 306 306 305 304 310 308 312 310 307 309 309 308 309 313 318 319 319 329 333 333 330 328 327 327 325 325 323 323 336 337 337
306 307 307 307 308 306 302 302 302 303 305 306 306 306 305 307 309 312 306 311 308 307 306 310 310 310 308 312 313 318 318 321 326 329 328 327 327 327 327 327 327 323 325 334 335
306 306 306 306 304 302 301 302 302 303 304 304 304 304 305 310 312 316 310 308 310 308 306 308 311 311 310 309 311 314 319 320 321 321 322 323 324 325 325 327 327 326 323 324 324
309 307 307 307 304 302 300 301 302 303 304 305 305 304 305 312 317 314 310 309 311 311 313 312 311 310 311 311 311 311 312 316 319 320 320 321 321 323 324 324 325 326 324 323 325
309 309 309 307 305 300 300 300 301 302 303 305 305 304 308 316 317 311 311 311 311 312 314 314 313 308 309 310 310 311 312 312 313 314 318 320 322 323 322 323 323 325 326 326 326
308 309 309 308 306 302 300 300 301 302 303 306 305 306 314 319 312 311 311 312 312 313 313 312 310 310 310 310 309 308 310 310 311 312 313 316 318 319 319 321 322 323 325 325 327
304 303 304 306 305 303 301 301 301 303 304 306 305 311 313 310 312 311 312 311 310 312 312 312 311 311 309 309 309 310 309 309 311 312 313 315 316 317 317 318 320 321 323 325 325
303 301 302 305 306 303 302 301 301 303 306 307 307 313 312 315 311 310 309 309 310 310 311 310 311 310 310 309 309 309 309 309 311 311 313 314 316 317 316 316 317 319 321 322 324
307 305 302 304 305 304 303 301 303 307 310 309 312 313 318 313 311 310 309 309 310 310 310 310 310 309 309 309 307 307 308 309 310 310 310 311 312 313 314 315 316 317 318 321 322
307 306 301 303 304 303 302 304 312 312 314 314 314 314 313 314 310 309 310 310 309 308 309 310 307 308 306 308 311 310 309 309 310 311 311 310 310 311 311 312 311 312 314 317 320
306 306 303 304 303 302 302 311 305 310 314 315 317 317 316 311 310 310 310 310 309 308 308 307 306 306 307 308 310 311 310 310 311 312 311 311 311 311 311 311 310 311 312 313 315
306 306 303 304 303 303 302 309 309 309 309 310 311 312 312 311 309 310 310 309 308 307 307 306 306 308 308 308 309 308 308 307 309 310 310 309 311 311 311 310 310 310 311 312 313
306 306 304 304 303 309 306 311 311 311 308 311 312 312 312 310 310 310 310 309 308 307 307 307 308 309 308 308 311 309 309 312 312 311 310 309 310 309 310 310 310 310 310 311 312
306 306 305 304 308 306 309 311 312 311 311 316 310 310 309 308 309 310 310 309 308 307 307 306 307 308 308 310 311 311 312 312 312 311 310 310 312 310 310 310 310 309 308 308 310
306 306 306 306 308 308 312 311 311 312 316 313 310 310 310 308 310 311 310 308 307 308 308 307 308 307 308 312 312 312 312 311 312 311 311 311 309 310 309 310 310 310 310 310 310
306 307 307 311 309 312 311 311 312 316 317 311 310 310 309 309 310 310 309 309 308 307 307 307 308 310 312 312 313 311 310 309 310 310 312 309 310 310 309 309 310 311 311 311 312
307 308 307 306 310 312 311 310 314 318 315 311 310 310 310 310 311 312 311 309 308 310 309 308 309 312 313 312 310 308 310 309 310 311 313 310 310 309 310 311 311 314 315 314 314
308 312 310 308 312 312 310 311 319 316 311 310 309 310 311 311 310 311 310 308 311 311 311 312 311 311 311 311 310 309 309 311 316 312 311 311 312 311 310 311 316 315 314 314 313
309 313 315 315 313 310 308 314 315 310 309 309 309 312 312 311 310 310 309 312 312 310 311 312 313 311 311 311 309 309 311 309 312 311 313 312 311 310 316 317 316 315 314 313 312
308 311 314 313 311 311 309 316 316 310 309 310 311 313 312 310 310 310 311 312 313 312 309 311 313 311 311 310 310 311 310 312 310 315 316 315 313 313 318 316 316 313 313 312 312
310 310 314 313 310 309 311 316 314 312 311 311 311 312 312 311 310 310 311 311 313 312 310 311 311 312 310 310 311 310 312 313 312 314 313 319 316 314 316 315 315 313 313 312 312
306 311 313 310 307 309 312 311 311 312 311 310 310 311 311 311 310 310 311 311 312 312 313 312 311 313 312 310 310 309 313 313 311 313 317 317 315 312 314 314 313 313 314 314 316
306 308 312 310 309 307 308 310 311 312 312 310 310 310 309 310 311 312 312 311 311 311 312 311 310 314 311 309 310 312 312 312 314 315 317 317 314 312 314 314 312 314 315 315 316
306 310 305 305 305 308 308 310 312 313 312 310 310 310 309 309 310 312 311 311 310 311 315 314 311 313 313 311 309 313 313 313 313 315 314 313 312 313 314 315 314 315 316 316 316
303 307 304 305 306 306 308 309 311 312 309 308 309 310 310 309 309 310 310 311 311 311 312 311 315 314 314 315 315 316 315 315 315 314 315 314 317 315 315 315 313 316 317 317 317
302 303 301 303 304 306 307 308 308 309 308 309 309 309 308 308 308 309 309 310 311 310 310 310 312 315 316 314 314 314 312 316 315 318 317 316 316 313 314 314 315 316 317 317 316
304 304 301 303 304 305 304 306 307 307 307 307 306 306 307 308 308 307 307 308 309 310 309 310 311 312 315 314 314 315 318 317 316 317 317 318 315 312 313 314 313 313 314 318 317

GFSSW_925_thetae_063.txt.gz
Theta_e
307 307 307 308 307 308 308 307 306 306 306 307 306 305 305 305 305 307 307 303 310 312 310 308 308 309 308 311 316 317 320 329 329 328 327 326 327 326 325 325 324 323 324 329 343
308 309 308 309 308 308 307 305 305 305 305 305 304 304 304 307 311 311 311 305 310 310 307 308 308 310 306 310 313 318 319 322 326 328 329 326 324 324 324 324 325 325 325 325 339
308 308 308 310 309 308 308 305 304 304 304 304 304 304 304 311 312 314 311 310 308 309 308 308 310 310 309 309 312 313 318 321 321 321 321 321 322 321 321 322 324 324 325 324 327
309 309 310 309 310 310 307 305 304 302 302 303 305 304 305 312 314 313 310 308 309 310 312 311 310 309 309 310 309 310 312 315 317 318 318 319 319 320 320 321 321 322 322 323 323
306 305 305 305 306 308 308 305 302 301 302 304 304 305 309 316 317 311 311 309 310 312 313 313 312 309 308 308 309 310 311 311 311 311 313 316 318 318 318 318 319 320 321 322 323
309 308 306 307 308 308 306 303 301 300 302 305 305 307 314 314 311 311 311 310 311 315 313 313 310 307 309 309 309 308 309 309 309 310 311 312 313 314 316 317 317 318 319 320 322
308 307 308 308 308 308 307 303 301 301 303 305 306 312 312 305 314 313 311 311 311 312 312 311 310 310 309 309 308 309 308 308 309 310 311 313 313 314 315 316 316 317 317 318 320
307 307 307 309 307 307 303 302 301 301 303 306 309 314 309 313 315 310 309 310 308 309 312 312 309 309 309 308 307 309 307 307 308 310 310 312 314 315 313 313 315 314 315 316 317
307 307 307 308 306 304 302 302 304 309 311 308 312 313 316 315 311 309 308 308 309 309 309 309 310 309 308 307 307 306 308 309 309 309 309 311 310 310 311 311 311 311 312 312 313
306 306 306 305 304 302 302 309 312 313 313 313 313 313 312 314 311 309 309 309 308 308 308 308 304 307 304 306 309 310 309 309 309 310 310 310 310 310 310 310 311 310 310 311 312
306 306 306 305 304 304 306 310 304 306 314 311 316 316 317 313 311 309 309 309 308 306 306 306 305 305 306 306 308 310 309 309 309 309 308 309 309 309 310 309 309 309 309 310 311
306 306 306 305 304 307 307 309 310 309 308 308 309 312 313 313 310 309 310 308 308 307 306 305 306 306 307 307 307 308 307 309 308 311 310 309 310 309 309 309 309 308 309 309 309
305 306 306 304 304 308 307 310 310 309 307 309 310 310 310 310 309 309 309 308 308 307 306 306 307 307 308 307 310 310 311 312 312 311 310 308 309 309 309 309 309 309 308 308 308
304 306 306 305 308 309 309 311 310 309 311 315 310 311 310 308 308 309 309 308 307 306 306 306 306 308 307 308 310 310 311 311 310 310 310 310 310 309 309 309 309 308 307 307 307
305 306 307 307 310 310 311 310 310 311 312 314 309 309 308 307 309 310 309 307 307 307 306 307 308 307 307 311 311 310 311 310 310 310 309 310 309 308 308 308 307 308 308 307 310
306 307 307 311 308 312 311 310 311 312 314 310 309 310 309 308 309 309 308 308 307 307 306 306 307 308 311 311 312 310 309 307 307 308 311 309 309 309 307 308 308 309 310 314 313
308 311 308 306 310 311 311 309 314 313 312 310 309 308 309 310 310 310 309 309 308 310 309 309 308 312 311 310 308 307 307 306 308 309 312 308 310 308 308 309 309 313 314 312 311
309 313 309 308 312 313 309 310 317 314 309 309 308 308 310 309 309 310 309 309 310 309 310 310 310 310 310 310 310 309 306 307 312 312 308 308 311 309 308 314 314 314 313 312 311
311 314 315 315 314 310 307 313 310 308 308 308 308 312 311 310 309 309 309 311 311 310 311 311 312 310 310 310 308 308 309 306 309 309 311 310 309 308 309 315 314 313 313 312 311
311 312 313 312 311 310 308 315 315 313 309 310 311 312 312 311 310 309 309 311 312 311 308 310 312 310 310 309 308 306 307 311 308 314 315 311 311 311 310 310 312 313 312 310 310
311 310 313 311 309 308 310 313 314 311 311 310 310 310 310 310 310 309 309 309 312 311 309 310 309 311 310 309 308 308 309 311 309 308 310 313 313 310 311 312 313 312 312 311 312
305 309 311 310 309 305 310 311 310 310 311 310 309 310 309 310 310 309 309 310 311 311 312 310 309 312 311 309 308 308 309 310 310 309 313 317 314 310 308 311 311 311 311 312 312
306 306 311 309 307 305 305 309 309 311 311 310 309 309 308 309 309 310 311 311 309 310 312 310 309 313 309 307 308 310 312 311 312 312 315 316 313 309 309 310 311 312 312 313 315
304 308 303 302 302 306 307 308 311 310 311 309 309 309 309 309 308 309 312 311 310 310 313 312 309 312 314 310 307 312 312 313 314 317 314 314 313 312 311 313 314 313 312 316 315
300 304 302 302 303 304 305 308 309 308 307 307 308 309 309 308 308 308 308 308 309 310 310 311 312 311 312 312 313 314 315 315 315 315 317 315 314 313 313 312 312 313 315 315 317
302 302 300 301 302 304 305 307 307 308 308 307 307 307 306 306 306 307 307 307 308 309 309 308 311 312 315 314 314 315 313 312 313 316 317 316 316 314 312 310 311 312 313 314 318
303 302 300 301 302 304 302 306 306 306 305 306 305 304 305 306 307 306 305 306 307 309 307 309 309 308 313 311 313 315 313 315 316 316 316 316 314 313 313 312 311 310 310 312 312

GFSSW_925_thetae_066.txt.gz
Theta_e
309 309 309 309 309 309 308 308 308 309 307 304 303 304 304 304 308 310 307 303 310 305 310 308 308 309 307 309 315 317 324 327 325 326 325 325 326 324 323 324 322 324 324 323 342
309 309 309 309 309 310 309 308 307 308 306 304 304 304 305 307 313 310 313 303 309 311 307 306 307 308 305 309 312 318 319 320 324 325 326 325 324 322 322 321 321 323 321 323 337
307 307 307 307 307 308 308 309 307 305 304 302 304 304 305 312 311 310 311 307 308 308 308 307 309 309 308 308 311 313 318 319 321 321 320 320 319 319 320 321 321 319 320 320 322
310 310 310 309 308 309 309 306 306 304 301 302 305 304 307 313 310 312 311 308 309 310 311 310 309 308 308 308 308 311 311 315 316 316 314 316 316 316 316 317 318 318 318 319 320
310 311 310 310 310 309 309 309 304 301 301 303 305 306 311 314 315 314 311 309 309 311 312 312 310 307 308 307 308 309 310 310 310 310 311 311 313 313 314 315 316 316 316 317 317
310 310 310 309 310 309 308 306 303 301 301 303 306 307 312 308 313 312 313 310 310 314 312 312 309 307 308 309 308 308 308 308 308 309 310 311 312 312 314 315 315 316 315 315 316
310 310 309 309 310 309 307 303 302 301 301 303 306 311 311 305 313 313 312 311 311 312 312 312 310 309 307 308 307 308 308 306 307 309 310 310 311 312 313 314 315 314 314 313 313
310 309 309 310 308 308 305 302 302 301 302 304 309 313 308 311 314 311 310 309 309 310 310 311 310 308 309 307 306 307 305 305 306 309 310 311 312 313 310 311 312 312 312 311 311
308 307 307 308 306 305 303 305 309 310 310 308 312 312 314 314 312 310 309 307 308 308 309 309 308 306 306 307 305 305 308 308 308 308 308 310 310 310 310 310 311 311 311 311 310
306 306 306 306 305 304 307 311 312 312 312 313 313 312 312 314 312 310 309 308 307 307 306 306 303 305 303 305 307 308 309 308 308 308 308 308 308 309 309 309 310 310 310 310 311
304 304 306 306 304 306 309 309 304 305 315 308 313 313 313 313 311 309 309 308 307 305 306 304 305 306 307 305 307 308 309 308 307 308 309 309 309 309 308 308 308 308 309 309 310
304 305 306 305 305 308 309 308 309 308 307 307 307 311 312 312 310 309 309 308 307 306 305 304 305 305 306 306 306 307 307 308 309 309 310 308 308 308 308 308 308 308 308 308 309
304 305 306 305 306 308 309 310 309 308 307 308 309 309 309 310 310 309 308 307 307 306 306 305 306 306 307 307 309 308 309 310 311 310 308 308 306 305 308 308 308 308 308 307 308
305 306 306 306 308 309 309 311 310 309 308 312 309 310 310 307 308 309 308 308 306 306 305 305 306 307 307 307 309 310 310 310 309 308 308 308 307 305 306 307 307 307 305 305 305
306 306 307 308 311 309 311 311 310 309 310 312 309 309 307 307 308 309 308 306 306 306 306 307 307 307 307 309 310 308 310 309 309 308 308 308 307 306 306 306 306 306 306 306 309
307 308 306 311 309 310 311 310 311 310 313 310 308 308 308 308 308 308 308 306 306 306 306 305 305 307 309 310 310 308 308 305 305 306 308 306 307 306 305 306 307 307 307 309 312
309 311 307 307 308 310 311 308 312 312 309 309 308 307 308 309 309 309 308 309 307 309 308 308 308 311 309 308 307 306 305 305 306 306 308 307 307 307 307 307 307 309 311 311 310
311 312 309 309 313 312 309 309 316 311 308 308 308 307 310 309 309 309 308 310 309 308 309 309 309 310 310 309 308 308 305 306 310 311 306 307 309 307 306 306 308 312 312 311 310
312 313 314 313 312 309 307 311 310 308 308 308 308 311 310 310 309 308 308 309 310 308 310 310 311 310 309 309 307 307 307 305 307 307 308 308 307 307 308 308 310 311 311 311 308
312 312 312 312 309 309 308 314 313 312 310 308 310 310 311 310 310 309 308 310 311 310 308 309 311 310 310 309 307 306 305 309 306 313 314 310 308 309 308 307 308 310 310 310 308
310 309 311 310 308 307 309 311 314 311 310 309 309 309 309 310 308 308 309 308 310 311 307 308 309 311 310 309 307 308 308 309 307 307 310 311 309 307 309 308 309 309 309 309 308
305 309 311 309 307 302 308 310 310 309 310 309 308 308 309 308 309 308 308 309 310 310 311 309 308 312 311 308 307 306 307 308 305 307 307 308 313 309 307 307 308 309 311 311 310
305 305 310 307 308 306 304 307 308 309 311 310 309 308 308 308 308 308 309 310 308 309 310 310 309 313 311 307 306 309 309 309 308 310 315 314 311 309 308 308 309 311 311 310 314
302 306 302 300 301 305 306 307 309 309 309 307 308 308 308 308 306 308 310 310 308 310 312 312 309 312 313 309 305 309 310 310 312 316 313 313 312 311 311 311 310 311 310 311 313
298 303 300 301 301 303 304 306 309 308 307 306 307 307 307 307 307 307 307 307 307 308 308 310 312 311 311 311 311 311 312 312 313 313 315 314 313 312 312 312 312 310 311 311 311
301 301 299 300 301 303 304 305 306 307 307 307 306 306 305 305 306 307 306 307 306 307 309 308 312 311 312 312 312 314 312 312 313 314 314 313 313 312 312 310 311 310 310 310 310
301 300 301 300 301 303 301 305 306 304 305 305 304 304 304 304 304 303 303 304 305 306 308 308 311 311 312 309 310 312 311 311 311 312 313 315 313 311 312 312 312 309 309 309 310

GFSSW_925_thetae_069.txt.gz
Theta_e
308 307 307 308 308 308 309 308 308 306 304 303 304 305 307 309 308 312 311 304 309 305 310 309 308 309 308 312 318 322 324 324 324 323 324 326 326 326 325 325 324 325 325 323 323
309 310 310 309 309 308 308 306 305 303 302 302 303 305 307 310 313 313 313 303 307 311 307 307 309 308 310 312 316 320 321 321 323 324 323 325 324 324 324 324 324 324 322 322 321
309 309 310 310 310 310 308 309 305 300 301 301 303 305 305 312 314 311 310 308 308 308 307 307 309 311 309 312 314 318 318 320 321 323 323 324 322 321 323 323 323 321 321 320 320
309 309 310 310 310 310 309 309 307 301 300 301 304 304 307 313 312 312 310 308 309 310 311 309 310 311 311 310 311 314 314 317 318 319 319 320 318 317 319 321 318 318 318 320 320
310 310 310 310 309 310 309 309 306 301 300 302 305 304 311 314 315 314 311 309 309 311 312 313 311 310 311 311 310 312 312 312 313 313 313 313 314 316 316 316 315 317 317 318 319
309 310 309 309 310 309 309 309 306 302 300 302 305 306 311 311 312 312 314 311 310 313 313 313 312 311 311 312 312 310 311 311 311 312 312 312 313 314 315 315 315 316 317 317 318
309 309 309 308 309 310 309 308 306 303 301 302 306 310 311 309 312 313 313 312 311 312 312 312 312 310 311 311 310 310 311 311 311 311 312 313 312 313 313 315 315 316 316 315 315
306 306 308 308 309 308 307 305 303 302 301 302 309 313 312 308 313 313 312 310 310 311 312 310 309 310 311 310 310 310 310 310 310 311 311 312 313 313 312 312 314 313 314 314 315
305 306 306 307 307 305 306 309 311 309 307 307 313 313 315 313 313 310 310 308 307 307 309 308 309 310 310 311 312 310 311 311 311 311 312 312 312 311 311 312 313 314 313 313 314
305 305 306 307 305 305 310 312 312 312 311 313 313 314 314 314 314 311 309 307 308 308 309 309 309 311 310 311 311 310 310 310 311 311 312 312 312 311 311 311 312 313 313 313 314
305 306 306 306 305 307 309 309 309 309 314 311 311 313 312 313 311 309 309 308 308 309 309 308 311 311 310 310 310 310 311 311 311 311 312 311 311 311 310 311 311 312 313 313 314
306 306 306 305 305 308 308 311 310 309 312 309 310 311 311 311 312 311 308 310 309 309 308 309 310 309 308 308 308 310 311 311 312 312 311 311 311 311 310 311 311 312 312 313 313
306 307 306 305 307 309 309 309 309 307 311 311 310 311 311 311 311 311 309 309 309 309 308 309 309 308 308 309 310 310 311 312 312 312 311 311 310 309 310 310 311 311 312 311 311
306 307 306 306 309 309 309 310 309 307 313 312 311 311 310 310 310 310 309 310 309 309 307 309 308 308 309 309 310 311 311 312 311 311 311 310 309 309 309 310 310 311 312 312 312
307 308 305 309 310 310 310 310 309 310 314 312 310 308 308 309 309 310 308 309 310 309 309 310 309 309 309 310 311 311 312 311 311 311 311 309 310 309 310 310 310 311 312 312 314
309 309 306 311 309 309 311 309 311 316 315 311 309 309 310 310 310 310 309 309 308 309 308 309 307 308 309 311 311 310 311 310 309 310 310 309 310 310 310 311 312 311 311 312 316
310 308 307 308 310 312 309 311 317 316 310 311 309 309 309 311 311 311 311 310 310 311 311 310 310 312 310 311 310 311 311 311 307 309 307 310 310 310 310 310 311 311 311 313 315
312 311 310 312 313 311 309 315 321 313 309 309 309 309 310 311 311 311 311 312 311 311 311 312 312 312 311 311 311 311 310 308 306 307 307 309 309 309 309 310 310 311 313 314 314
312 313 313 311 310 309 313 318 319 310 309 310 310 311 312 311 310 311 311 312 312 312 313 313 313 311 311 311 311 310 311 310 311 310 311 309 310 311 311 311 312 312 313 314 314
311 311 311 309 308 309 315 316 314 312 311 310 311 311 311 311 311 311 311 310 312 311 311 312 313 311 311 310 309 310 310 312 313 313 313 311 311 310 311 310 312 312 313 314 315
309 315 311 309 309 313 319 314 314 313 310 312 311 311 311 311 311 311 311 310 311 312 311 312 313 311 312 312 311 312 312 312 313 314 313 313 311 311 311 312 312 313 313 314 315
308 314 310 308 314 307 313 310 308 311 310 311 310 310 310 311 311 311 311 310 311 312 313 313 314 314 312 311 310 310 312 313 316 314 316 315 313 312 312 312 313 313 313 313 315
309 311 309 307 316 312 308 308 308 309 311 311 311 310 309 311 312 311 311 310 309 312 313 313 314 314 312 311 310 312 311 311 312 313 314 315 313 312 312 312 313 314 314 315 314
307 310 306 306 304 306 307 306 310 309 309 308 309 309 309 310 310 311 311 310 309 311 312 313 314 315 313 312 310 312 312 312 313 317 315 315 314 313 313 314 314 314 315 314 313
303 306 303 305 305 305 306 307 308 308 308 307 308 308 308 310 309 310 309 309 308 309 310 311 313 313 313 312 312 313 312 312 314 313 315 314 313 313 314 314 314 315 314 313 313
305 304 302 304 304 305 306 307 308 308 307 307 307 307 306 308 308 308 307 308 308 308 311 312 312 312 312 312 313 314 313 313 313 312 313 313 314 313 314 314 314 314 314 314 313
300 300 304 302 303 305 304 305 307 305 303 305 306 305 306 304 305 305 306 306 307 308 308 310 311 313 313 310 311 312 310 311 311 312 313 316 315 314 314 314 313 313 313 313 313

GFSSW_925_thetae_072.txt.gz
Theta_e
310 309 310 310 310 309 309 308 307 304 303 302 303 303 304 305 308 316 317 310 310 305 308 310 311 312 312 316 320 322 326 328 326 327 327 325 326 327 327 328 327 327 327 327 324
309 309 309 309 310 309 310 308 308 306 301 302 302 304 303 304 316 316 314 304 309 311 311 310 311 312 314 316 318 322 324 324 325 325 326 326 325 325 325 326 327 327 327 325 323
309 309 309 309 309 309 310 310 310 307 305 301 303 304 303 310 319 313 309 308 308 312 310 310 311 312 313 315 317 320 323 322 322 323 325 325 325 326 324 325 325 326 324 323 323
309 310 311 310 309 309 310 309 310 307 305 301 303 305 305 317 317 315 309 308 310 313 312 309 311 312 313 314 316 317 319 320 320 321 322 324 323 324 325 324 321 321 322 322 323
308 309 309 309 309 309 309 309 309 306 301 301 303 305 314 318 315 316 311 310 315 313 314 314 312 312 313 313 313 314 316 316 317 318 319 320 321 321 322 321 318 319 320 320 321
306 306 308 309 309 309 309 308 307 305 300 301 303 306 314 314 314 315 317 316 313 313 314 314 314 313 313 313 313 314 314 315 315 316 316 316 317 317 318 317 316 320 319 319 320
307 306 307 308 308 309 310 308 304 302 301 301 304 313 313 311 314 315 317 315 314 314 313 313 313 313 313 313 313 313 314 314 314 314 315 315 315 316 317 316 317 324 319 319 319
306 306 305 305 307 309 308 307 305 302 301 302 306 315 314 308 311 314 314 313 313 314 314 312 312 313 313 313 313 313 313 313 314 313 314 314 316 317 315 316 317 318 322 323 318
306 306 306 307 306 306 308 311 311 307 303 305 316 317 315 314 314 311 312 311 310 311 312 310 312 313 313 314 314 315 313 313 314 314 314 314 314 316 315 315 315 314 317 318 316
306 307 306 307 305 307 311 313 312 314 313 315 316 318 316 315 314 313 311 310 311 311 311 313 313 313 314 314 315 315 314 313 313 314 314 314 315 315 315 314 314 314 315 316 316
306 307 306 307 305 308 312 313 315 316 316 315 314 315 314 314 313 312 310 310 311 312 312 312 313 314 314 313 313 313 313 313 314 313 314 314 315 315 315 315 314 314 313 315 315
305 306 307 305 307 309 311 314 313 312 316 314 313 313 313 313 313 313 311 312 312 313 312 311 312 313 312 311 311 312 313 314 314 313 314 314 314 314 315 315 315 315 315 314 315
305 307 306 305 308 311 313 312 311 311 316 313 313 313 313 313 313 312 312 312 312 312 312 312 312 311 311 311 312 313 313 313 313 314 313 313 314 315 313 313 313 314 315 314 314
306 307 305 307 312 312 313 312 311 310 318 314 314 314 313 313 313 312 312 312 312 312 312 312 311 311 311 312 312 313 313 312 313 313 314 314 314 314 313 313 313 314 314 314 313
308 306 307 310 314 314 312 311 311 313 321 313 313 311 311 312 312 312 311 312 313 313 312 313 312 311 312 312 312 313 313 313 313 314 314 313 313 314 313 313 313 314 313 314 314
310 307 310 311 313 312 311 311 314 321 320 314 312 312 313 313 312 313 312 312 312 313 313 313 313 312 312 312 313 313 313 313 314 314 313 312 312 312 313 313 313 313 312 313 316
310 307 308 310 314 313 312 315 322 322 314 314 313 312 313 313 313 313 314 315 314 314 315 314 313 313 312 313 313 313 314 316 315 314 314 313 312 312 313 311 311 312 312 315 317
311 311 312 312 312 312 314 319 323 318 315 312 312 313 314 314 314 313 314 314 314 314 314 315 315 314 314 313 314 315 315 315 314 312 311 312 312 313 312 312 312 313 315 315 316
311 315 316 313 311 311 316 319 320 316 312 312 314 314 314 313 312 313 313 313 314 314 315 315 315 314 313 313 313 314 315 314 314 312 312 312 312 312 313 312 314 314 315 315 316
313 316 316 311 310 314 316 315 316 314 313 313 315 313 314 313 313 313 313 312 312 313 314 314 316 314 313 313 313 314 313 314 313 314 312 312 313 314 313 313 313 314 314 315 316
314 317 314 310 312 317 321 317 316 314 314 313 314 314 313 313 313 314 313 312 312 312 313 313 314 313 313 313 313 313 313 312 313 314 317 315 314 315 313 314 314 314 315 316 316
313 316 313 311 316 315 316 314 309 312 312 312 312 312 313 313 313 314 314 313 311 312 313 313 315 315 313 313 313 313 313 313 322 316 315 317 316 314 315 314 314 315 315 316 316
310 314 313 311 316 312 311 309 309 309 310 313 313 312 312 313 314 314 313 312 312 312 312 313 315 317 315 314 314 314 313 313 313 315 318 320 316 315 315 315 315 315 315 316 317
309 312 310 311 309 308 308 308 309 311 311 311 311 311 312 313 313 314 313 312 311 311 312 314 316 315 318 314 315 316 314 313 314 320 316 315 315 314 315 315 315 315 316 316 316
306 309 308 310 309 308 309 308 308 308 309 310 309 310 311 311 310 311 311 310 310 310 311 312 315 313 311 311 311 312 313 313 315 315 316 315 314 315 315 315 315 315 316 315 315
307 306 305 306 307 308 307 308 307 307 308 305 307 307 308 310 310 311 309 308 308 308 309 310 313 312 312 311 311 312 312 312 312 312 313 314 315 314 314 315 315 316 315 315 315
301 303 305 306 306 307 308 306 306 306 304 305 306 307 307 308 307 306 306 307 308 309 310 310 313 313 315 312 313 314 312 312 312 312 313 315 314 315 316 316 316 316 316 316 316

GFSSW_925_thetae_075.txt.gz
Theta_e
310 310 310 310 310 310 311 311 309 309 307 302 302 302 304 303 306 317 321 313 311 308 305 309 313 314 316 319 321 323 326 326 327 327 328 328 328 327 327 329 330 328 328 330 328
310 310 310 310 310 310 310 311 311 309 306 304 302 303 304 304 316 320 315 307 305 310 315 313 312 314 317 319 321 323 325 324 324 325 326 326 328 327 328 328 328 328 328 328 326
309 310 310 310 310 310 310 310 310 310 306 303 302 304 304 310 322 317 309 309 309 311 314 312 312 315 316 319 321 322 324 324 324 324 324 325 326 327 327 327 327 327 328 327 325
309 309 309 310 310 309 310 310 309 309 302 300 301 305 304 317 323 317 311 310 311 318 315 311 313 314 315 316 319 320 321 322 323 323 323 323 325 326 327 328 326 325 327 327 326
307 307 307 308 309 309 310 310 310 308 301 300 302 305 314 322 320 314 311 311 318 315 316 317 315 314 315 316 317 318 319 320 320 320 321 322 323 324 325 325 326 324 323 327 327
307 308 308 308 309 308 309 309 308 304 302 300 302 305 319 317 316 317 316 316 315 315 315 316 316 316 316 316 315 317 317 317 318 319 319 320 320 320 321 323 324 323 321 324 327
305 307 308 307 309 308 307 307 304 302 300 300 302 313 316 315 314 315 315 315 314 314 315 315 315 315 316 316 317 316 316 317 317 317 318 318 318 318 319 320 321 321 321 324 327
306 307 308 308 308 306 307 308 309 304 301 301 304 317 319 311 313 313 314 314 313 314 314 314 313 315 315 316 316 316 315 315 316 316 317 317 317 318 319 319 320 319 320 324 325
306 307 306 307 307 306 310 311 311 307 304 303 314 319 320 311 312 314 314 313 313 313 313 312 312 315 315 315 315 316 317 317 317 316 316 316 317 317 318 319 319 319 320 320 325
306 306 307 307 306 309 311 314 312 316 314 314 317 318 318 315 314 313 313 312 313 313 313 313 314 315 316 315 317 317 318 318 316 317 317 316 317 317 318 318 318 318 319 319 323
306 307 307 307 306 309 314 316 320 322 319 321 318 318 317 315 315 314 314 312 313 313 314 315 315 316 316 317 317 316 316 317 316 316 316 316 317 317 318 318 318 318 318 318 320
306 306 307 305 308 309 311 317 315 315 317 317 315 314 315 314 315 314 313 313 314 315 316 315 315 315 315 315 314 314 314 315 316 316 316 316 317 317 317 317 318 318 318 318 318
307 307 305 305 309 312 315 315 314 314 319 316 314 314 314 314 315 315 314 314 315 315 315 316 316 314 314 314 314 314 315 316 316 316 316 316 317 317 317 317 317 317 318 318 318
309 305 305 308 311 315 316 314 314 315 320 318 315 315 314 315 315 314 314 314 315 315 315 315 315 313 313 313 314 315 315 315 315 316 316 317 318 318 318 317 316 316 316 317 318
309 306 307 311 318 317 315 313 313 317 328 317 315 315 315 315 315 315 314 314 315 315 316 315 315 314 314 314 315 315 315 315 316 316 317 316 317 317 317 317 316 316 317 317 317
309 308 311 313 316 314 313 313 317 325 326 317 315 314 314 315 315 315 314 314 314 315 316 316 316 315 315 314 314 314 314 315 315 316 318 318 318 317 316 316 316 316 315 316 316
310 307 309 313 318 314 314 317 325 325 319 317 316 315 315 316 316 316 316 317 317 318 318 317 316 316 315 314 315 315 316 317 318 318 319 317 315 315 315 315 315 316 315 315 316
302 312 314 314 314 314 315 321 326 321 320 317 315 315 315 316 317 316 317 317 316 316 317 317 317 316 316 315 316 316 317 319 320 319 316 315 316 315 315 315 314 314 314 315 317
305 314 316 319 315 314 318 322 323 321 316 315 315 316 317 316 315 315 315 316 316 316 318 319 318 316 316 316 316 316 315 316 318 318 316 316 315 315 315 315 314 315 316 317 317
312 317 318 317 314 316 321 320 319 317 316 315 316 316 316 316 316 316 316 316 314 314 315 316 318 315 316 316 316 315 315 315 321 321 316 314 314 315 316 315 315 316 316 316 317
316 319 318 315 315 319 322 321 318 316 315 316 316 316 316 316 315 315 315 315 315 314 315 315 317 316 315 316 315 315 315 316 315 315 320 318 316 317 317 315 316 316 316 316 317
315 319 316 314 319 320 318 316 310 312 312 313 314 314 314 314 314 315 315 315 315 314 315 314 315 320 316 315 315 316 316 316 324 321 317 317 316 316 317 316 316 316 316 316 317
312 313 316 310 322 318 315 314 312 311 312 312 314 314 314 314 315 315 315 315 314 314 314 315 317 319 318 315 316 318 317 317 316 316 319 321 319 316 318 317 316 316 317 316 317
311 315 315 314 312 313 315 316 314 312 311 311 312 312 312 313 313 314 315 314 314 314 314 313 315 316 318 316 317 319 317 316 317 323 319 316 316 316 318 316 317 316 317 317 317
312 314 312 314 314 313 313 315 314 314 312 312 312 312 312 313 313 313 312 312 312 314 311 313 314 313 313 313 314 315 313 314 316 317 317 317 318 315 316 316 315 316 316 316 316
310 311 310 311 312 312 313 314 314 312 312 313 312 309 309 310 311 311 311 312 312 311 310 311 312 312 312 311 312 311 311 312 313 313 313 314 315 314 315 314 315 316 316 317 316
306 305 307 312 313 313 313 312 311 310 310 308 307 308 308 309 308 308 308 309 309 309 310 311 312 315 317 313 313 318 314 314 314 314 313 313 314 313 314 315 316 318 318 318 317

GFSSW_925_thetae_078.txt.gz
Theta_e
310 311 311 311 311 311 311 311 311 310 306 302 301 301 303 305 305 316 320 317 314 314 307 308 311 316 317 319 320 321 323 325 324 325 326 327 328 329 327 327 329 330 330 330 329
310 310 311 310 311 311 310 311 311 309 306 301 300 301 304 305 315 320 316 312 308 307 313 313 313 314 316 318 319 321 323 322 323 324 325 325 326 327 328 328 328 330 330 329 328
309 309 309 309 310 310 310 311 309 309 306 301 300 301 304 306 322 320 311 311 312 309 315 314 314 315 315 317 319 320 322 322 323 323 324 323 324 325 326 328 328 330 331 330 328
308 308 309 309 310 310 310 309 309 308 304 300 300 302 305 314 327 315 311 311 311 315 320 314 313 313 315 316 318 319 320 321 322 323 323 323 324 324 324 327 328 328 329 329 330
306 308 309 309 309 310 310 308 307 304 301 300 300 303 312 322 323 313 311 310 313 318 319 318 317 315 314 315 316 317 318 319 321 321 321 321 321 322 323 324 326 327 327 328 328
305 307 309 309 310 310 311 308 305 302 301 300 300 304 316 320 319 315 314 315 317 316 317 317 318 317 316 317 317 317 317 318 318 318 319 320 320 320 321 323 324 325 326 326 326
305 306 308 309 310 309 309 307 307 303 301 300 301 310 316 317 315 317 317 316 316 315 316 316 316 316 316 317 317 317 316 316 317 317 317 318 318 319 320 321 321 322 323 326 324
306 306 307 308 308 307 307 310 311 308 301 300 302 314 318 316 314 315 315 316 315 314 315 315 315 315 315 316 316 316 317 317 317 317 317 317 317 318 319 320 320 320 321 322 323
306 306 306 307 308 306 310 311 310 308 305 303 311 317 321 312 312 314 314 316 315 314 314 314 314 314 315 315 316 316 315 316 317 318 318 317 317 318 318 319 321 321 321 321 322
307 307 307 307 306 308 311 313 315 313 309 313 316 321 319 319 313 313 314 314 314 314 314 314 314 315 315 315 315 316 317 318 318 318 318 317 317 317 318 318 320 320 320 320 321
307 307 307 308 306 309 311 317 320 322 321 321 322 320 318 317 316 315 315 315 314 314 314 315 316 317 317 317 317 317 318 318 318 319 317 317 318 317 318 318 319 319 320 321 322
308 308 307 306 308 309 309 320 317 316 317 319 320 317 316 316 316 316 315 315 314 315 316 316 316 316 316 315 316 317 316 316 315 316 316 316 317 317 318 319 319 320 321 321 322
308 307 305 306 309 310 316 316 315 316 318 319 318 315 315 315 316 316 316 315 314 315 317 317 317 317 316 315 316 315 315 315 316 316 317 317 318 318 318 318 319 320 320 321 321
308 307 305 307 310 317 318 316 315 316 319 322 316 315 315 315 315 316 316 315 315 315 316 316 317 316 316 315 315 315 315 316 316 317 317 317 319 319 319 319 319 319 320 320 320
305 307 307 309 313 319 317 314 314 317 331 319 318 316 316 316 317 316 315 315 315 315 316 316 317 316 316 315 315 315 316 316 316 316 317 317 317 318 319 319 320 320 320 319 318
300 308 309 314 314 318 315 315 317 326 329 320 317 316 315 316 316 316 316 315 315 315 315 316 316 316 316 316 316 316 315 315 316 316 318 316 317 318 319 320 319 319 318 318 318
301 304 308 312 317 317 315 317 325 328 322 321 318 317 316 316 316 317 317 317 317 318 318 318 318 317 317 316 316 315 316 317 318 319 320 318 318 320 320 317 317 317 317 317 318
304 303 309 311 314 316 315 320 325 323 323 320 318 317 316 316 316 316 317 318 317 317 318 318 318 317 317 317 318 318 317 319 324 324 322 320 321 319 320 318 316 317 317 316 316
306 313 314 316 319 316 318 322 324 323 321 319 317 316 316 317 317 317 317 316 316 316 317 318 318 317 318 317 318 318 320 318 319 321 324 320 319 318 318 317 316 315 316 316 316
306 317 319 320 317 316 320 322 322 320 318 318 318 317 316 316 317 317 317 317 317 317 316 316 318 316 316 316 317 318 317 320 318 322 323 318 319 319 320 319 317 315 316 317 318
311 322 320 318 316 316 322 323 322 319 316 314 316 317 316 315 315 315 315 315 315 315 317 317 317 316 317 316 316 317 320 320 320 318 321 321 318 317 318 319 318 317 316 317 318
313 321 319 316 317 321 324 320 315 315 315 315 315 315 316 315 316 316 316 316 315 315 316 317 319 320 318 317 315 315 318 319 322 325 323 320 321 316 318 318 319 318 317 317 317
312 315 317 312 317 321 318 317 316 316 315 314 315 315 315 316 317 316 315 315 315 315 316 316 317 319 315 315 315 317 317 317 318 318 322 325 322 316 319 319 318 318 317 317 318
313 315 318 316 316 316 316 316 316 316 316 314 313 314 315 315 315 315 315 315 314 314 317 314 316 316 319 316 314 315 317 316 317 318 318 318 316 317 318 317 319 318 318 317 317
314 315 315 315 314 315 315 315 316 317 316 315 315 315 316 315 313 313 313 313 313 314 315 314 317 316 313 311 312 312 312 313 318 318 320 317 317 316 315 316 319 318 317 316 318
313 311 311 311 313 315 315 316 316 316 314 313 314 312 312 312 311 312 311 311 312 312 313 314 313 311 310 311 313 313 313 313 312 312 312 314 314 313 314 315 316 317 317 316 319
309 308 309 311 313 316 316 314 314 313 312 313 312 312 311 311 309 309 309 309 309 309 310 311 311 314 315 313 313 315 312 314 315 316 315 316 316 315 316 319 319 318 318 319 320

GFSSW_925_thetae_081.txt.gz
Theta_e
310 310 310 311 311 311 311 311 310 310 309 305 301 301 303 303 304 313 317 319 318 316 316 307 307 309 315 314 315 317 318 320 320 322 322 322 322 323 324 326 326 328 328 329 328
309 309 309 309 310 310 310 311 309 309 307 303 301 300 301 304 310 315 313 319 312 308 306 308 308 309 310 314 314 315 316 317 319 320 320 321 321 321 326 326 325 326 329 329 326
307 308 309 309 310 310 310 310 309 308 305 302 300 300 301 305 316 321 320 313 311 309 309 315 317 311 309 310 313 315 316 316 318 319 319 320 321 321 322 324 325 325 327 328 327
307 307 307 308 310 310 310 311 309 309 306 301 300 300 303 311 324 313 312 311 311 313 315 320 315 310 310 310 311 312 315 317 318 319 319 319 320 320 320 320 325 325 326 326 327
306 306 307 308 309 309 310 310 308 307 305 301 299 300 306 318 320 314 311 310 311 314 318 319 316 311 309 310 311 312 313 315 316 316 315 317 319 318 318 319 320 325 326 326 325
306 306 307 306 308 309 308 307 307 305 303 302 300 301 315 315 317 315 311 311 315 318 318 315 314 314 315 313 312 313 313 313 313 313 314 315 315 316 318 318 318 319 324 325 325
306 307 307 307 306 306 307 307 309 308 303 301 300 309 314 313 317 316 315 315 316 316 314 315 315 313 312 312 313 313 313 313 313 313 313 315 315 315 316 317 317 317 321 323 323
308 308 308 307 307 307 307 309 311 310 306 301 301 313 315 312 315 314 317 316 315 315 314 314 314 313 313 311 312 312 311 312 313 315 315 314 314 315 315 316 316 317 317 317 321
307 307 307 308 307 307 309 311 311 309 307 302 307 313 317 316 314 314 315 314 315 315 314 314 313 312 311 311 310 312 311 312 313 314 315 314 314 315 315 315 315 315 315 316 316
305 308 307 308 307 307 310 311 312 313 311 313 313 316 319 320 315 313 313 314 315 314 313 313 311 311 310 309 311 312 313 313 314 315 315 314 314 314 316 316 315 314 315 316 318
303 307 306 307 307 308 309 315 317 318 318 317 318 318 319 317 314 313 314 314 314 313 312 312 311 311 312 313 314 315 315 315 315 315 313 313 313 315 315 316 313 314 315 316 317
299 307 305 305 306 308 308 314 317 315 315 319 320 321 320 318 316 316 315 314 315 312 312 312 312 314 315 315 315 314 313 313 314 314 314 313 314 313 314 315 314 314 314 315 316
300 306 306 305 307 309 310 317 317 315 315 316 317 319 319 315 315 316 315 314 314 312 312 313 315 316 316 315 315 313 313 314 314 314 314 314 314 314 315 315 315 315 315 315 315
303 303 307 307 313 314 317 318 315 316 316 319 319 317 314 314 315 315 315 315 314 313 313 313 314 316 315 315 314 313 313 314 314 315 314 315 315 314 315 315 315 315 315 315 314
306 302 307 308 309 313 316 315 315 317 328 321 317 315 314 314 316 316 315 315 314 313 313 314 314 314 315 315 315 313 314 314 315 313 312 313 313 314 314 316 316 316 315 315 315
307 304 303 310 314 317 317 315 315 324 330 319 316 316 315 315 315 315 315 314 314 314 313 313 314 314 314 315 315 315 314 313 314 312 313 313 314 314 314 314 317 315 316 316 316
308 306 305 305 313 315 316 315 321 328 324 324 318 316 315 316 316 315 315 314 313 314 314 315 316 316 316 315 315 314 314 314 313 313 315 314 315 315 317 318 317 316 315 315 314
308 309 309 304 310 314 316 318 324 323 323 322 320 318 317 315 314 315 315 315 316 316 317 316 316 317 317 316 317 316 315 320 321 318 318 319 320 317 318 318 316 317 315 314 313
308 309 315 313 313 317 317 321 323 323 321 320 318 318 317 316 315 316 316 317 316 315 317 317 317 316 315 315 315 315 316 317 322 323 324 320 317 316 316 316 316 316 316 314 312
306 310 319 318 318 317 319 321 320 320 321 316 315 316 316 316 316 315 314 317 317 315 315 315 318 317 316 315 314 316 316 318 319 325 325 320 318 316 316 318 317 318 315 315 315
308 318 320 319 317 317 318 319 321 321 316 316 315 315 314 314 314 315 315 315 316 315 315 315 315 318 317 316 316 315 314 319 320 318 325 323 316 315 317 316 317 317 317 315 314
306 316 319 317 318 317 321 321 321 317 316 316 315 315 315 316 316 316 316 316 315 315 315 315 317 318 318 316 315 313 318 318 322 322 323 322 319 316 314 314 318 315 316 315 315
307 312 314 316 316 315 317 316 316 316 316 316 316 314 314 315 316 316 315 314 314 314 316 315 315 317 316 313 313 315 315 315 318 319 319 320 316 314 313 316 316 315 315 315 316
308 316 318 316 315 317 315 316 316 315 316 317 316 314 315 316 315 317 315 314 313 312 319 316 315 315 317 315 313 314 312 312 315 317 316 316 314 313 313 316 316 316 315 314 316
309 315 313 315 313 311 313 316 316 317 316 315 314 313 313 313 312 312 312 311 311 313 312 314 315 315 315 315 313 310 310 311 311 315 317 314 314 314 313 314 315 315 315 314 316
311 311 309 310 312 313 314 316 317 314 314 314 313 313 312 312 311 311 309 309 310 309 309 309 313 313 314 312 312 313 313 312 312 312 313 316 315 317 318 317 317 315 316 315 314
306 307 307 310 310 311 314 314 314 312 313 312 312 312 312 311 308 307 306 306 307 308 307 307 309 309 310 311 312 313 312 314 315 316 317 318 318 316 316 317 316 316 315 318 318

GFSSW_925_thetae_084.txt.gz
Theta_e
308 308 309 309 309 309 310 310 311 310 311 310 307 301 300 301 303 308 313 311 317 312 315 315 307 309 309 311 313 315 315 316 318 320 320 320 320 320 321 324 326 329 327 327 324
308 309 308 308 309 309 310 311 311 311 311 311 309 304 300 303 308 313 310 315 318 314 307 307 306 306 306 312 312 313 312 315 316 317 317 318 319 318 323 323 325 325 325 325 325
307 307 308 308 309 309 309 309 311 311 311 310 309 301 300 305 314 320 320 315 317 309 308 314 315 313 306 309 310 312 313 314 315 316 316 317 318 318 322 323 323 324 324 325 323
306 307 308 309 308 309 310 310 309 309 309 309 306 299 303 311 321 314 320 314 310 311 313 318 318 310 309 309 308 310 312 314 315 315 316 317 317 318 318 322 323 323 323 324 322
307 308 308 309 309 308 309 308 308 307 306 305 302 300 309 315 317 316 311 311 311 314 316 318 319 313 308 308 308 309 310 311 313 314 314 316 317 317 317 317 319 321 323 323 323
307 308 308 309 309 309 308 307 308 308 308 304 301 302 314 310 309 319 311 310 310 312 317 316 315 310 312 312 311 311 312 311 311 309 310 313 313 314 315 315 316 316 319 322 322
306 308 308 309 308 308 307 307 309 310 309 302 300 310 313 308 315 317 311 314 315 316 316 313 313 312 311 311 311 311 311 309 311 313 312 313 312 313 313 314 314 314 316 319 321
305 306 308 308 308 307 307 309 310 310 308 302 300 312 312 308 312 311 312 314 316 316 315 314 314 312 311 310 309 311 310 310 310 313 313 313 314 313 312 313 314 314 314 319 321
298 305 306 308 307 307 308 309 311 312 307 303 306 311 314 318 317 315 314 314 315 315 315 314 312 310 310 309 307 309 310 311 311 311 312 312 313 313 313 312 313 313 313 313 316
300 304 305 306 307 307 309 310 312 313 312 313 312 313 314 320 315 313 313 314 313 313 312 312 307 309 306 306 309 310 310 311 312 312 313 312 311 311 312 312 313 311 312 313 313
304 302 306 305 306 307 309 311 314 316 315 314 315 315 317 319 316 312 312 312 313 312 311 310 309 309 309 309 311 311 311 312 313 313 312 311 310 311 311 312 312 311 311 313 314
307 303 306 306 305 307 308 310 316 314 312 316 317 314 316 319 320 314 313 313 313 311 310 310 309 311 311 312 313 313 312 311 311 313 313 311 311 311 312 312 312 311 311 311 314
308 305 304 307 307 310 310 313 317 317 312 314 317 318 318 319 320 315 314 313 312 312 311 310 311 313 313 313 314 313 312 312 312 313 312 313 312 313 313 313 313 312 312 312 311
309 307 305 307 310 312 311 316 315 314 314 317 317 317 317 317 314 314 314 313 312 312 311 310 311 313 313 313 313 311 312 313 313 312 312 313 313 312 312 312 313 312 311 310 311
309 308 307 304 307 310 316 316 315 316 321 323 317 315 312 312 314 315 315 313 313 312 312 312 312 312 313 313 313 313 314 312 313 312 310 312 311 311 312 312 312 312 312 312 311
309 309 307 306 312 315 314 316 315 323 328 322 315 313 311 312 314 314 314 313 313 312 311 311 312 312 312 313 313 314 313 311 310 309 312 310 311 313 312 312 312 314 314 314 312
313 309 309 307 309 312 314 313 319 324 323 323 319 316 314 314 314 314 314 313 312 312 311 312 313 313 314 314 314 313 311 313 315 313 315 311 312 313 312 314 316 315 313 312 311
312 310 313 314 305 308 314 316 322 321 322 320 317 317 317 315 315 314 313 312 311 312 313 315 316 315 315 315 314 316 315 317 323 319 319 318 320 316 315 314 316 315 313 313 313
314 310 315 317 306 309 314 319 320 322 320 320 315 316 315 315 315 314 313 313 314 314 315 315 316 315 316 316 314 314 316 315 318 320 325 321 319 316 315 316 316 315 313 313 312
311 308 314 318 316 316 316 319 318 318 318 316 314 314 314 313 313 313 314 314 315 315 311 313 315 315 315 316 315 315 315 317 318 325 326 322 320 318 315 316 316 317 315 314 312
309 309 318 320 317 314 315 317 318 319 319 316 315 314 314 314 313 314 315 315 316 314 312 312 312 315 316 316 316 314 315 317 315 316 322 319 318 314 315 315 314 314 315 315 314
305 311 312 316 315 314 317 317 317 316 315 316 315 313 313 313 314 314 315 314 314 313 313 312 313 316 317 314 315 314 317 316 315 320 320 320 316 313 313 313 313 315 315 313 313
307 307 312 312 316 313 314 313 315 315 314 316 316 313 312 313 314 315 316 315 313 312 315 313 311 315 314 312 311 314 315 315 315 314 314 317 314 311 312 312 310 313 314 313 313
304 311 312 310 312 311 311 314 315 315 315 314 313 312 312 312 312 314 312 313 311 311 317 312 312 313 316 314 311 314 314 312 313 309 313 315 313 312 312 313 311 313 313 312 310
308 310 309 311 310 311 310 313 316 317 313 312 313 313 312 311 311 312 311 310 310 311 308 310 313 313 313 314 313 313 312 310 309 311 313 313 313 312 315 316 315 314 315 315 314
310 310 307 309 310 311 311 314 315 314 311 313 313 313 312 311 311 311 308 308 308 308 307 305 309 308 309 313 313 311 310 310 310 311 313 316 316 317 316 315 316 316 317 317 316
304 306 307 309 310 311 312 314 314 313 310 311 312 313 312 311 307 306 305 305 306 306 306 305 305 307 308 310 312 312 311 315 316 318 318 320 318 317 317 317 315 314 316 316 316

GFSSW_925_thetae_087.txt.gz
Theta_e
308 308 309 309 309 309 310 309 310 311 311 311 311 308 306 303 302 307 310 308 315 310 312 314 311 307 309 310 311 312 314 316 318 320 321 318 318 319 319 319 321 324 325 324 324
308 308 308 308 309 310 310 310 310 310 310 310 310 308 304 302 307 311 310 311 315 316 312 308 305 305 305 311 311 311 311 314 315 317 316 316 317 317 318 318 318 323 325 323 322
307 308 308 308 309 308 309 310 310 309 309 308 306 302 300 305 313 319 319 310 317 318 307 311 313 314 307 308 311 311 312 312 314 314 314 315 315 316 318 318 319 320 323 323 321
307 308 308 308 309 309 309 309 309 309 309 308 303 299 303 312 319 315 319 316 315 309 308 316 316 309 307 308 307 310 310 311 312 313 314 315 315 316 315 316 317 320 321 322 321
307 308 309 309 309 310 310 309 309 309 309 309 303 300 308 310 312 315 317 310 309 311 315 317 317 313 310 307 309 308 308 309 309 309 311 312 314 315 315 315 316 317 318 319 322
306 307 308 309 309 308 309 308 308 309 310 308 301 303 313 305 307 315 312 310 310 312 315 316 316 311 311 311 310 310 310 309 309 310 308 310 311 311 312 314 315 316 316 315 317
302 304 306 308 309 308 307 307 308 309 310 306 301 310 312 302 312 314 311 310 310 314 315 316 313 312 310 311 309 310 311 309 310 312 312 310 311 311 312 312 313 313 313 313 314
303 301 305 307 308 307 307 308 309 311 309 306 302 312 309 307 313 311 313 311 313 314 314 315 312 311 310 309 308 309 308 309 309 311 311 311 311 312 311 311 311 311 311 313 314
306 301 304 305 307 307 308 308 309 311 309 304 308 310 311 316 317 314 313 313 315 315 315 314 311 309 308 307 306 306 308 310 310 310 311 311 311 312 311 311 310 310 310 312 313
308 304 303 305 305 307 308 309 310 313 313 311 312 312 312 318 317 317 313 313 313 312 311 311 305 308 304 305 309 309 310 310 310 311 311 310 309 309 310 310 310 309 309 309 311
308 306 303 305 306 306 308 310 312 313 315 314 313 312 314 317 316 312 313 313 312 311 310 309 308 308 308 307 309 310 310 310 311 311 311 309 309 309 309 309 309 309 309 309 310
309 308 306 304 306 307 308 309 314 313 314 314 315 313 314 316 319 318 311 311 311 310 310 309 308 309 309 309 309 310 310 311 311 310 309 310 310 309 310 311 311 311 310 309 309
312 312 311 307 306 310 311 312 314 313 314 313 315 316 315 315 317 319 312 311 312 311 310 309 311 311 311 311 312 311 311 311 311 311 311 311 311 312 311 311 311 311 310 310 309
310 312 311 308 308 312 310 316 314 313 312 315 315 317 316 317 315 318 314 312 311 311 310 309 310 311 311 312 311 311 311 311 312 311 311 311 312 310 311 310 311 310 309 309 309
311 312 311 307 306 308 315 315 315 313 321 320 316 316 315 315 314 314 313 312 312 311 310 311 311 311 311 311 311 312 312 312 312 311 310 311 310 311 310 311 310 309 309 308 308
309 312 312 307 307 308 313 315 314 322 324 322 314 314 313 313 313 313 313 312 312 311 310 310 311 310 310 311 312 312 312 310 307 307 310 310 310 311 309 311 310 311 311 312 311
307 311 311 310 307 312 311 313 319 324 319 320 317 315 313 313 312 313 313 312 312 311 310 312 311 311 312 312 312 312 311 313 315 314 316 314 316 310 311 312 311 312 313 312 309
307 312 312 311 311 307 313 316 321 318 321 319 315 315 317 314 314 315 313 312 311 311 311 312 314 314 315 314 313 312 311 314 320 319 318 316 319 316 314 313 313 313 312 311 309
308 311 309 316 307 309 313 318 315 322 319 319 318 314 314 314 313 313 313 313 313 313 314 314 315 314 314 315 314 314 314 313 314 319 315 317 318 315 314 315 314 313 314 312 311
308 307 309 316 309 315 313 313 318 317 317 318 315 314 313 313 313 313 313 314 315 313 310 312 314 313 314 314 314 314 314 316 315 324 324 320 319 317 314 314 313 312 311 312 312
307 306 312 316 316 313 316 316 316 317 315 316 315 314 313 314 313 313 314 314 314 314 311 311 311 313 315 315 315 314 317 317 316 319 324 323 316 313 313 310 309 311 312 311 312
304 311 311 314 315 313 315 316 314 316 315 316 316 314 313 312 313 314 315 314 312 312 313 311 311 314 315 314 312 313 315 315 313 314 320 317 315 310 309 309 310 309 309 310 311
304 304 310 312 316 312 311 312 314 316 316 316 315 313 312 313 313 314 316 313 310 311 315 312 310 313 314 311 310 314 315 314 313 314 314 310 313 309 308 309 309 310 310 310 311
303 308 307 307 307 310 312 313 314 316 316 314 313 313 313 312 312 313 312 312 310 310 314 311 311 312 316 314 311 315 314 312 311 306 312 312 312 310 309 314 314 313 313 313 314
307 311 307 308 311 309 312 312 315 315 314 312 314 314 314 312 312 312 312 311 310 311 308 307 311 312 312 312 313 314 313 312 310 309 310 310 310 311 315 315 314 313 314 315 316
309 310 308 309 309 309 311 313 315 316 313 312 313 313 313 315 314 314 310 308 308 308 305 304 306 308 307 306 308 311 310 309 308 309 309 309 315 317 315 314 313 313 314 315 316
304 305 307 309 310 311 311 313 315 313 313 311 311 312 313 313 311 308 305 305 306 307 306 304 304 305 308 309 311 311 310 311 315 316 317 318 317 313 315 315 313 311 311 313 313

GFSSW_925_thetae_090.txt.gz
Theta_e
308 308 308 309 308 309 309 309 309 310 310 310 309 309 308 303 301 305 308 306 312 307 311 314 310 307 310 310 311 310 312 315 318 319 320 317 317 317 317 317 317 318 322 323 323
308 308 308 308 309 309 308 308 309 310 310 309 309 308 303 304 308 309 309 308 316 311 313 308 305 305 304 310 310 311 310 312 313 316 316 316 316 315 316 316 316 317 322 322 326
308 308 309 308 308 308 309 309 309 310 309 309 309 306 303 310 310 317 317 310 312 317 307 307 313 310 307 308 310 309 311 311 313 314 313 314 314 314 316 316 315 316 319 321 321
308 308 308 308 309 309 309 309 309 309 309 308 307 305 306 312 317 315 317 310 316 314 308 313 314 307 305 307 307 311 310 312 312 312 312 313 314 313 314 315 314 315 317 319 320
309 308 308 309 309 310 309 308 309 309 308 309 305 302 308 306 304 313 315 312 310 310 312 316 315 309 308 306 308 307 308 308 308 307 308 309 310 311 312 312 313 313 314 318 319
309 309 308 308 309 309 308 308 308 309 310 310 302 305 312 301 305 312 316 310 310 312 314 315 314 311 310 310 310 308 309 309 308 309 308 309 310 309 311 313 312 312 313 313 317
308 307 306 308 308 308 308 307 308 309 309 309 303 310 311 300 309 310 313 310 310 311 313 315 314 311 308 311 309 309 310 308 308 310 310 308 310 310 310 310 311 311 311 311 311
307 305 302 304 305 306 307 307 308 310 309 311 305 311 305 306 309 310 312 311 310 310 312 314 313 310 310 308 306 308 306 308 307 309 309 310 310 310 310 310 310 309 309 310 311
308 306 304 303 305 305 306 307 308 309 311 305 308 309 309 314 314 313 313 312 312 313 313 313 310 307 306 306 306 304 306 308 308 308 310 310 310 311 310 309 309 308 308 308 308
310 311 310 307 304 305 306 310 310 313 314 310 312 310 310 315 317 315 314 312 313 312 309 309 304 306 303 305 307 308 309 309 309 310 310 309 308 308 308 309 308 308 308 308 307
310 311 311 308 306 305 307 310 309 310 314 312 312 309 312 315 317 312 313 311 311 311 309 307 307 307 307 306 308 309 309 309 309 310 310 309 309 308 308 307 308 309 309 309 308
309 309 311 310 307 306 308 308 313 313 313 313 314 311 312 313 315 317 313 311 310 309 308 308 308 307 307 308 308 308 309 309 309 309 308 308 308 308 308 308 309 310 309 309 308
308 307 309 312 306 307 310 312 314 312 312 312 313 314 313 313 314 316 309 309 310 309 308 308 310 309 309 310 310 309 310 310 311 311 309 309 310 310 310 309 310 309 308 308 308
308 307 309 312 308 311 309 313 313 312 313 313 314 316 315 314 316 316 312 310 310 310 308 309 309 310 309 310 309 310 309 311 311 311 311 309 314 310 309 309 310 309 307 307 307
306 306 307 311 308 306 312 313 313 313 321 317 315 315 314 316 315 314 313 312 311 310 309 310 311 310 310 310 310 310 311 311 311 310 309 309 308 310 309 309 309 308 308 307 307
305 305 307 310 308 309 308 312 314 321 320 322 314 314 317 315 314 312 312 312 311 310 309 310 309 309 310 310 310 311 311 310 306 306 310 310 309 312 309 309 310 310 310 310 310
305 306 308 309 308 310 310 312 316 324 317 318 316 314 313 314 314 312 312 311 311 311 310 311 311 310 311 311 311 311 310 312 313 313 315 314 315 311 309 310 311 311 312 312 310
305 308 309 309 310 308 310 314 321 316 321 318 317 316 316 314 313 314 313 312 311 309 310 311 313 312 313 311 313 311 310 313 317 317 316 313 316 315 312 312 312 313 311 311 310
306 309 310 313 312 310 311 316 315 321 317 318 318 314 314 314 313 312 313 313 312 311 312 312 314 313 313 314 313 313 312 310 313 315 310 315 314 314 314 314 312 309 309 309 308
305 306 310 307 309 312 308 310 317 316 316 315 317 314 313 313 313 313 313 314 315 312 311 312 313 312 313 313 313 313 312 316 314 321 322 317 318 317 314 313 310 308 308 309 308
306 307 310 313 313 311 316 315 316 316 316 318 318 318 315 314 313 313 314 314 313 313 310 310 311 313 314 314 314 312 315 316 316 321 320 318 315 312 313 310 308 306 308 307 307
304 310 311 312 314 309 313 313 312 315 317 316 317 317 314 313 314 315 315 314 311 312 312 311 311 312 313 312 311 313 313 315 318 316 315 316 316 310 308 307 306 307 308 310 311
303 303 310 310 315 310 310 313 312 315 316 318 317 316 314 312 316 315 316 312 310 311 312 311 309 313 312 312 310 313 315 313 310 309 314 317 314 308 306 307 311 311 311 311 312
303 308 305 303 305 310 312 313 314 313 315 315 315 315 315 316 314 315 313 312 311 310 314 312 310 311 315 314 311 313 313 312 312 312 314 313 312 311 307 312 312 312 311 311 311
304 308 307 307 308 309 310 312 313 314 314 313 314 315 315 317 315 315 314 314 313 310 311 307 310 310 310 311 312 312 313 312 311 312 312 312 308 308 313 314 312 311 310 310 310
306 305 303 306 308 309 310 313 312 312 315 314 313 314 314 315 315 317 315 313 311 308 307 303 306 308 308 308 308 307 307 310 311 310 309 308 308 311 313 312 312 311 309 308 308
304 305 304 306 309 310 311 311 312 312 311 312 312 310 311 313 312 309 307 307 307 306 305 303 304 304 307 307 309 310 308 307 309 311 312 315 313 312 313 312 310 309 308 307 309

GFSSW_925_thetae_093.txt.gz
Theta_e
308 308 308 308 308 308 309 309 309 309 310 309 309 309 308 306 303 305 306 305 311 308 312 313 309 308 311 312 314 314 320 320 320 321 320 320 321 320 319 320 320 320 321 321 323
308 308 308 309 308 308 308 308 308 309 309 309 309 309 308 307 308 308 307 306 313 307 312 310 309 308 311 312 314 317 318 318 318 320 320 319 318 318 318 318 319 319 320 320 326
308 308 308 308 309 308 308 308 309 309 308 308 306 308 308 311 312 318 316 308 315 311 308 307 307 308 311 312 313 314 316 315 316 317 317 317 317 317 318 318 319 319 319 319 320
309 309 308 308 308 308 309 309 309 309 309 308 307 304 306 311 318 314 317 310 315 316 308 314 315 311 311 312 312 314 314 315 315 315 316 315 314 314 316 317 317 317 318 318 319
310 310 309 309 309 309 309 309 309 309 309 309 308 305 308 308 307 313 314 312 316 309 312 317 314 310 311 310 309 311 311 311 312 311 312 312 313 314 314 316 316 316 316 317 319
311 310 309 306 308 309 309 309 308 308 310 310 307 308 312 303 303 311 312 313 309 311 315 317 316 314 313 312 313 312 311 313 312 313 312 313 314 313 314 315 316 316 317 317 319
309 308 307 304 304 306 308 307 308 309 311 311 307 311 311 303 308 314 314 309 311 313 316 316 315 313 313 313 311 311 313 313 313 315 314 312 314 314 315 314 315 316 316 315 316
309 309 309 306 304 304 306 307 307 308 311 312 309 312 307 305 307 310 314 310 310 310 313 313 312 312 312 310 310 312 311 314 313 312 313 313 315 315 314 314 314 314 315 315 316
308 307 309 308 305 304 305 307 308 308 312 310 310 310 311 312 313 310 311 313 311 311 312 313 311 311 311 312 312 311 311 311 314 313 312 313 314 315 316 315 315 316 316 315 316
308 307 307 309 308 305 306 311 310 313 314 311 312 313 312 315 316 314 312 312 314 314 312 312 311 313 311 312 311 312 313 313 314 314 314 314 315 315 316 315 315 315 316 317 317
308 307 307 308 310 306 306 311 313 314 316 318 316 310 313 314 316 314 312 312 313 314 314 311 314 314 313 313 312 312 312 313 314 314 313 316 315 315 316 315 315 316 317 318 318
306 306 306 307 310 306 307 311 314 314 316 314 315 313 313 313 315 315 312 314 314 314 311 312 314 314 312 311 311 312 313 314 314 314 314 315 315 315 315 315 316 316 317 318 318
304 305 305 306 309 308 309 311 313 312 316 314 314 315 315 314 315 316 314 313 313 313 312 314 313 311 311 312 312 313 314 315 315 314 314 314 316 316 316 314 315 316 316 317 317
304 305 305 305 309 307 310 312 312 312 317 316 315 316 315 315 315 315 311 313 312 313 312 313 313 312 313 313 313 314 314 314 314 315 316 314 317 317 317 316 315 316 317 316 315
302 303 304 306 309 308 310 311 312 312 320 317 316 315 316 316 315 317 313 313 313 313 313 314 313 313 314 314 313 314 313 314 314 315 315 316 316 317 315 316 317 317 316 316 317
301 305 305 307 307 311 308 308 313 320 321 320 316 316 316 317 315 314 316 314 314 313 313 314 312 312 314 313 313 313 314 315 313 315 317 317 317 318 317 317 315 316 318 317 316
302 306 306 306 310 308 309 314 318 320 318 318 318 316 315 317 316 315 314 317 317 316 316 315 315 314 313 314 314 314 316 317 317 318 319 317 317 317 317 316 316 317 315 314 315
305 309 308 308 309 309 309 318 317 316 320 319 319 316 316 314 315 314 314 314 313 314 315 315 316 314 314 314 316 315 316 317 320 320 319 317 318 318 318 317 316 314 313 313 314
308 310 309 307 311 308 315 316 315 320 317 317 318 317 319 320 318 317 315 314 314 312 315 315 315 314 314 315 315 316 317 316 318 318 322 319 318 317 318 318 316 313 313 313 314
306 306 309 309 311 311 316 313 316 316 317 317 318 318 318 316 317 320 320 318 316 314 313 315 317 314 315 314 314 315 315 318 318 322 324 320 319 319 318 317 315 313 313 313 314
307 312 310 311 311 317 322 318 316 316 316 319 319 319 318 318 316 318 316 315 314 315 313 313 316 316 314 315 316 316 317 319 319 321 325 323 320 318 318 316 314 313 313 314 316
305 315 311 312 320 313 316 313 311 315 317 317 318 319 318 316 317 317 317 316 315 315 316 314 315 317 316 315 313 314 316 316 325 323 323 323 321 316 317 313 312 313 315 316 315
309 309 310 310 318 315 314 315 313 315 317 318 318 318 316 317 319 317 316 315 314 314 315 313 315 317 316 315 313 315 316 316 317 318 321 324 320 314 312 313 313 314 316 315 314
309 314 311 310 309 312 313 315 315 313 315 316 316 316 316 317 316 316 317 314 313 314 314 315 317 317 319 316 314 315 315 315 318 321 320 318 317 315 314 313 312 315 316 314 312
309 310 308 311 310 310 310 312 312 313 313 314 314 316 317 318 317 318 316 315 314 314 314 314 318 314 313 312 312 312 312 312 314 317 319 316 315 313 312 312 314 316 314 312 311
310 308 306 307 307 309 309 312 311 312 313 315 314 314 314 316 315 317 315 315 315 311 311 311 315 312 312 309 309 308 308 308 311 312 313 312 311 311 313 315 316 315 313 312 311
305 305 307 306 307 308 310 310 310 308 308 312 312 312 312 312 311 311 312 312 311 311 311 309 309 310 311 308 309 311 311 309 308 308 308 310 311 315 317 316 316 314 313 312 310

GFSSW_925_thetae_096.txt.gz
Theta_e
308 308 309 309 309 308 308 309 309 309 310 310 310 310 310 308 302 310 310 309 310 307 314 314 311 312 313 317 318 320 320 320 320 320 321 322 322 323 322 322 322 323 324 324 323
309 309 309 309 309 309 309 308 309 309 310 309 308 308 309 307 311 311 308 305 311 308 315 314 313 313 315 317 318 319 319 319 319 320 320 321 321 320 319 320 321 321 322 322 322
310 310 309 308 309 309 308 309 309 309 309 309 308 308 304 308 316 320 317 307 308 310 313 312 313 314 315 316 318 319 320 319 319 319 319 318 318 319 319 320 320 321 322 322 322
310 310 310 309 309 309 309 309 309 309 309 309 308 307 304 312 320 317 316 314 308 314 312 313 312 314 315 316 317 317 318 318 318 318 318 319 319 318 317 319 319 320 320 320 322
310 311 311 309 308 309 309 307 307 309 310 310 310 306 312 313 310 322 312 311 321 315 311 315 314 314 315 315 316 316 317 316 316 316 315 316 316 317 317 318 318 319 319 320 321
307 309 311 310 310 308 309 308 307 308 308 310 309 304 313 309 306 321 317 319 315 311 316 317 316 315 315 314 314 316 315 315 316 316 316 316 316 317 317 318 318 318 319 320 320
308 307 307 310 308 307 307 308 307 309 310 309 306 311 312 310 310 319 317 314 312 316 318 317 316 316 316 316 316 316 316 316 317 317 317 317 317 316 317 317 317 318 318 318 319
307 307 307 307 309 306 305 306 307 308 310 311 306 313 314 307 308 316 317 313 313 315 316 316 315 316 317 316 315 316 316 316 317 315 316 316 316 318 317 317 318 318 318 318 319
306 306 306 306 307 308 305 306 310 308 311 311 314 313 318 311 311 312 318 315 313 313 315 315 316 316 315 316 316 316 314 315 315 315 315 315 316 317 318 318 318 319 319 318 319
304 305 305 305 306 308 306 311 310 313 314 313 313 318 319 315 313 314 315 315 315 316 316 316 316 316 315 316 315 316 315 314 316 317 317 317 317 317 318 318 319 319 319 319 319
302 304 305 306 306 307 308 315 320 321 319 319 319 318 316 316 317 315 315 316 317 317 317 316 316 317 317 316 315 315 315 316 317 317 317 318 318 318 318 318 318 318 319 319 320
303 303 303 305 306 306 310 315 317 316 319 318 318 317 316 316 319 317 316 317 317 318 317 317 316 317 317 316 315 315 316 317 317 317 317 318 318 319 319 319 319 319 319 319 319
303 301 303 305 307 310 313 315 314 315 319 318 316 317 317 316 318 319 316 317 317 318 317 317 317 315 316 316 315 315 316 317 318 318 318 318 319 319 319 319 319 319 319 319 319
301 302 303 306 310 312 313 314 315 314 321 319 318 318 316 317 318 317 316 317 316 316 316 316 316 315 315 315 316 317 317 317 317 318 319 319 320 320 320 320 320 319 319 320 320
301 304 303 304 310 313 314 313 314 316 324 320 319 317 316 316 318 317 316 315 316 315 316 316 316 316 316 316 316 316 316 317 317 319 320 320 321 321 321 320 320 320 320 320 320
303 305 304 310 310 313 312 311 316 323 322 321 319 320 318 318 316 317 318 316 316 316 316 317 317 316 317 317 316 317 316 318 319 320 321 320 321 321 322 321 320 319 319 320 318
306 309 308 310 314 309 310 315 322 320 319 320 320 319 319 318 318 317 318 319 318 319 319 318 318 317 317 317 317 317 319 321 323 323 324 322 321 322 321 320 320 320 320 318 317
308 310 309 311 312 311 313 320 319 317 321 321 320 319 320 318 318 318 317 318 318 318 319 319 319 318 317 318 318 320 321 322 325 324 323 322 323 322 320 320 320 319 317 317 317
310 313 313 311 312 312 319 320 318 320 318 319 320 321 322 322 320 321 320 319 318 316 318 319 319 317 316 317 318 320 320 320 322 322 324 323 322 321 320 320 320 319 317 317 316
310 314 314 312 313 317 320 314 318 318 318 319 319 319 320 319 319 322 322 321 319 316 317 318 322 318 317 316 317 318 318 322 321 328 329 324 323 323 321 321 320 319 317 316 316
314 320 314 313 314 321 323 320 317 317 317 319 320 320 320 320 320 319 320 319 318 319 318 318 321 323 319 318 318 319 320 319 320 322 330 328 324 321 320 320 320 318 316 316 315
315 320 313 315 324 321 322 318 313 317 317 318 319 320 320 320 321 320 321 320 316 317 318 318 320 323 322 319 317 317 319 320 329 327 325 329 328 320 320 319 318 317 316 315 316
316 316 314 316 323 321 320 318 317 318 318 319 319 319 319 320 321 320 319 317 316 317 319 317 321 323 321 320 318 318 318 318 319 320 325 331 325 319 318 317 316 316 314 315 317
315 319 316 316 315 318 319 319 318 315 316 317 318 318 319 319 318 319 318 317 315 315 315 315 320 321 323 322 320 319 317 317 319 326 323 322 322 320 319 317 315 314 314 317 318
313 314 312 316 315 314 314 315 315 315 314 314 316 316 318 320 318 318 317 317 316 316 316 315 320 319 318 318 317 317 316 315 316 318 321 320 320 318 316 314 313 314 317 318 317
314 313 311 312 311 313 312 314 312 313 311 315 315 314 315 315 316 318 317 315 315 314 316 315 319 318 318 316 314 314 312 312 313 312 312 313 313 314 313 314 317 317 317 317 316
309 309 312 310 311 312 312 312 312 310 311 311 312 312 314 313 312 312 313 313 314 314 315 316 317 318 318 313 312 312 311 311 311 312 311 312 312 313 316 316 316 318 316 315 315

GFSSW_925_thetae_099.txt.gz
Theta_e
311 310 309 309 309 310 309 310 310 310 310 311 311 310 308 306 301 310 312 311 312 310 313 316 314 314 314 318 320 321 322 323 322 322 323 324 324 325 327 326 327 327 327 328 326
310 310 310 309 309 309 310 309 310 310 310 310 310 309 306 302 311 312 312 310 308 307 314 316 315 315 316 318 320 321 321 321 321 322 323 323 323 324 324 324 324 325 325 324 325
311 311 310 310 309 309 310 310 310 310 310 309 309 309 304 308 317 320 313 311 305 306 315 316 316 316 317 318 320 321 320 321 321 321 321 321 322 322 321 321 322 323 324 325 325
311 311 311 311 310 310 310 309 309 309 309 309 308 305 302 313 323 325 317 308 310 313 315 315 316 316 317 318 319 320 320 321 321 321 320 320 320 320 321 321 321 322 322 323 323
308 308 309 311 311 310 308 309 309 309 309 309 307 302 312 317 315 320 312 311 310 318 315 316 315 316 317 318 319 319 319 320 319 319 319 319 319 319 319 320 320 320 321 321 322
307 307 306 307 311 310 308 308 308 308 308 309 307 302 316 315 311 320 315 318 321 319 314 316 318 317 318 318 318 319 319 319 318 318 318 318 318 319 319 319 320 320 320 320 321
305 306 306 305 307 311 308 307 308 308 309 310 306 311 316 315 310 321 319 319 317 314 318 319 319 318 318 318 318 318 318 318 318 318 318 319 319 319 319 319 320 320 320 321 321
302 303 305 305 305 307 309 306 306 308 309 310 304 315 321 312 310 319 320 317 314 317 319 318 317 318 319 320 319 318 318 319 319 320 319 319 319 320 321 320 320 319 320 320 320
300 302 304 304 305 306 308 305 308 310 309 310 315 318 322 311 310 313 320 317 316 317 317 317 317 318 319 318 319 319 318 319 318 319 318 317 318 319 320 320 320 320 320 320 321
301 303 303 304 305 307 307 310 313 312 313 316 317 320 320 318 314 310 318 317 317 316 318 318 318 319 318 318 317 318 319 318 318 319 319 318 318 319 320 320 320 321 321 321 321
304 302 302 305 307 307 310 317 323 322 320 324 323 321 318 318 315 314 316 318 317 318 319 319 320 320 319 319 318 319 318 319 319 319 319 320 320 320 321 321 321 321 321 321 321
306 302 303 306 307 308 310 317 320 318 319 320 320 320 319 318 319 316 317 318 318 320 320 320 320 320 319 319 319 318 318 319 319 319 320 320 320 321 321 321 321 321 321 321 321
304 304 304 306 308 309 315 317 316 318 321 321 318 319 319 318 318 319 318 318 319 320 320 321 321 318 318 319 319 319 318 319 319 320 320 321 321 321 321 321 321 321 321 321 321
307 304 304 306 310 317 317 317 316 318 324 323 319 320 318 318 319 319 317 318 319 320 320 320 320 319 318 317 318 319 318 318 318 319 320 321 322 323 323 322 322 322 322 322 321
306 303 304 305 311 317 317 316 317 319 331 322 321 319 319 318 319 319 319 317 318 318 317 318 318 318 318 318 318 317 318 318 319 320 321 321 323 323 323 324 323 323 322 322 324
306 305 308 312 310 316 316 315 318 325 328 324 321 321 319 319 319 319 319 318 318 318 318 316 317 318 318 318 318 318 318 319 320 321 323 323 325 325 325 325 325 324 323 322 322
306 308 309 314 318 314 315 316 325 327 321 322 322 321 321 321 319 320 320 321 319 320 320 318 318 318 318 318 319 319 320 322 324 325 326 325 326 326 325 324 323 323 323 323 322
308 311 314 315 316 315 316 321 329 321 322 323 322 321 321 321 321 320 320 321 321 321 322 323 324 321 319 320 320 321 321 322 326 328 327 325 327 326 325 323 323 322 322 321 320
311 317 316 316 316 316 321 327 324 323 321 320 321 322 323 322 322 323 323 323 322 321 322 322 324 321 321 319 319 320 321 321 325 326 327 325 325 325 325 324 323 322 322 321 320
312 319 317 316 317 319 325 320 321 319 319 319 321 321 323 325 322 324 323 323 322 321 319 321 325 322 321 319 319 319 320 324 326 333 331 326 327 327 326 325 323 322 322 321 319
315 324 318 318 318 323 325 324 320 318 319 320 322 322 322 323 322 322 322 321 320 320 321 321 325 324 323 324 323 321 322 322 323 325 332 332 327 325 325 324 323 322 322 320 319
319 325 318 319 327 324 325 323 314 320 319 320 321 322 322 321 322 321 322 320 320 319 321 322 324 326 324 323 322 323 323 322 331 332 329 333 332 324 324 323 323 322 321 320 318
320 320 318 319 328 324 323 321 320 320 321 320 320 319 320 321 323 321 320 319 319 320 321 322 323 326 323 323 321 322 322 321 321 323 327 332 328 322 321 322 322 320 319 319 316
319 322 319 319 320 323 321 321 320 318 318 319 320 319 320 320 320 321 319 318 317 317 318 318 322 323 326 324 324 325 323 321 320 327 326 325 323 323 322 322 322 321 319 316 316
316 320 317 321 319 318 318 318 318 317 316 316 318 318 319 321 319 321 319 319 317 318 318 318 320 321 320 319 319 319 320 320 321 321 322 321 321 321 320 320 318 316 316 317 318
318 317 316 316 316 316 314 318 317 315 315 317 317 316 316 317 317 319 317 318 319 317 316 317 320 320 320 317 318 319 319 319 318 318 318 317 317 317 315 315 315 317 318 317 318
313 313 315 313 316 315 316 316 315 313 314 314 314 314 316 315 315 314 314 314 315 316 318 317 319 318 322 318 318 321 318 317 316 316 315 315 314 314 314 316 318 319 318 317 316

GFSSW_925_thetae_102.txt.gz
Theta_e
312 312 311 311 311 311 311 311 310 310 310 311 311 311 310 308 302 309 311 310 312 311 311 314 316 316 315 316 317 319 320 320 320 321 323 325 324 327 329 329 329 328 328 329 328
312 312 312 311 310 310 310 310 310 310 311 311 310 310 308 308 311 311 311 312 313 312 310 315 316 316 316 315 317 319 320 320 322 323 322 323 324 324 324 324 327 327 327 326 326
308 312 311 312 311 311 310 311 311 310 310 310 310 308 307 305 317 317 318 311 312 308 309 316 317 316 316 317 318 319 320 321 321 321 322 322 322 323 324 324 325 324 324 326 326
306 307 307 311 312 312 311 310 310 310 310 310 310 308 304 312 326 324 314 312 311 309 310 317 318 317 316 317 318 318 320 320 321 321 321 321 321 321 322 322 322 322 323 323 324
304 305 305 306 307 311 311 309 310 309 310 309 310 309 311 318 316 318 314 311 310 313 315 317 317 317 317 318 319 319 319 320 320 320 320 320 320 320 321 321 321 321 321 322 323
302 302 304 305 305 306 309 308 308 309 309 309 310 308 313 316 318 316 316 314 313 317 318 317 317 317 317 318 319 319 319 319 320 320 319 319 319 319 319 320 320 320 320 320 322
300 302 304 304 304 305 307 308 306 308 308 310 310 313 316 317 312 319 317 318 319 320 318 315 318 319 318 317 320 319 319 319 319 319 319 319 318 319 320 320 320 320 321 321 322
300 303 305 306 305 306 307 307 306 306 308 309 310 314 322 318 315 314 320 320 319 315 316 319 319 320 320 320 320 319 318 318 319 320 319 319 318 319 321 321 320 320 320 321 322
303 305 303 304 306 307 308 307 306 309 310 309 314 317 321 315 315 312 320 320 316 317 319 319 319 319 319 319 320 320 319 319 319 320 320 319 319 319 320 321 320 321 321 321 322
308 304 302 306 306 307 308 311 315 311 313 316 317 321 321 321 318 312 317 319 317 317 317 318 318 318 318 319 318 318 319 319 319 320 320 318 318 318 319 321 321 322 322 322 323
310 306 304 305 307 307 308 316 322 323 321 322 323 321 321 320 316 313 314 320 319 318 317 319 320 319 319 319 319 319 319 319 320 321 320 320 320 320 321 321 321 322 322 324 324
311 309 306 305 307 307 307 317 319 319 320 322 322 321 321 319 320 316 314 319 319 319 319 319 321 320 320 320 320 320 319 319 319 320 320 320 320 321 321 322 322 322 323 324 324
311 310 306 305 306 308 312 316 317 317 321 321 321 322 320 319 318 319 317 318 319 319 320 321 321 321 320 320 320 320 320 320 319 320 320 321 321 321 321 322 323 323 324 324 324
311 310 305 306 310 318 319 318 319 317 323 324 321 319 319 319 319 318 317 318 318 319 320 321 321 321 320 319 319 319 320 320 319 319 319 320 322 324 322 324 324 325 324 323 324
310 308 305 305 311 318 319 319 318 320 334 323 321 320 320 319 320 318 318 318 319 319 319 319 319 319 320 319 319 319 318 319 319 320 320 320 321 321 323 323 324 326 325 325 325
310 308 306 314 311 314 318 318 318 325 332 325 322 320 320 320 320 320 320 319 317 318 319 318 318 317 318 318 319 318 318 319 319 320 323 321 322 322 324 325 327 327 325 324 325
309 307 307 311 320 318 318 319 323 330 326 325 324 321 321 321 321 320 321 320 319 319 320 320 319 318 318 318 319 319 321 322 322 324 324 323 323 326 328 326 325 325 324 324 324
308 310 313 314 318 317 318 320 330 328 325 325 324 323 323 323 322 321 322 322 321 320 321 323 326 321 319 318 319 319 321 322 324 327 325 325 328 328 327 326 325 324 324 324 323
309 317 319 319 318 318 321 327 329 325 323 322 322 323 324 324 323 323 322 323 324 323 325 326 325 323 323 323 323 322 322 322 324 324 329 327 326 326 326 327 326 324 324 324 322
307 318 320 318 317 318 325 329 324 321 321 321 323 322 325 326 327 324 325 324 324 322 323 324 324 322 323 322 322 322 320 322 324 333 332 326 326 328 329 328 326 325 325 324 324
311 325 320 319 318 324 328 325 321 320 320 322 323 324 324 324 324 325 325 323 322 322 321 323 325 325 323 324 324 324 323 323 323 326 334 332 328 328 327 326 325 324 324 324 323
319 327 320 320 326 328 327 326 316 320 320 321 321 322 323 323 324 323 322 322 321 321 323 323 326 327 323 321 322 324 326 326 332 332 331 333 333 327 328 324 326 324 324 323 323
320 321 320 320 328 330 327 323 320 320 321 321 321 321 322 322 323 321 321 320 320 321 324 323 325 326 322 322 323 325 324 324 327 329 330 332 328 322 323 324 323 323 323 322 322
319 322 322 320 321 323 323 321 322 320 317 318 320 320 320 320 320 321 320 319 318 319 321 320 322 325 327 323 322 324 324 323 324 331 327 326 324 322 323 325 323 324 323 322 320
319 321 320 323 321 320 319 319 320 318 318 317 318 318 319 319 320 320 318 318 318 320 319 321 322 321 319 318 319 320 319 319 323 324 326 324 322 321 321 320 320 320 321 320 318
317 318 318 316 318 318 315 318 319 318 316 317 318 317 317 317 317 317 317 317 317 318 319 321 321 320 321 318 318 318 318 318 318 319 321 321 323 320 319 318 318 318 318 318 318
313 314 315 316 318 317 318 319 317 315 315 315 315 315 315 315 315 315 315 315 316 317 318 320 320 320 320 317 317 323 320 320 319 319 319 320 318 317 316 316 318 318 318 317 316

GFSSW_925_thetae_105.txt.gz
Theta_e
310 312 311 312 311 310 310 310 311 310 310 310 311 311 312 311 306 309 311 305 306 308 311 310 312 315 312 313 313 314 313 314 315 317 318 319 320 320 328 328 328 327 327 328 328
307 308 310 311 312 311 310 310 310 311 311 310 311 310 310 309 309 311 304 307 309 310 310 311 311 314 312 313 312 311 313 315 317 318 317 319 319 318 321 325 325 326 326 326 326
304 305 305 307 310 311 312 310 309 310 310 311 311 310 310 309 314 314 318 307 312 312 312 310 311 313 312 312 312 313 314 317 318 318 318 318 318 319 319 321 323 325 324 323 323
302 302 303 304 305 308 311 311 310 309 310 311 310 310 309 310 324 321 318 313 310 312 308 309 310 312 311 311 312 313 315 317 317 318 318 319 319 319 319 319 319 319 320 319 319
300 301 303 303 305 305 307 310 310 309 309 309 310 310 311 315 314 316 314 314 311 310 310 309 314 314 314 312 313 313 315 317 317 317 316 318 318 318 317 318 319 319 319 318 317
300 301 304 305 304 306 306 307 308 308 308 309 309 309 313 314 318 314 313 312 311 311 311 311 314 313 313 313 312 314 315 316 316 316 317 317 317 318 318 318 318 318 318 318 316
301 305 306 303 305 306 307 307 307 306 307 308 310 313 314 314 318 315 315 313 313 314 318 317 316 314 316 313 314 315 315 315 316 317 316 316 315 316 316 317 317 317 318 317 317
307 308 307 306 306 306 307 308 307 306 306 308 310 314 316 319 315 317 317 318 317 315 318 319 316 317 318 315 316 316 316 313 315 316 316 315 315 317 317 316 317 317 318 319 318
310 310 308 307 307 307 307 308 308 309 311 310 312 314 320 318 317 314 316 319 319 319 316 319 318 318 317 315 314 315 315 316 316 317 317 316 315 317 317 317 319 317 317 317 316
311 311 310 309 306 307 308 309 314 312 314 314 316 318 319 321 318 316 312 319 318 315 317 317 315 315 313 313 314 315 316 317 317 317 316 315 315 316 316 319 318 318 318 318 318
311 310 311 309 306 305 308 310 319 319 319 321 320 318 320 321 316 314 312 318 319 316 315 315 314 314 314 314 315 316 317 316 316 317 318 315 315 316 317 318 317 317 317 317 318
311 310 310 308 306 306 306 311 317 317 319 322 321 320 320 321 320 316 313 317 319 317 316 315 315 317 318 318 318 317 317 317 318 318 317 316 317 317 317 318 317 317 317 318 319
310 310 310 307 307 307 308 311 314 316 317 318 321 322 321 320 319 318 312 314 319 318 317 316 317 319 320 319 319 318 318 318 319 319 317 316 316 317 320 318 317 318 317 318 318
310 310 309 307 311 313 315 317 315 316 320 323 322 321 321 320 319 318 318 316 317 318 317 317 318 319 320 320 318 317 317 317 320 319 316 317 316 317 319 319 319 319 317 317 318
310 310 309 307 307 312 319 318 319 316 329 323 320 319 318 319 318 318 318 317 317 318 317 319 318 317 317 318 317 318 318 316 317 317 318 318 316 316 318 319 319 319 319 317 317
309 310 308 311 310 317 317 319 318 324 331 324 321 320 319 318 319 317 318 318 317 317 317 318 318 317 317 317 318 318 318 318 317 316 316 317 318 317 318 319 320 322 322 322 321
309 309 308 307 315 318 318 318 321 328 328 327 322 320 320 320 319 318 320 318 318 317 318 319 319 318 318 317 317 317 317 317 318 318 320 319 319 318 318 325 325 323 323 322 319
309 310 312 313 316 318 317 320 325 330 328 326 323 321 320 321 320 320 320 320 318 317 319 320 322 321 320 318 317 317 317 318 321 321 320 320 324 324 324 324 323 324 321 321 319
309 311 316 319 317 317 319 324 330 327 322 322 322 323 323 324 325 322 321 321 322 323 327 327 326 323 323 323 323 321 323 319 322 321 322 322 322 323 325 326 325 325 323 320 318
308 310 319 321 319 319 322 327 328 321 321 321 322 323 326 329 330 326 326 324 324 324 322 325 327 322 322 321 321 322 321 323 323 328 328 326 324 326 326 326 325 324 323 320 319
310 320 320 318 318 322 326 328 326 320 320 321 323 324 324 325 325 326 325 323 322 321 320 322 324 325 322 323 322 321 323 321 320 327 327 324 324 325 327 325 324 321 321 321 321
311 325 320 318 322 324 328 327 322 320 320 320 321 322 324 323 323 323 323 323 320 321 322 323 324 326 324 320 320 319 320 326 331 331 326 322 325 322 324 322 321 320 320 320 319
311 319 321 320 324 325 328 325 325 320 320 321 322 321 321 322 322 322 321 320 319 321 324 323 322 322 321 320 323 325 323 322 327 327 331 333 328 322 320 322 320 318 319 320 321
312 323 323 322 321 322 324 325 324 320 317 318 319 319 319 320 319 320 320 319 318 321 323 320 321 322 321 321 320 321 321 320 323 328 329 328 326 322 319 322 321 319 318 319 318
314 322 319 321 321 321 320 319 319 319 318 317 318 318 318 318 317 318 319 317 318 322 319 318 320 319 318 318 317 317 318 317 318 318 323 322 322 320 318 317 316 316 316 318 318
316 317 315 316 319 318 317 318 318 318 317 319 318 318 316 317 316 316 315 316 317 319 320 320 320 318 319 316 317 318 317 317 317 317 316 316 317 316 317 317 316 315 316 317 316
313 314 314 317 317 319 318 319 317 315 315 315 314 314 315 315 314 313 313 314 314 316 316 318 319 320 319 316 316 315 315 315 318 318 318 319 317 318 317 318 315 313 314 315 315

GFSSW_925_thetae_108.txt.gz
Theta_e
305 306 310 311 311 311 310 310 310 310 310 310 310 310 311 311 309 307 309 303 304 310 310 310 311 314 311 311 312 311 310 311 314 316 317 317 318 319 318 326 326 327 328 328 331
302 303 304 307 311 311 311 311 309 310 310 310 310 311 311 309 309 310 304 304 304 306 310 309 309 312 310 311 312 309 308 311 314 317 317 316 317 317 319 318 323 325 326 327 326
300 301 303 304 305 310 311 312 311 310 310 310 311 311 310 308 311 311 315 309 305 309 310 310 310 310 312 311 310 310 310 313 316 316 316 316 316 318 318 319 319 320 320 319 321
299 300 303 304 303 304 307 310 310 312 310 310 310 310 309 310 318 321 316 314 306 310 311 310 307 308 310 310 310 312 311 312 314 315 316 316 317 318 317 317 318 318 319 317 316
300 302 305 304 303 304 306 307 309 310 310 310 310 309 311 313 310 311 314 312 310 311 309 307 306 311 311 309 310 311 311 312 314 315 314 314 316 317 317 317 317 317 318 318 317
304 307 309 307 305 306 306 307 307 308 310 309 310 310 312 307 308 317 314 310 309 310 309 307 310 312 313 312 310 312 312 312 313 313 313 315 315 316 317 317 316 316 316 316 316
311 310 310 309 308 306 307 307 307 308 308 311 311 313 313 309 314 317 313 312 311 310 311 309 310 313 313 315 312 311 312 312 313 314 314 314 315 315 316 316 316 315 314 315 315
311 311 311 311 310 307 307 308 308 309 307 311 311 314 314 314 314 314 314 312 311 309 313 313 313 311 314 314 314 315 313 313 312 314 315 314 315 315 314 314 315 314 315 317 316
311 311 310 310 310 308 307 309 309 312 311 312 311 313 317 319 318 316 316 317 314 312 314 317 317 315 315 314 311 311 315 315 316 315 315 314 314 315 314 314 315 315 314 315 315
311 310 310 310 310 308 307 309 311 314 313 313 314 315 315 320 317 318 316 317 318 317 315 315 311 313 311 311 314 314 315 314 315 316 315 314 314 315 314 313 314 314 314 314 314
310 310 310 310 309 309 308 309 317 318 316 317 318 317 318 321 319 317 312 313 317 313 313 314 313 313 312 312 314 314 314 314 315 315 316 314 314 313 313 314 314 314 314 315 315
310 310 310 310 309 308 307 307 313 313 318 320 319 317 315 319 321 313 314 311 318 314 313 313 312 312 314 314 315 315 314 314 314 315 315 316 316 315 315 315 314 315 314 314 314
309 309 309 309 309 308 307 309 313 312 316 318 321 321 320 320 321 316 310 312 318 317 314 313 314 315 315 316 318 316 315 316 317 317 316 316 315 315 315 316 316 314 314 315 314
309 309 309 310 310 309 309 317 315 311 318 321 319 322 320 319 319 318 311 311 315 317 316 314 315 316 316 317 317 318 316 316 316 316 315 315 316 313 314 315 316 315 314 313 314
309 308 309 310 308 308 317 317 314 314 325 324 320 320 318 318 318 317 317 315 315 316 315 316 318 317 317 316 317 316 317 317 317 315 315 315 313 313 315 316 315 315 315 315 314
309 308 308 309 309 316 316 317 316 322 329 323 319 319 320 320 318 317 317 316 317 317 316 316 316 317 316 317 316 316 317 314 313 312 314 314 315 314 315 316 315 316 319 319 317
308 309 308 308 310 317 316 315 318 325 327 323 320 318 318 319 319 317 317 316 316 316 316 317 317 316 316 317 316 316 314 315 316 314 316 316 317 314 315 321 321 322 319 317 316
308 309 312 313 314 314 316 316 322 326 328 327 323 318 319 319 318 317 317 317 316 315 316 318 321 320 320 317 317 314 313 314 319 318 317 318 320 320 321 323 322 320 318 316 314
308 309 310 316 318 313 315 321 324 329 322 321 321 320 320 320 321 319 318 318 318 316 317 325 324 322 323 323 322 321 319 315 319 320 320 319 319 321 324 324 323 321 319 318 316
308 308 312 319 319 316 319 324 326 326 320 321 323 324 328 326 328 326 321 323 323 321 320 323 326 322 322 320 320 321 320 323 320 325 325 324 323 323 326 323 322 320 319 318 318
308 315 321 320 320 317 323 326 328 324 320 322 322 323 323 327 326 327 327 321 322 320 319 320 321 323 321 321 321 320 320 320 320 325 324 321 322 322 323 322 321 321 320 319 318
306 320 320 318 318 319 323 327 325 326 321 320 320 323 322 321 322 322 325 322 319 320 322 320 321 325 323 320 319 318 320 324 326 326 323 316 320 320 319 319 320 320 318 318 319
306 311 318 318 321 321 325 323 326 326 320 319 321 320 319 320 319 320 321 319 318 321 322 320 318 318 315 320 320 322 322 322 325 326 330 333 329 320 319 318 318 317 315 316 317
306 317 317 317 318 321 323 324 324 322 320 317 317 317 317 318 317 318 319 318 318 321 323 317 317 315 315 318 318 319 318 316 320 326 326 327 324 321 320 319 316 316 315 313 314
308 317 315 319 318 316 318 319 319 322 316 315 317 317 317 317 315 317 315 315 320 322 317 314 316 319 318 317 317 316 317 316 316 316 320 318 318 316 316 316 316 315 314 314 314
313 313 312 316 318 318 315 316 319 317 316 316 316 315 313 315 315 315 314 314 316 318 318 314 317 316 318 317 316 317 316 316 316 316 316 316 316 313 312 313 312 313 313 313 312
310 311 310 313 316 319 316 317 316 314 313 312 312 312 314 313 311 311 310 311 313 314 315 315 315 316 317 315 314 313 311 313 314 314 314 316 317 316 315 314 312 311 312 312 312

GFSSW_925_thetae_111.txt.gz
Theta_e
301 302 303 305 310 311 311 310 309 309 310 310 310 310 310 310 310 310 309 304 304 309 309 311 311 311 310 309 311 309 310 311 314 316 317 315 315 316 316 320 323 325 331 331 340
300 301 302 304 304 309 310 310 310 310 309 309 309 310 310 310 309 309 303 303 304 306 308 307 309 311 308 310 310 309 308 312 313 316 316 314 315 315 317 318 321 324 322 327 346
300 300 303 305 303 304 306 309 311 310 310 310 310 310 309 309 309 305 309 305 304 304 307 308 309 311 311 309 310 308 310 312 314 316 315 316 315 316 317 319 319 320 318 317 320
302 303 307 308 304 304 306 307 308 311 310 310 310 309 309 310 304 318 319 315 304 305 310 308 306 307 309 311 310 311 310 312 313 314 314 314 315 316 316 316 317 317 317 317 317
309 310 310 310 308 308 306 306 307 309 310 310 310 309 311 311 306 307 311 316 304 304 310 307 306 307 310 309 309 310 311 311 312 312 312 313 314 315 315 315 315 315 316 315 315
311 311 311 311 310 310 308 306 307 307 311 310 310 310 310 305 305 314 315 308 306 310 308 306 306 308 312 311 309 310 310 311 311 311 311 313 314 313 314 315 316 314 314 313 313
312 312 311 310 310 310 310 307 308 308 311 310 311 311 313 310 311 318 314 308 309 310 308 308 308 312 311 313 310 311 312 311 311 312 312 312 313 314 314 315 315 314 313 312 312
313 312 311 311 310 310 310 308 308 308 311 311 312 312 313 312 316 316 314 311 310 311 310 310 308 309 312 313 312 314 312 313 313 313 313 314 314 315 314 313 313 313 312 313 313
312 311 310 310 310 310 310 309 309 311 312 312 311 312 313 316 318 314 313 313 310 309 310 313 312 313 313 313 313 311 313 313 315 313 314 313 313 314 313 313 313 313 312 312 312
310 310 310 310 310 310 310 309 310 313 313 312 313 315 312 317 318 318 315 314 314 311 313 314 311 312 309 311 314 314 314 314 315 316 314 314 313 312 313 312 313 312 312 313 313
310 310 309 309 310 311 309 308 314 315 314 315 316 315 316 320 318 316 316 314 315 314 314 312 312 312 313 312 313 314 314 314 314 314 315 313 312 312 312 312 311 311 311 312 312
310 309 309 310 310 310 308 306 310 313 316 317 316 315 315 317 320 316 314 313 314 313 312 311 312 312 312 312 313 313 314 313 313 313 312 313 313 313 314 312 311 312 312 312 312
309 309 309 310 309 308 307 308 312 312 314 317 320 320 319 317 319 320 310 311 315 313 311 311 313 313 313 314 315 315 314 314 314 315 314 315 314 314 314 315 315 313 312 312 311
309 309 309 309 309 307 307 313 314 312 317 319 322 321 320 319 320 318 310 310 315 316 312 312 312 314 314 314 314 315 314 316 315 314 313 314 314 312 313 313 313 313 311 311 311
309 308 309 307 307 307 313 314 313 311 325 321 321 319 318 318 317 317 312 312 313 315 314 315 315 315 315 315 315 315 316 315 315 314 314 313 312 312 313 315 314 313 313 313 311
309 309 310 308 307 311 314 312 313 321 326 323 319 320 319 318 317 316 316 315 314 315 315 314 315 316 315 315 315 315 316 312 310 310 313 313 313 312 314 314 314 315 319 317 315
308 308 308 308 308 313 312 312 319 325 323 322 319 318 319 320 319 317 316 315 315 316 316 316 316 315 315 316 315 314 312 313 314 313 314 313 314 312 314 318 320 320 318 315 314
308 308 309 310 312 311 312 316 322 322 327 327 320 318 318 318 318 317 316 316 315 314 315 318 320 317 317 317 316 312 311 313 317 316 315 316 318 316 321 321 320 318 315 314 313
308 308 307 312 312 311 313 320 321 327 327 328 321 320 319 319 318 317 315 315 316 314 316 317 319 321 321 321 321 319 314 311 316 318 319 318 318 317 321 321 320 318 317 316 313
307 305 308 315 315 313 318 321 323 324 326 322 323 323 320 321 325 318 317 320 321 318 317 322 324 322 321 319 319 321 319 322 318 323 324 321 321 319 324 322 320 319 318 316 315
306 309 317 317 316 315 321 323 327 326 324 323 322 323 325 326 325 326 324 321 320 320 318 318 319 321 319 320 320 319 319 319 318 319 321 320 321 318 322 320 321 320 318 318 318
305 311 317 316 317 317 323 324 323 325 324 321 321 322 323 322 321 325 326 323 319 319 321 319 318 323 322 317 318 318 321 320 323 324 318 315 318 318 319 317 316 316 317 317 319
306 307 314 317 321 322 322 324 325 324 323 321 320 319 319 320 320 321 321 319 319 321 321 318 317 316 310 317 316 319 318 321 320 322 327 331 324 318 318 317 316 316 314 313 314
307 315 317 318 317 319 323 323 324 323 322 318 317 316 317 317 315 319 320 318 319 321 320 315 315 313 311 316 316 318 317 316 317 319 325 324 323 320 319 319 316 314 312 311 312
306 316 314 320 320 317 317 319 323 322 319 315 316 317 317 316 315 315 314 316 320 320 316 312 314 318 317 316 316 316 315 314 315 317 319 316 318 317 315 315 314 311 312 311 311
312 314 313 315 318 318 316 315 320 317 316 315 316 315 313 315 314 315 313 313 316 315 316 311 315 316 317 315 315 315 314 314 314 315 314 315 315 311 312 311 312 311 311 311 310
309 310 309 313 316 318 319 316 316 313 312 312 314 314 314 312 310 309 310 309 312 314 313 312 312 311 313 313 312 311 310 311 312 312 313 314 312 316 314 312 311 310 310 311 310

GFSSW_925_thetae_114.txt.gz
Theta_e
302 301 302 305 306 307 310 310 310 309 309 309 309 309 309 309 309 309 308 305 304 307 308 311 309 309 310 309 310 308 309 311 314 314 316 315 315 315 315 317 323 324 330 332 351
302 302 302 305 307 305 306 307 310 311 310 310 309 309 309 309 308 308 305 303 304 305 309 310 310 309 309 309 310 310 309 311 312 313 315 313 315 315 316 318 320 324 321 348 350
306 306 309 309 309 306 306 307 309 310 311 310 310 309 309 308 307 305 305 305 304 305 308 310 311 310 309 309 309 308 310 312 313 313 315 315 313 315 316 318 318 319 318 327 344
311 311 311 311 311 310 310 307 308 311 311 310 310 309 308 308 303 312 316 313 304 304 306 307 306 310 311 309 309 310 309 312 313 314 313 314 314 314 316 316 317 317 316 316 328
312 313 313 312 311 311 311 310 308 309 310 310 310 309 308 308 307 303 311 313 310 307 308 305 306 307 309 310 309 309 311 311 311 311 311 311 311 313 314 314 313 313 315 314 314
311 312 313 312 312 312 312 312 310 309 310 310 310 309 308 307 303 315 317 318 308 308 308 305 305 308 310 310 310 310 311 311 310 310 310 311 312 311 313 314 314 313 313 314 312
311 311 311 312 312 312 312 312 310 309 311 310 310 309 311 309 308 310 316 315 308 307 307 307 307 310 311 310 308 310 312 310 310 311 311 309 311 311 313 314 314 313 311 311 311
310 311 311 310 311 312 311 311 310 308 311 310 310 310 311 311 313 313 314 312 309 308 309 309 308 309 311 311 312 312 311 313 313 311 312 312 312 314 313 313 313 312 311 311 311
311 312 312 311 310 311 310 309 309 313 312 311 311 310 311 312 315 315 313 310 310 309 310 309 308 310 312 312 312 311 313 312 314 312 313 312 312 313 313 311 311 311 311 311 310
312 311 311 311 310 310 309 309 311 312 311 311 312 313 311 315 317 315 313 310 309 308 308 310 310 311 309 310 312 314 313 313 314 315 312 313 312 312 312 313 312 311 311 311 311
311 311 310 310 310 309 308 308 313 314 313 314 313 314 313 316 317 315 313 313 313 311 312 311 311 311 311 312 313 313 313 314 313 313 314 313 312 312 311 312 309 309 309 310 310
310 310 310 309 309 308 307 308 308 311 315 314 315 314 314 316 318 315 314 314 314 314 311 310 312 311 312 312 313 313 314 313 313 313 312 313 313 312 312 312 312 311 310 310 312
309 309 309 308 308 307 307 308 310 311 311 315 317 316 317 316 318 318 313 311 313 312 310 311 313 312 313 313 314 313 313 313 314 314 313 313 313 314 313 312 312 312 310 311 312
308 309 309 308 308 307 306 310 311 311 314 317 322 320 318 317 319 317 311 312 314 312 309 311 311 313 312 313 312 314 313 315 315 314 315 313 313 312 313 312 312 312 310 311 311
307 309 307 307 307 307 310 312 310 309 324 319 321 318 319 319 318 316 309 309 313 315 312 313 314 313 313 313 313 314 314 314 315 313 312 312 312 310 312 315 313 312 312 315 314
307 308 306 307 306 308 310 311 311 319 324 322 319 320 319 318 319 316 312 311 311 314 314 314 314 314 314 314 312 313 313 310 308 308 313 311 312 311 311 313 314 316 316 317 314
307 306 306 306 307 309 310 309 319 324 321 321 319 319 319 319 317 317 314 313 314 314 315 315 315 315 315 315 314 311 310 312 314 312 314 311 312 311 312 314 317 318 317 314 312
305 305 308 308 308 310 310 314 322 320 322 327 319 320 319 317 318 316 314 314 313 314 316 317 318 315 315 314 314 312 311 312 316 315 314 314 316 315 317 319 317 315 314 313 311
304 307 306 308 307 308 312 321 320 322 328 327 321 320 318 318 317 316 315 314 314 313 317 317 321 320 319 318 316 314 312 310 312 316 317 315 316 315 320 320 319 317 316 314 312
305 304 304 310 308 310 317 321 320 323 326 325 326 320 319 321 320 316 317 318 321 315 315 320 324 321 321 319 317 317 314 319 315 322 323 318 320 318 323 320 319 318 316 315 314
305 305 311 312 310 314 321 320 320 324 325 326 326 326 322 324 323 323 319 320 319 319 316 317 319 321 318 318 320 319 319 317 316 316 319 320 319 316 320 318 316 315 315 314 315
306 307 311 310 317 315 319 322 319 325 324 324 323 324 325 322 322 325 324 321 319 318 320 318 316 321 320 315 317 317 321 318 321 322 315 315 317 315 316 316 315 314 314 313 311
306 307 310 314 320 319 320 322 322 324 324 322 323 322 320 322 323 322 320 317 319 321 320 317 317 316 311 316 315 317 317 319 317 316 322 326 321 317 317 317 316 315 313 311 311
307 310 315 317 317 319 321 322 324 324 324 322 317 317 318 319 318 321 321 321 320 320 320 319 315 313 315 312 315 318 316 316 314 317 319 321 321 319 318 317 314 311 310 310 309
307 313 314 319 320 319 318 319 323 324 321 321 319 317 316 317 316 317 316 320 318 319 314 312 315 317 315 316 316 315 316 314 314 314 315 314 318 316 315 313 311 311 310 310 310
310 314 313 315 316 319 317 318 321 319 316 316 317 315 314 315 315 315 313 316 319 315 315 310 316 315 316 315 315 315 313 313 313 313 313 313 314 311 310 310 311 310 310 310 309
307 310 311 313 315 319 318 317 316 317 315 315 314 314 313 312 310 308 308 308 312 315 313 312 312 312 314 312 311 310 310 311 310 310 311 312 311 312 313 312 310 309 310 310 309

GFSSW_925_thetae_117.txt.gz
Theta_e
303 304 303 305 308 310 308 309 311 311 310 310 309 309 308 308 309 309 310 308 306 306 305 312 309 310 310 311 311 311 323 321 316 317 319 318 319 318 318 319 325 330 332 338 353
308 309 311 311 312 311 309 309 310 311 310 310 309 309 309 309 309 308 308 306 305 305 309 311 311 310 313 311 311 317 324 325 317 316 317 318 318 318 320 320 327 328 347 350 352
311 313 313 313 313 313 313 312 312 311 310 310 310 309 308 308 307 307 305 304 303 304 309 311 311 317 316 312 311 313 318 319 315 315 316 317 317 317 319 321 322 328 347 353 352
311 311 312 312 313 313 313 313 313 313 311 310 309 309 308 307 304 310 309 312 304 309 308 309 312 319 324 318 312 313 313 312 314 315 317 317 316 317 317 319 318 318 325 350 353
310 311 311 311 311 312 313 312 312 312 311 309 309 309 307 308 308 302 310 316 313 314 308 310 313 320 324 321 315 314 312 312 315 314 314 314 314 315 317 318 318 318 318 326 348
310 310 310 310 311 312 311 311 311 312 311 310 309 308 308 309 304 312 319 318 313 309 307 308 313 314 319 316 318 314 315 314 313 313 314 313 314 314 316 317 318 318 319 319 322
310 310 310 310 311 311 310 310 310 311 311 310 309 308 309 311 307 310 317 316 314 307 307 308 310 314 313 312 313 312 312 312 313 312 313 313 314 315 316 317 318 318 319 318 319
310 310 310 310 310 310 309 309 309 309 312 310 310 309 312 310 312 313 316 315 313 306 307 307 309 312 314 313 312 312 312 314 315 313 314 314 316 317 317 316 318 319 318 318 319
310 309 309 309 309 309 308 308 309 312 311 310 311 310 313 310 314 313 312 313 309 308 309 308 309 311 314 316 316 315 314 315 316 314 315 315 316 316 316 317 318 319 319 319 319
309 309 309 308 308 308 308 308 310 311 311 311 311 312 313 313 315 314 311 309 308 310 310 310 311 311 314 316 316 317 316 316 316 315 314 315 316 317 317 317 319 320 320 319 319
308 308 308 308 308 308 307 307 311 313 312 314 314 314 313 313 315 314 310 310 310 310 311 311 310 311 313 316 316 316 316 316 316 315 316 317 318 318 319 316 318 319 319 319 319
307 307 308 307 307 307 307 308 310 310 316 314 314 313 313 314 318 314 312 315 311 310 313 312 311 313 316 316 316 316 317 317 317 316 316 317 318 319 318 318 319 318 319 318 318
306 306 306 307 307 307 307 308 309 310 315 315 316 315 315 315 317 315 314 315 312 312 315 313 313 316 315 315 317 317 317 317 317 316 316 317 318 319 319 316 317 318 317 317 318
305 305 306 306 308 307 307 308 309 308 318 318 319 318 316 318 320 317 315 316 315 316 315 316 313 316 316 317 317 318 316 317 317 318 318 316 317 318 318 319 318 319 319 321 323
305 305 305 305 306 307 309 309 308 310 326 319 321 318 318 320 318 315 314 314 315 315 315 316 314 315 316 316 315 316 316 317 318 319 318 317 318 318 316 318 319 319 321 323 324
303 304 305 305 306 307 308 310 311 320 325 321 320 321 320 320 319 312 313 313 316 316 317 316 315 315 315 316 316 316 316 315 315 317 319 319 319 318 318 319 318 321 323 323 322
303 303 304 305 306 307 307 309 320 326 319 323 322 321 320 322 323 316 314 315 316 319 319 317 318 317 316 317 316 317 319 319 319 319 318 316 317 318 318 318 322 325 324 322 320
303 303 304 305 306 307 308 316 326 322 320 325 320 321 320 321 322 323 314 315 315 316 319 319 319 318 317 318 318 318 319 318 319 319 318 317 319 319 321 322 321 321 321 321 320
303 304 305 305 306 307 313 323 324 322 323 327 324 322 320 320 322 324 323 315 314 317 319 319 319 319 318 317 318 317 319 318 320 319 320 319 320 320 323 323 323 322 322 321 321
304 304 305 306 306 307 315 322 322 319 325 326 327 322 321 321 319 320 322 317 316 316 319 319 322 321 322 319 319 318 317 320 320 323 322 321 322 320 327 325 323 323 323 322 320
304 306 307 307 308 313 321 322 320 320 324 327 328 326 322 321 320 319 319 319 319 318 321 322 324 324 321 322 323 321 321 322 322 323 324 324 322 323 325 323 322 320 319 318 318
304 307 309 308 315 316 321 320 318 320 324 325 323 323 326 322 321 323 322 322 320 318 320 320 324 325 322 319 319 321 323 325 329 328 325 327 326 320 322 322 322 319 317 317 317
305 306 307 309 322 321 320 320 320 321 324 322 324 321 323 322 326 324 323 320 320 321 322 321 323 323 321 321 319 322 323 324 325 326 330 331 327 321 321 322 319 317 316 316 317
306 309 313 315 318 320 322 322 322 321 323 322 320 322 320 323 322 322 323 322 321 322 322 322 320 322 326 322 321 321 321 323 324 329 324 326 324 324 323 323 319 316 316 316 315
307 311 313 314 316 311 320 319 321 323 323 320 319 320 319 321 322 321 322 320 318 318 316 322 327 321 318 318 318 319 319 318 319 319 321 318 321 321 319 317 316 315 315 315 314
309 310 311 313 314 313 316 316 320 317 320 320 318 320 318 320 321 321 320 321 321 319 318 317 321 318 319 316 316 317 316 316 316 316 317 317 317 316 315 315 315 315 315 314 313
305 306 310 311 313 311 315 313 316 317 315 316 316 315 315 313 312 312 313 316 318 320 318 319 320 319 318 315 314 313 312 314 314 315 315 316 314 315 316 317 316 315 314 313 313